<?xml version="1.0" encoding="UTF-8" standalone="no" ?>
<gpx xmlns="http://www.topografix.com/GPX/1/1" xmlns:xsi="http://www.w3.org/2001/XMLSchema-instance" xsi:schemaLocation="http://www.topografix.com/GPX/1/1 http://www.topografix.com/GPX/1/1/gpx.xsd" version="1.1" creator="VisuGPX - https://www.visugpx.com">
  <metadata>
    <name>Le Mont des Acrays (73 Beaufortain)</name>
    <desc><![CDATA[Départ du Mappaz.
Photos et infos sur : www.photosrandos.fr]]></desc>
  </metadata>
  <trk>
    <name><![CDATA[2022-03-27_084346]]></name>
    <extensions>
      <line xmlns="http://www.topografix.com/GPX/gpx_style/0/2">
        <width>4</width>
      </line>
    </extensions>
    <trkseg>
      <trkpt lat="45.67481" lon="6.57887">
        <ele>1280.3</ele>
        <time>2022-03-27T06:43:46.000Z</time>
      </trkpt>
      <trkpt lat="45.67481" lon="6.57887">
        <ele>1280.2</ele>
        <time>2022-03-27T06:43:47.000Z</time>
      </trkpt>
      <trkpt lat="45.67481" lon="6.57886">
        <ele>1278.8</ele>
        <time>2022-03-27T06:43:51.000Z</time>
      </trkpt>
      <trkpt lat="45.67481" lon="6.57884">
        <ele>1279.6</ele>
        <time>2022-03-27T06:43:55.000Z</time>
      </trkpt>
      <trkpt lat="45.67481" lon="6.57884">
        <ele>1280</ele>
        <time>2022-03-27T06:43:56.000Z</time>
      </trkpt>
      <trkpt lat="45.67481" lon="6.57884">
        <ele>1280.1</ele>
        <time>2022-03-27T06:43:58.000Z</time>
      </trkpt>
      <trkpt lat="45.67481" lon="6.57884">
        <ele>1279.4</ele>
        <time>2022-03-27T06:44:01.000Z</time>
      </trkpt>
      <trkpt lat="45.67481" lon="6.57884">
        <ele>1280.6</ele>
        <time>2022-03-27T06:44:02.000Z</time>
      </trkpt>
      <trkpt lat="45.6748" lon="6.57883">
        <ele>1279.2</ele>
        <time>2022-03-27T06:44:04.000Z</time>
      </trkpt>
      <trkpt lat="45.6748" lon="6.57884">
        <ele>1282.2</ele>
        <time>2022-03-27T06:44:06.000Z</time>
      </trkpt>
      <trkpt lat="45.6748" lon="6.57885">
        <ele>1279.9</ele>
        <time>2022-03-27T06:44:32.000Z</time>
      </trkpt>
      <trkpt lat="45.6748" lon="6.57885">
        <ele>1279.9</ele>
        <time>2022-03-27T06:44:32.000Z</time>
      </trkpt>
      <trkpt lat="45.67484" lon="6.57885">
        <ele>1281.3</ele>
        <time>2022-03-27T06:44:42.000Z</time>
      </trkpt>
      <trkpt lat="45.67484" lon="6.57884">
        <ele>1280.4</ele>
        <time>2022-03-27T06:44:52.000Z</time>
      </trkpt>
      <trkpt lat="45.67485" lon="6.57884">
        <ele>1281.2</ele>
        <time>2022-03-27T06:44:56.000Z</time>
      </trkpt>
      <trkpt lat="45.67485" lon="6.57883">
        <ele>1281.1</ele>
        <time>2022-03-27T06:45:29.000Z</time>
      </trkpt>
      <trkpt lat="45.67486" lon="6.57883">
        <ele>1281.2</ele>
        <time>2022-03-27T06:45:34.000Z</time>
      </trkpt>
      <trkpt lat="45.67486" lon="6.57882">
        <ele>1281</ele>
        <time>2022-03-27T06:45:38.000Z</time>
      </trkpt>
      <trkpt lat="45.67486" lon="6.57882">
        <ele>1280.8</ele>
        <time>2022-03-27T06:45:39.000Z</time>
      </trkpt>
      <trkpt lat="45.67486" lon="6.57882">
        <ele>1281.3</ele>
        <time>2022-03-27T06:45:44.000Z</time>
      </trkpt>
      <trkpt lat="45.67486" lon="6.57882">
        <ele>1281.3</ele>
        <time>2022-03-27T06:45:45.000Z</time>
      </trkpt>
      <trkpt lat="45.67486" lon="6.57883">
        <ele>1281.4</ele>
        <time>2022-03-27T06:45:49.000Z</time>
      </trkpt>
      <trkpt lat="45.67484" lon="6.57881">
        <ele>1281.4</ele>
        <time>2022-03-27T06:45:55.000Z</time>
      </trkpt>
      <trkpt lat="45.67484" lon="6.57881">
        <ele>1281.1</ele>
        <time>2022-03-27T06:46:03.000Z</time>
      </trkpt>
      <trkpt lat="45.67484" lon="6.5788">
        <ele>1281.2</ele>
        <time>2022-03-27T06:46:06.000Z</time>
      </trkpt>
      <trkpt lat="45.67483" lon="6.57881">
        <ele>1281.6</ele>
        <time>2022-03-27T06:46:07.000Z</time>
      </trkpt>
      <trkpt lat="45.67481" lon="6.57883">
        <ele>1281.4</ele>
        <time>2022-03-27T06:46:12.000Z</time>
      </trkpt>
      <trkpt lat="45.67482" lon="6.57883">
        <ele>1281.3</ele>
        <time>2022-03-27T06:46:13.000Z</time>
      </trkpt>
      <trkpt lat="45.67482" lon="6.57883">
        <ele>1281.5</ele>
        <time>2022-03-27T06:46:15.000Z</time>
      </trkpt>
      <trkpt lat="45.67482" lon="6.57883">
        <ele>1281.5</ele>
        <time>2022-03-27T06:46:17.000Z</time>
      </trkpt>
      <trkpt lat="45.67482" lon="6.57883">
        <ele>1281.4</ele>
        <time>2022-03-27T06:46:18.000Z</time>
      </trkpt>
      <trkpt lat="45.67482" lon="6.57883">
        <ele>1281.5</ele>
        <time>2022-03-27T06:46:37.000Z</time>
      </trkpt>
      <trkpt lat="45.67482" lon="6.57883">
        <ele>1281.4</ele>
        <time>2022-03-27T06:46:39.000Z</time>
      </trkpt>
      <trkpt lat="45.67482" lon="6.57883">
        <ele>1281.5</ele>
        <time>2022-03-27T06:46:40.000Z</time>
      </trkpt>
      <trkpt lat="45.67482" lon="6.57883">
        <ele>1281.5</ele>
        <time>2022-03-27T06:46:43.000Z</time>
      </trkpt>
      <trkpt lat="45.67482" lon="6.57884">
        <ele>1281.5</ele>
        <time>2022-03-27T06:46:48.000Z</time>
      </trkpt>
      <trkpt lat="45.67473" lon="6.5789">
        <ele>1282.1</ele>
        <time>2022-03-27T06:46:56.000Z</time>
      </trkpt>
      <trkpt lat="45.67464" lon="6.57896">
        <ele>1282.9</ele>
        <time>2022-03-27T06:47:04.000Z</time>
      </trkpt>
      <trkpt lat="45.67455" lon="6.579">
        <ele>1283.8</ele>
        <time>2022-03-27T06:47:11.000Z</time>
      </trkpt>
      <trkpt lat="45.67446" lon="6.57907">
        <ele>1284.4</ele>
        <time>2022-03-27T06:47:19.000Z</time>
      </trkpt>
      <trkpt lat="45.67438" lon="6.57913">
        <ele>1285.7</ele>
        <time>2022-03-27T06:47:27.000Z</time>
      </trkpt>
      <trkpt lat="45.67429" lon="6.57918">
        <ele>1286.6</ele>
        <time>2022-03-27T06:47:34.000Z</time>
      </trkpt>
      <trkpt lat="45.6742" lon="6.57922">
        <ele>1287.6</ele>
        <time>2022-03-27T06:47:42.000Z</time>
      </trkpt>
      <trkpt lat="45.67411" lon="6.57922">
        <ele>1288.8</ele>
        <time>2022-03-27T06:47:50.000Z</time>
      </trkpt>
      <trkpt lat="45.67403" lon="6.57927">
        <ele>1289.9</ele>
        <time>2022-03-27T06:47:59.000Z</time>
      </trkpt>
      <trkpt lat="45.67394" lon="6.57926">
        <ele>1290.9</ele>
        <time>2022-03-27T06:48:06.000Z</time>
      </trkpt>
      <trkpt lat="45.67385" lon="6.57931">
        <ele>1292.2</ele>
        <time>2022-03-27T06:48:15.000Z</time>
      </trkpt>
      <trkpt lat="45.67376" lon="6.57936">
        <ele>1293.5</ele>
        <time>2022-03-27T06:48:25.000Z</time>
      </trkpt>
      <trkpt lat="45.67367" lon="6.57942">
        <ele>1295.2</ele>
        <time>2022-03-27T06:48:34.000Z</time>
      </trkpt>
      <trkpt lat="45.67359" lon="6.57945">
        <ele>1296</ele>
        <time>2022-03-27T06:48:42.000Z</time>
      </trkpt>
      <trkpt lat="45.6735" lon="6.57949">
        <ele>1297.7</ele>
        <time>2022-03-27T06:48:51.000Z</time>
      </trkpt>
      <trkpt lat="45.67341" lon="6.57951">
        <ele>1298.7</ele>
        <time>2022-03-27T06:49:00.000Z</time>
      </trkpt>
      <trkpt lat="45.67331" lon="6.57954">
        <ele>1300.4</ele>
        <time>2022-03-27T06:49:09.000Z</time>
      </trkpt>
      <trkpt lat="45.67322" lon="6.57957">
        <ele>1301.8</ele>
        <time>2022-03-27T06:49:18.000Z</time>
      </trkpt>
      <trkpt lat="45.67313" lon="6.57959">
        <ele>1303.2</ele>
        <time>2022-03-27T06:49:27.000Z</time>
      </trkpt>
      <trkpt lat="45.67304" lon="6.57963">
        <ele>1305</ele>
        <time>2022-03-27T06:49:37.000Z</time>
      </trkpt>
      <trkpt lat="45.67294" lon="6.57966">
        <ele>1306.3</ele>
        <time>2022-03-27T06:49:46.000Z</time>
      </trkpt>
      <trkpt lat="45.67285" lon="6.5797">
        <ele>1307.4</ele>
        <time>2022-03-27T06:49:55.000Z</time>
      </trkpt>
      <trkpt lat="45.67276" lon="6.57972">
        <ele>1309.8</ele>
        <time>2022-03-27T06:50:05.000Z</time>
      </trkpt>
      <trkpt lat="45.6727" lon="6.5797">
        <ele>1310.5</ele>
        <time>2022-03-27T06:50:16.000Z</time>
      </trkpt>
      <trkpt lat="45.6727" lon="6.5797">
        <ele>1310.4</ele>
        <time>2022-03-27T06:50:17.000Z</time>
      </trkpt>
      <trkpt lat="45.6727" lon="6.5797">
        <ele>1310.2</ele>
        <time>2022-03-27T06:50:18.000Z</time>
      </trkpt>
      <trkpt lat="45.6727" lon="6.5797">
        <ele>1310.5</ele>
        <time>2022-03-27T06:50:23.000Z</time>
      </trkpt>
      <trkpt lat="45.67271" lon="6.5797">
        <ele>1310.5</ele>
        <time>2022-03-27T06:50:25.000Z</time>
      </trkpt>
      <trkpt lat="45.67271" lon="6.5797">
        <ele>1310.3</ele>
        <time>2022-03-27T06:50:26.000Z</time>
      </trkpt>
      <trkpt lat="45.67271" lon="6.5797">
        <ele>1310.3</ele>
        <time>2022-03-27T06:50:27.000Z</time>
      </trkpt>
      <trkpt lat="45.67271" lon="6.5797">
        <ele>1310.3</ele>
        <time>2022-03-27T06:50:28.000Z</time>
      </trkpt>
      <trkpt lat="45.67271" lon="6.5797">
        <ele>1310.2</ele>
        <time>2022-03-27T06:50:30.000Z</time>
      </trkpt>
      <trkpt lat="45.67272" lon="6.5797">
        <ele>1310</ele>
        <time>2022-03-27T06:50:34.000Z</time>
      </trkpt>
      <trkpt lat="45.67272" lon="6.5797">
        <ele>1310</ele>
        <time>2022-03-27T06:50:35.000Z</time>
      </trkpt>
      <trkpt lat="45.67272" lon="6.5797">
        <ele>1310.3</ele>
        <time>2022-03-27T06:50:38.000Z</time>
      </trkpt>
      <trkpt lat="45.67272" lon="6.57971">
        <ele>1310.4</ele>
        <time>2022-03-27T06:50:40.000Z</time>
      </trkpt>
      <trkpt lat="45.67272" lon="6.57971">
        <ele>1310.9</ele>
        <time>2022-03-27T06:50:48.000Z</time>
      </trkpt>
      <trkpt lat="45.67272" lon="6.57971">
        <ele>1310.6</ele>
        <time>2022-03-27T06:50:50.000Z</time>
      </trkpt>
      <trkpt lat="45.67272" lon="6.57971">
        <ele>1310.6</ele>
        <time>2022-03-27T06:50:51.000Z</time>
      </trkpt>
      <trkpt lat="45.67273" lon="6.57971">
        <ele>1310.7</ele>
        <time>2022-03-27T06:50:55.000Z</time>
      </trkpt>
      <trkpt lat="45.67273" lon="6.5797">
        <ele>1310.8</ele>
        <time>2022-03-27T06:51:13.000Z</time>
      </trkpt>
      <trkpt lat="45.67273" lon="6.5797">
        <ele>1310.8</ele>
        <time>2022-03-27T06:51:15.000Z</time>
      </trkpt>
      <trkpt lat="45.67273" lon="6.57969">
        <ele>1310.5</ele>
        <time>2022-03-27T06:51:29.000Z</time>
      </trkpt>
      <trkpt lat="45.67273" lon="6.57969">
        <ele>1310.4</ele>
        <time>2022-03-27T06:51:30.000Z</time>
      </trkpt>
      <trkpt lat="45.67273" lon="6.57969">
        <ele>1310.4</ele>
        <time>2022-03-27T06:51:31.000Z</time>
      </trkpt>
      <trkpt lat="45.67273" lon="6.57969">
        <ele>1310.5</ele>
        <time>2022-03-27T06:51:32.000Z</time>
      </trkpt>
      <trkpt lat="45.67273" lon="6.57969">
        <ele>1310.5</ele>
        <time>2022-03-27T06:51:37.000Z</time>
      </trkpt>
      <trkpt lat="45.67273" lon="6.57969">
        <ele>1311</ele>
        <time>2022-03-27T06:51:40.000Z</time>
      </trkpt>
      <trkpt lat="45.67273" lon="6.57969">
        <ele>1311.2</ele>
        <time>2022-03-27T06:51:44.000Z</time>
      </trkpt>
      <trkpt lat="45.67273" lon="6.57969">
        <ele>1311</ele>
        <time>2022-03-27T06:51:45.000Z</time>
      </trkpt>
      <trkpt lat="45.67273" lon="6.57968">
        <ele>1310.7</ele>
        <time>2022-03-27T06:51:48.000Z</time>
      </trkpt>
      <trkpt lat="45.67272" lon="6.57965">
        <ele>1310.2</ele>
        <time>2022-03-27T06:51:54.000Z</time>
      </trkpt>
      <trkpt lat="45.67272" lon="6.57964">
        <ele>1311.1</ele>
        <time>2022-03-27T06:51:57.000Z</time>
      </trkpt>
      <trkpt lat="45.67272" lon="6.57964">
        <ele>1311.6</ele>
        <time>2022-03-27T06:52:00.000Z</time>
      </trkpt>
      <trkpt lat="45.67271" lon="6.57964">
        <ele>1311.8</ele>
        <time>2022-03-27T06:52:01.000Z</time>
      </trkpt>
      <trkpt lat="45.67261" lon="6.57962">
        <ele>1313.2</ele>
        <time>2022-03-27T06:52:10.000Z</time>
      </trkpt>
      <trkpt lat="45.67252" lon="6.57961">
        <ele>1314.1</ele>
        <time>2022-03-27T06:52:18.000Z</time>
      </trkpt>
      <trkpt lat="45.67243" lon="6.57957">
        <ele>1315.5</ele>
        <time>2022-03-27T06:52:27.000Z</time>
      </trkpt>
      <trkpt lat="45.67235" lon="6.57951">
        <ele>1316.8</ele>
        <time>2022-03-27T06:52:37.000Z</time>
      </trkpt>
      <trkpt lat="45.67227" lon="6.57943">
        <ele>1318.1</ele>
        <time>2022-03-27T06:52:47.000Z</time>
      </trkpt>
      <trkpt lat="45.67221" lon="6.57933">
        <ele>1319.2</ele>
        <time>2022-03-27T06:52:55.000Z</time>
      </trkpt>
      <trkpt lat="45.67214" lon="6.57924">
        <ele>1320.5</ele>
        <time>2022-03-27T06:53:04.000Z</time>
      </trkpt>
      <trkpt lat="45.67207" lon="6.57914">
        <ele>1322.3</ele>
        <time>2022-03-27T06:53:16.000Z</time>
      </trkpt>
      <trkpt lat="45.67201" lon="6.57904">
        <ele>1323.7</ele>
        <time>2022-03-27T06:53:27.000Z</time>
      </trkpt>
      <trkpt lat="45.67194" lon="6.57894">
        <ele>1325.3</ele>
        <time>2022-03-27T06:53:38.000Z</time>
      </trkpt>
      <trkpt lat="45.67186" lon="6.57886">
        <ele>1326.7</ele>
        <time>2022-03-27T06:53:48.000Z</time>
      </trkpt>
      <trkpt lat="45.6718" lon="6.57875">
        <ele>1328.3</ele>
        <time>2022-03-27T06:54:01.000Z</time>
      </trkpt>
      <trkpt lat="45.67173" lon="6.57866">
        <ele>1329.8</ele>
        <time>2022-03-27T06:54:13.000Z</time>
      </trkpt>
      <trkpt lat="45.67173" lon="6.57866">
        <ele>1329.9</ele>
        <time>2022-03-27T06:54:15.000Z</time>
      </trkpt>
      <trkpt lat="45.67173" lon="6.57866">
        <ele>1330.2</ele>
        <time>2022-03-27T06:54:16.000Z</time>
      </trkpt>
      <trkpt lat="45.67165" lon="6.57858">
        <ele>1331.7</ele>
        <time>2022-03-27T06:54:26.000Z</time>
      </trkpt>
      <trkpt lat="45.67158" lon="6.57848">
        <ele>1332.8</ele>
        <time>2022-03-27T06:54:37.000Z</time>
      </trkpt>
      <trkpt lat="45.67151" lon="6.57838">
        <ele>1334.2</ele>
        <time>2022-03-27T06:54:48.000Z</time>
      </trkpt>
      <trkpt lat="45.67144" lon="6.57829">
        <ele>1335.5</ele>
        <time>2022-03-27T06:54:58.000Z</time>
      </trkpt>
      <trkpt lat="45.67137" lon="6.5782">
        <ele>1336.7</ele>
        <time>2022-03-27T06:55:09.000Z</time>
      </trkpt>
      <trkpt lat="45.6713" lon="6.57816">
        <ele>1337.6</ele>
        <time>2022-03-27T06:55:21.000Z</time>
      </trkpt>
      <trkpt lat="45.6713" lon="6.57816">
        <ele>1337.7</ele>
        <time>2022-03-27T06:55:23.000Z</time>
      </trkpt>
      <trkpt lat="45.67123" lon="6.57809">
        <ele>1339</ele>
        <time>2022-03-27T06:55:32.000Z</time>
      </trkpt>
      <trkpt lat="45.67114" lon="6.57804">
        <ele>1340.1</ele>
        <time>2022-03-27T06:55:42.000Z</time>
      </trkpt>
      <trkpt lat="45.67105" lon="6.57802">
        <ele>1341.3</ele>
        <time>2022-03-27T06:55:52.000Z</time>
      </trkpt>
      <trkpt lat="45.67096" lon="6.578">
        <ele>1342.4</ele>
        <time>2022-03-27T06:56:03.000Z</time>
      </trkpt>
      <trkpt lat="45.67087" lon="6.57801">
        <ele>1343.7</ele>
        <time>2022-03-27T06:56:14.000Z</time>
      </trkpt>
      <trkpt lat="45.67077" lon="6.57802">
        <ele>1345</ele>
        <time>2022-03-27T06:56:26.000Z</time>
      </trkpt>
      <trkpt lat="45.67068" lon="6.57804">
        <ele>1346.4</ele>
        <time>2022-03-27T06:56:36.000Z</time>
      </trkpt>
      <trkpt lat="45.67059" lon="6.57804">
        <ele>1347.1</ele>
        <time>2022-03-27T06:56:46.000Z</time>
      </trkpt>
      <trkpt lat="45.67049" lon="6.57802">
        <ele>1348.8</ele>
        <time>2022-03-27T06:56:57.000Z</time>
      </trkpt>
      <trkpt lat="45.67039" lon="6.578">
        <ele>1350</ele>
        <time>2022-03-27T06:57:09.000Z</time>
      </trkpt>
      <trkpt lat="45.6703" lon="6.57798">
        <ele>1350.9</ele>
        <time>2022-03-27T06:57:19.000Z</time>
      </trkpt>
      <trkpt lat="45.67021" lon="6.57797">
        <ele>1352.2</ele>
        <time>2022-03-27T06:57:29.000Z</time>
      </trkpt>
      <trkpt lat="45.67011" lon="6.57797">
        <ele>1353.1</ele>
        <time>2022-03-27T06:57:40.000Z</time>
      </trkpt>
      <trkpt lat="45.67002" lon="6.57798">
        <ele>1354.2</ele>
        <time>2022-03-27T06:57:50.000Z</time>
      </trkpt>
      <trkpt lat="45.66993" lon="6.57797">
        <ele>1355.6</ele>
        <time>2022-03-27T06:58:00.000Z</time>
      </trkpt>
      <trkpt lat="45.66983" lon="6.57796">
        <ele>1356.5</ele>
        <time>2022-03-27T06:58:10.000Z</time>
      </trkpt>
      <trkpt lat="45.66973" lon="6.57796">
        <ele>1357.9</ele>
        <time>2022-03-27T06:58:23.000Z</time>
      </trkpt>
      <trkpt lat="45.66964" lon="6.57797">
        <ele>1359.2</ele>
        <time>2022-03-27T06:58:33.000Z</time>
      </trkpt>
      <trkpt lat="45.66955" lon="6.57799">
        <ele>1360.1</ele>
        <time>2022-03-27T06:58:42.000Z</time>
      </trkpt>
      <trkpt lat="45.66946" lon="6.57803">
        <ele>1361.3</ele>
        <time>2022-03-27T06:58:52.000Z</time>
      </trkpt>
      <trkpt lat="45.66937" lon="6.57805">
        <ele>1361.8</ele>
        <time>2022-03-27T06:59:00.000Z</time>
      </trkpt>
      <trkpt lat="45.66928" lon="6.57807">
        <ele>1363</ele>
        <time>2022-03-27T06:59:10.000Z</time>
      </trkpt>
      <trkpt lat="45.66918" lon="6.57809">
        <ele>1364</ele>
        <time>2022-03-27T06:59:20.000Z</time>
      </trkpt>
      <trkpt lat="45.66908" lon="6.5781">
        <ele>1365.3</ele>
        <time>2022-03-27T06:59:31.000Z</time>
      </trkpt>
      <trkpt lat="45.66899" lon="6.5781">
        <ele>1365.9</ele>
        <time>2022-03-27T06:59:40.000Z</time>
      </trkpt>
      <trkpt lat="45.6689" lon="6.57812">
        <ele>1367.4</ele>
        <time>2022-03-27T06:59:50.000Z</time>
      </trkpt>
      <trkpt lat="45.66881" lon="6.57812">
        <ele>1367.8</ele>
        <time>2022-03-27T06:59:59.000Z</time>
      </trkpt>
      <trkpt lat="45.66871" lon="6.57812">
        <ele>1368.7</ele>
        <time>2022-03-27T07:00:10.000Z</time>
      </trkpt>
      <trkpt lat="45.66862" lon="6.57811">
        <ele>1369.2</ele>
        <time>2022-03-27T07:00:20.000Z</time>
      </trkpt>
      <trkpt lat="45.66852" lon="6.5781">
        <ele>1369.7</ele>
        <time>2022-03-27T07:00:29.000Z</time>
      </trkpt>
      <trkpt lat="45.66843" lon="6.57809">
        <ele>1370.3</ele>
        <time>2022-03-27T07:00:36.000Z</time>
      </trkpt>
      <trkpt lat="45.66833" lon="6.57807">
        <ele>1371.3</ele>
        <time>2022-03-27T07:00:45.000Z</time>
      </trkpt>
      <trkpt lat="45.66824" lon="6.57804">
        <ele>1372</ele>
        <time>2022-03-27T07:00:54.000Z</time>
      </trkpt>
      <trkpt lat="45.66823" lon="6.57803">
        <ele>1372.2</ele>
        <time>2022-03-27T07:00:57.000Z</time>
      </trkpt>
      <trkpt lat="45.66823" lon="6.57803">
        <ele>1372.1</ele>
        <time>2022-03-27T07:00:58.000Z</time>
      </trkpt>
      <trkpt lat="45.66814" lon="6.578">
        <ele>1372.6</ele>
        <time>2022-03-27T07:01:08.000Z</time>
      </trkpt>
      <trkpt lat="45.66804" lon="6.57802">
        <ele>1373.1</ele>
        <time>2022-03-27T07:01:16.000Z</time>
      </trkpt>
      <trkpt lat="45.66795" lon="6.57805">
        <ele>1373.5</ele>
        <time>2022-03-27T07:01:24.000Z</time>
      </trkpt>
      <trkpt lat="45.66787" lon="6.57812">
        <ele>1374.2</ele>
        <time>2022-03-27T07:01:32.000Z</time>
      </trkpt>
      <trkpt lat="45.6678" lon="6.57823">
        <ele>1375.1</ele>
        <time>2022-03-27T07:01:41.000Z</time>
      </trkpt>
      <trkpt lat="45.66772" lon="6.57829">
        <ele>1376.2</ele>
        <time>2022-03-27T07:01:50.000Z</time>
      </trkpt>
      <trkpt lat="45.66762" lon="6.57832">
        <ele>1376.7</ele>
        <time>2022-03-27T07:01:59.000Z</time>
      </trkpt>
      <trkpt lat="45.66753" lon="6.57835">
        <ele>1377.4</ele>
        <time>2022-03-27T07:02:09.000Z</time>
      </trkpt>
      <trkpt lat="45.66743" lon="6.57837">
        <ele>1378.2</ele>
        <time>2022-03-27T07:02:18.000Z</time>
      </trkpt>
      <trkpt lat="45.66734" lon="6.57839">
        <ele>1378.7</ele>
        <time>2022-03-27T07:02:28.000Z</time>
      </trkpt>
      <trkpt lat="45.66725" lon="6.57842">
        <ele>1379.1</ele>
        <time>2022-03-27T07:02:37.000Z</time>
      </trkpt>
      <trkpt lat="45.66715" lon="6.57844">
        <ele>1379.7</ele>
        <time>2022-03-27T07:02:46.000Z</time>
      </trkpt>
      <trkpt lat="45.66706" lon="6.57846">
        <ele>1380.4</ele>
        <time>2022-03-27T07:02:54.000Z</time>
      </trkpt>
      <trkpt lat="45.66697" lon="6.57847">
        <ele>1380.7</ele>
        <time>2022-03-27T07:03:02.000Z</time>
      </trkpt>
      <trkpt lat="45.66688" lon="6.57848">
        <ele>1381.7</ele>
        <time>2022-03-27T07:03:10.000Z</time>
      </trkpt>
      <trkpt lat="45.66679" lon="6.5785">
        <ele>1382.3</ele>
        <time>2022-03-27T07:03:18.000Z</time>
      </trkpt>
      <trkpt lat="45.66671" lon="6.57855">
        <ele>1382.5</ele>
        <time>2022-03-27T07:03:26.000Z</time>
      </trkpt>
      <trkpt lat="45.66663" lon="6.57861">
        <ele>1383.6</ele>
        <time>2022-03-27T07:03:34.000Z</time>
      </trkpt>
      <trkpt lat="45.66654" lon="6.57866">
        <ele>1384.1</ele>
        <time>2022-03-27T07:03:42.000Z</time>
      </trkpt>
      <trkpt lat="45.66645" lon="6.5787">
        <ele>1385.2</ele>
        <time>2022-03-27T07:03:52.000Z</time>
      </trkpt>
      <trkpt lat="45.66636" lon="6.57871">
        <ele>1386.2</ele>
        <time>2022-03-27T07:04:02.000Z</time>
      </trkpt>
      <trkpt lat="45.66626" lon="6.57871">
        <ele>1386.9</ele>
        <time>2022-03-27T07:04:10.000Z</time>
      </trkpt>
      <trkpt lat="45.66617" lon="6.57874">
        <ele>1387.3</ele>
        <time>2022-03-27T07:04:19.000Z</time>
      </trkpt>
      <trkpt lat="45.66608" lon="6.57875">
        <ele>1388</ele>
        <time>2022-03-27T07:04:27.000Z</time>
      </trkpt>
      <trkpt lat="45.66599" lon="6.57882">
        <ele>1389</ele>
        <time>2022-03-27T07:04:36.000Z</time>
      </trkpt>
      <trkpt lat="45.66591" lon="6.57887">
        <ele>1389.6</ele>
        <time>2022-03-27T07:04:44.000Z</time>
      </trkpt>
      <trkpt lat="45.66582" lon="6.57893">
        <ele>1390.1</ele>
        <time>2022-03-27T07:04:53.000Z</time>
      </trkpt>
      <trkpt lat="45.66573" lon="6.57898">
        <ele>1391.1</ele>
        <time>2022-03-27T07:05:02.000Z</time>
      </trkpt>
      <trkpt lat="45.66563" lon="6.57902">
        <ele>1392</ele>
        <time>2022-03-27T07:05:12.000Z</time>
      </trkpt>
      <trkpt lat="45.66554" lon="6.57903">
        <ele>1392.7</ele>
        <time>2022-03-27T07:05:21.000Z</time>
      </trkpt>
      <trkpt lat="45.66545" lon="6.57904">
        <ele>1393.7</ele>
        <time>2022-03-27T07:05:30.000Z</time>
      </trkpt>
      <trkpt lat="45.66536" lon="6.57906">
        <ele>1394.5</ele>
        <time>2022-03-27T07:05:38.000Z</time>
      </trkpt>
      <trkpt lat="45.66526" lon="6.57905">
        <ele>1395.4</ele>
        <time>2022-03-27T07:05:46.000Z</time>
      </trkpt>
      <trkpt lat="45.66517" lon="6.57905">
        <ele>1396.2</ele>
        <time>2022-03-27T07:05:55.000Z</time>
      </trkpt>
      <trkpt lat="45.66508" lon="6.57909">
        <ele>1397.3</ele>
        <time>2022-03-27T07:06:05.000Z</time>
      </trkpt>
      <trkpt lat="45.66498" lon="6.57912">
        <ele>1398.4</ele>
        <time>2022-03-27T07:06:14.000Z</time>
      </trkpt>
      <trkpt lat="45.66489" lon="6.57915">
        <ele>1399.3</ele>
        <time>2022-03-27T07:06:22.000Z</time>
      </trkpt>
      <trkpt lat="45.6648" lon="6.57917">
        <ele>1400.3</ele>
        <time>2022-03-27T07:06:30.000Z</time>
      </trkpt>
      <trkpt lat="45.6647" lon="6.57917">
        <ele>1401.3</ele>
        <time>2022-03-27T07:06:38.000Z</time>
      </trkpt>
      <trkpt lat="45.66461" lon="6.57919">
        <ele>1402.2</ele>
        <time>2022-03-27T07:06:47.000Z</time>
      </trkpt>
      <trkpt lat="45.66451" lon="6.57919">
        <ele>1402.6</ele>
        <time>2022-03-27T07:06:56.000Z</time>
      </trkpt>
      <trkpt lat="45.66441" lon="6.57921">
        <ele>1403.8</ele>
        <time>2022-03-27T07:07:06.000Z</time>
      </trkpt>
      <trkpt lat="45.66431" lon="6.5792">
        <ele>1404.9</ele>
        <time>2022-03-27T07:07:15.000Z</time>
      </trkpt>
      <trkpt lat="45.66422" lon="6.5792">
        <ele>1405.7</ele>
        <time>2022-03-27T07:07:24.000Z</time>
      </trkpt>
      <trkpt lat="45.66413" lon="6.57918">
        <ele>1406.5</ele>
        <time>2022-03-27T07:07:33.000Z</time>
      </trkpt>
      <trkpt lat="45.66403" lon="6.57917">
        <ele>1407.4</ele>
        <time>2022-03-27T07:07:43.000Z</time>
      </trkpt>
      <trkpt lat="45.66394" lon="6.57918">
        <ele>1408.4</ele>
        <time>2022-03-27T07:07:53.000Z</time>
      </trkpt>
      <trkpt lat="45.66384" lon="6.57921">
        <ele>1409.3</ele>
        <time>2022-03-27T07:08:03.000Z</time>
      </trkpt>
      <trkpt lat="45.66375" lon="6.57919">
        <ele>1410</ele>
        <time>2022-03-27T07:08:11.000Z</time>
      </trkpt>
      <trkpt lat="45.66366" lon="6.57913">
        <ele>1410.9</ele>
        <time>2022-03-27T07:08:19.000Z</time>
      </trkpt>
      <trkpt lat="45.66358" lon="6.57909">
        <ele>1412.3</ele>
        <time>2022-03-27T07:08:27.000Z</time>
      </trkpt>
      <trkpt lat="45.66349" lon="6.57904">
        <ele>1412.7</ele>
        <time>2022-03-27T07:08:37.000Z</time>
      </trkpt>
      <trkpt lat="45.6634" lon="6.57899">
        <ele>1414.1</ele>
        <time>2022-03-27T07:08:46.000Z</time>
      </trkpt>
      <trkpt lat="45.6633" lon="6.57894">
        <ele>1415</ele>
        <time>2022-03-27T07:08:55.000Z</time>
      </trkpt>
      <trkpt lat="45.66321" lon="6.57893">
        <ele>1415.4</ele>
        <time>2022-03-27T07:09:03.000Z</time>
      </trkpt>
      <trkpt lat="45.66312" lon="6.57889">
        <ele>1416.4</ele>
        <time>2022-03-27T07:09:13.000Z</time>
      </trkpt>
      <trkpt lat="45.66303" lon="6.57884">
        <ele>1417.6</ele>
        <time>2022-03-27T07:09:22.000Z</time>
      </trkpt>
      <trkpt lat="45.66294" lon="6.57877">
        <ele>1418.6</ele>
        <time>2022-03-27T07:09:33.000Z</time>
      </trkpt>
      <trkpt lat="45.66286" lon="6.57869">
        <ele>1419.3</ele>
        <time>2022-03-27T07:09:41.000Z</time>
      </trkpt>
      <trkpt lat="45.66277" lon="6.57864">
        <ele>1420.4</ele>
        <time>2022-03-27T07:09:50.000Z</time>
      </trkpt>
      <trkpt lat="45.66268" lon="6.57858">
        <ele>1421.6</ele>
        <time>2022-03-27T07:09:59.000Z</time>
      </trkpt>
      <trkpt lat="45.66259" lon="6.57854">
        <ele>1422.5</ele>
        <time>2022-03-27T07:10:09.000Z</time>
      </trkpt>
      <trkpt lat="45.66251" lon="6.57849">
        <ele>1423.7</ele>
        <time>2022-03-27T07:10:18.000Z</time>
      </trkpt>
      <trkpt lat="45.66241" lon="6.57848">
        <ele>1424.5</ele>
        <time>2022-03-27T07:10:28.000Z</time>
      </trkpt>
      <trkpt lat="45.66231" lon="6.57848">
        <ele>1425.3</ele>
        <time>2022-03-27T07:10:36.000Z</time>
      </trkpt>
      <trkpt lat="45.66222" lon="6.57848">
        <ele>1426.2</ele>
        <time>2022-03-27T07:10:44.000Z</time>
      </trkpt>
      <trkpt lat="45.66213" lon="6.57852">
        <ele>1426.8</ele>
        <time>2022-03-27T07:10:53.000Z</time>
      </trkpt>
      <trkpt lat="45.66205" lon="6.57856">
        <ele>1427.5</ele>
        <time>2022-03-27T07:11:01.000Z</time>
      </trkpt>
      <trkpt lat="45.66196" lon="6.57862">
        <ele>1428.4</ele>
        <time>2022-03-27T07:11:09.000Z</time>
      </trkpt>
      <trkpt lat="45.66187" lon="6.57867">
        <ele>1429.2</ele>
        <time>2022-03-27T07:11:18.000Z</time>
      </trkpt>
      <trkpt lat="45.66178" lon="6.57871">
        <ele>1429.9</ele>
        <time>2022-03-27T07:11:27.000Z</time>
      </trkpt>
      <trkpt lat="45.66169" lon="6.57872">
        <ele>1431</ele>
        <time>2022-03-27T07:11:36.000Z</time>
      </trkpt>
      <trkpt lat="45.6616" lon="6.57871">
        <ele>1432</ele>
        <time>2022-03-27T07:11:45.000Z</time>
      </trkpt>
      <trkpt lat="45.6615" lon="6.57868">
        <ele>1432.7</ele>
        <time>2022-03-27T07:11:54.000Z</time>
      </trkpt>
      <trkpt lat="45.66141" lon="6.57864">
        <ele>1433.1</ele>
        <time>2022-03-27T07:12:02.000Z</time>
      </trkpt>
      <trkpt lat="45.66133" lon="6.57858">
        <ele>1434</ele>
        <time>2022-03-27T07:12:12.000Z</time>
      </trkpt>
      <trkpt lat="45.66125" lon="6.57852">
        <ele>1434.6</ele>
        <time>2022-03-27T07:12:20.000Z</time>
      </trkpt>
      <trkpt lat="45.66116" lon="6.57845">
        <ele>1435.2</ele>
        <time>2022-03-27T07:12:28.000Z</time>
      </trkpt>
      <trkpt lat="45.66109" lon="6.57836">
        <ele>1436.1</ele>
        <time>2022-03-27T07:12:37.000Z</time>
      </trkpt>
      <trkpt lat="45.66101" lon="6.57829">
        <ele>1437.2</ele>
        <time>2022-03-27T07:12:46.000Z</time>
      </trkpt>
      <trkpt lat="45.66093" lon="6.5782">
        <ele>1437.7</ele>
        <time>2022-03-27T07:12:55.000Z</time>
      </trkpt>
      <trkpt lat="45.66087" lon="6.5781">
        <ele>1437.7</ele>
        <time>2022-03-27T07:13:03.000Z</time>
      </trkpt>
      <trkpt lat="45.66079" lon="6.57804">
        <ele>1438.6</ele>
        <time>2022-03-27T07:13:11.000Z</time>
      </trkpt>
      <trkpt lat="45.66071" lon="6.57796">
        <ele>1438.9</ele>
        <time>2022-03-27T07:13:19.000Z</time>
      </trkpt>
      <trkpt lat="45.66063" lon="6.5779">
        <ele>1439.8</ele>
        <time>2022-03-27T07:13:28.000Z</time>
      </trkpt>
      <trkpt lat="45.66054" lon="6.57791">
        <ele>1440.7</ele>
        <time>2022-03-27T07:13:37.000Z</time>
      </trkpt>
      <trkpt lat="45.66044" lon="6.57794">
        <ele>1442</ele>
        <time>2022-03-27T07:13:48.000Z</time>
      </trkpt>
      <trkpt lat="45.66036" lon="6.57797">
        <ele>1442.6</ele>
        <time>2022-03-27T07:13:56.000Z</time>
      </trkpt>
      <trkpt lat="45.66027" lon="6.57802">
        <ele>1443.6</ele>
        <time>2022-03-27T07:14:05.000Z</time>
      </trkpt>
      <trkpt lat="45.66018" lon="6.57805">
        <ele>1444.2</ele>
        <time>2022-03-27T07:14:13.000Z</time>
      </trkpt>
      <trkpt lat="45.66008" lon="6.5781">
        <ele>1445.2</ele>
        <time>2022-03-27T07:14:22.000Z</time>
      </trkpt>
      <trkpt lat="45.66" lon="6.57817">
        <ele>1446.6</ele>
        <time>2022-03-27T07:14:32.000Z</time>
      </trkpt>
      <trkpt lat="45.65992" lon="6.57826">
        <ele>1447.2</ele>
        <time>2022-03-27T07:14:41.000Z</time>
      </trkpt>
      <trkpt lat="45.65987" lon="6.57838">
        <ele>1448.5</ele>
        <time>2022-03-27T07:14:51.000Z</time>
      </trkpt>
      <trkpt lat="45.65983" lon="6.57851">
        <ele>1449.1</ele>
        <time>2022-03-27T07:15:00.000Z</time>
      </trkpt>
      <trkpt lat="45.6598" lon="6.57863">
        <ele>1449.5</ele>
        <time>2022-03-27T07:15:08.000Z</time>
      </trkpt>
      <trkpt lat="45.65973" lon="6.57873">
        <ele>1450.4</ele>
        <time>2022-03-27T07:15:17.000Z</time>
      </trkpt>
      <trkpt lat="45.65965" lon="6.57882">
        <ele>1450.9</ele>
        <time>2022-03-27T07:15:26.000Z</time>
      </trkpt>
      <trkpt lat="45.65957" lon="6.57887">
        <ele>1451.4</ele>
        <time>2022-03-27T07:15:34.000Z</time>
      </trkpt>
      <trkpt lat="45.65948" lon="6.5789">
        <ele>1452.3</ele>
        <time>2022-03-27T07:15:43.000Z</time>
      </trkpt>
      <trkpt lat="45.65938" lon="6.57893">
        <ele>1452.8</ele>
        <time>2022-03-27T07:15:53.000Z</time>
      </trkpt>
      <trkpt lat="45.65929" lon="6.57895">
        <ele>1453.2</ele>
        <time>2022-03-27T07:16:01.000Z</time>
      </trkpt>
      <trkpt lat="45.6592" lon="6.57896">
        <ele>1453.5</ele>
        <time>2022-03-27T07:16:09.000Z</time>
      </trkpt>
      <trkpt lat="45.6591" lon="6.57896">
        <ele>1454.2</ele>
        <time>2022-03-27T07:16:18.000Z</time>
      </trkpt>
      <trkpt lat="45.65901" lon="6.57895">
        <ele>1454.7</ele>
        <time>2022-03-27T07:16:27.000Z</time>
      </trkpt>
      <trkpt lat="45.65892" lon="6.57896">
        <ele>1455.3</ele>
        <time>2022-03-27T07:16:35.000Z</time>
      </trkpt>
      <trkpt lat="45.65883" lon="6.57896">
        <ele>1456.3</ele>
        <time>2022-03-27T07:16:44.000Z</time>
      </trkpt>
      <trkpt lat="45.65874" lon="6.57895">
        <ele>1456.6</ele>
        <time>2022-03-27T07:16:52.000Z</time>
      </trkpt>
      <trkpt lat="45.65864" lon="6.57896">
        <ele>1457.4</ele>
        <time>2022-03-27T07:17:02.000Z</time>
      </trkpt>
      <trkpt lat="45.65854" lon="6.57899">
        <ele>1457.6</ele>
        <time>2022-03-27T07:17:12.000Z</time>
      </trkpt>
      <trkpt lat="45.65845" lon="6.57897">
        <ele>1458</ele>
        <time>2022-03-27T07:17:20.000Z</time>
      </trkpt>
      <trkpt lat="45.65835" lon="6.57894">
        <ele>1459</ele>
        <time>2022-03-27T07:17:29.000Z</time>
      </trkpt>
      <trkpt lat="45.65825" lon="6.57893">
        <ele>1459.6</ele>
        <time>2022-03-27T07:17:38.000Z</time>
      </trkpt>
      <trkpt lat="45.65816" lon="6.57891">
        <ele>1460.4</ele>
        <time>2022-03-27T07:17:47.000Z</time>
      </trkpt>
      <trkpt lat="45.65807" lon="6.57887">
        <ele>1461.1</ele>
        <time>2022-03-27T07:17:56.000Z</time>
      </trkpt>
      <trkpt lat="45.65797" lon="6.57883">
        <ele>1461.3</ele>
        <time>2022-03-27T07:18:05.000Z</time>
      </trkpt>
      <trkpt lat="45.65788" lon="6.57881">
        <ele>1461.8</ele>
        <time>2022-03-27T07:18:13.000Z</time>
      </trkpt>
      <trkpt lat="45.65779" lon="6.57878">
        <ele>1462.7</ele>
        <time>2022-03-27T07:18:23.000Z</time>
      </trkpt>
      <trkpt lat="45.6577" lon="6.57872">
        <ele>1463.7</ele>
        <time>2022-03-27T07:18:33.000Z</time>
      </trkpt>
      <trkpt lat="45.65762" lon="6.57866">
        <ele>1463.9</ele>
        <time>2022-03-27T07:18:41.000Z</time>
      </trkpt>
      <trkpt lat="45.65754" lon="6.5786">
        <ele>1465.1</ele>
        <time>2022-03-27T07:18:49.000Z</time>
      </trkpt>
      <trkpt lat="45.65745" lon="6.57854">
        <ele>1465.2</ele>
        <time>2022-03-27T07:18:57.000Z</time>
      </trkpt>
      <trkpt lat="45.65736" lon="6.57852">
        <ele>1466.1</ele>
        <time>2022-03-27T07:19:05.000Z</time>
      </trkpt>
      <trkpt lat="45.65726" lon="6.57852">
        <ele>1467.2</ele>
        <time>2022-03-27T07:19:14.000Z</time>
      </trkpt>
      <trkpt lat="45.65717" lon="6.57852">
        <ele>1467.2</ele>
        <time>2022-03-27T07:19:23.000Z</time>
      </trkpt>
      <trkpt lat="45.65707" lon="6.5785">
        <ele>1468.1</ele>
        <time>2022-03-27T07:19:32.000Z</time>
      </trkpt>
      <trkpt lat="45.65697" lon="6.57848">
        <ele>1468.5</ele>
        <time>2022-03-27T07:19:40.000Z</time>
      </trkpt>
      <trkpt lat="45.65688" lon="6.57846">
        <ele>1468.8</ele>
        <time>2022-03-27T07:19:49.000Z</time>
      </trkpt>
      <trkpt lat="45.65679" lon="6.57841">
        <ele>1469.6</ele>
        <time>2022-03-27T07:19:59.000Z</time>
      </trkpt>
      <trkpt lat="45.65671" lon="6.57836">
        <ele>1469.8</ele>
        <time>2022-03-27T07:20:08.000Z</time>
      </trkpt>
      <trkpt lat="45.65662" lon="6.5783">
        <ele>1470.4</ele>
        <time>2022-03-27T07:20:16.000Z</time>
      </trkpt>
      <trkpt lat="45.65653" lon="6.57825">
        <ele>1470.5</ele>
        <time>2022-03-27T07:20:24.000Z</time>
      </trkpt>
      <trkpt lat="45.65644" lon="6.57823">
        <ele>1471.6</ele>
        <time>2022-03-27T07:20:34.000Z</time>
      </trkpt>
      <trkpt lat="45.65634" lon="6.57824">
        <ele>1471.7</ele>
        <time>2022-03-27T07:20:42.000Z</time>
      </trkpt>
      <trkpt lat="45.65624" lon="6.57823">
        <ele>1472.3</ele>
        <time>2022-03-27T07:20:50.000Z</time>
      </trkpt>
      <trkpt lat="45.65614" lon="6.57824">
        <ele>1472.8</ele>
        <time>2022-03-27T07:20:59.000Z</time>
      </trkpt>
      <trkpt lat="45.65605" lon="6.57827">
        <ele>1474</ele>
        <time>2022-03-27T07:21:08.000Z</time>
      </trkpt>
      <trkpt lat="45.65595" lon="6.57829">
        <ele>1474.5</ele>
        <time>2022-03-27T07:21:17.000Z</time>
      </trkpt>
      <trkpt lat="45.65586" lon="6.57831">
        <ele>1474.8</ele>
        <time>2022-03-27T07:21:26.000Z</time>
      </trkpt>
      <trkpt lat="45.65576" lon="6.57834">
        <ele>1475.7</ele>
        <time>2022-03-27T07:21:36.000Z</time>
      </trkpt>
      <trkpt lat="45.65567" lon="6.57835">
        <ele>1476.1</ele>
        <time>2022-03-27T07:21:45.000Z</time>
      </trkpt>
      <trkpt lat="45.65557" lon="6.57836">
        <ele>1477</ele>
        <time>2022-03-27T07:21:54.000Z</time>
      </trkpt>
      <trkpt lat="45.65548" lon="6.57837">
        <ele>1477.4</ele>
        <time>2022-03-27T07:22:02.000Z</time>
      </trkpt>
      <trkpt lat="45.65538" lon="6.57838">
        <ele>1478</ele>
        <time>2022-03-27T07:22:11.000Z</time>
      </trkpt>
      <trkpt lat="45.65528" lon="6.57838">
        <ele>1478.7</ele>
        <time>2022-03-27T07:22:19.000Z</time>
      </trkpt>
      <trkpt lat="45.65519" lon="6.57838">
        <ele>1479.3</ele>
        <time>2022-03-27T07:22:28.000Z</time>
      </trkpt>
      <trkpt lat="45.6551" lon="6.57838">
        <ele>1479.6</ele>
        <time>2022-03-27T07:22:37.000Z</time>
      </trkpt>
      <trkpt lat="45.655" lon="6.57837">
        <ele>1480.4</ele>
        <time>2022-03-27T07:22:46.000Z</time>
      </trkpt>
      <trkpt lat="45.65491" lon="6.57836">
        <ele>1481</ele>
        <time>2022-03-27T07:22:54.000Z</time>
      </trkpt>
      <trkpt lat="45.65481" lon="6.57834">
        <ele>1481.6</ele>
        <time>2022-03-27T07:23:03.000Z</time>
      </trkpt>
      <trkpt lat="45.65472" lon="6.57833">
        <ele>1482.1</ele>
        <time>2022-03-27T07:23:11.000Z</time>
      </trkpt>
      <trkpt lat="45.65463" lon="6.57831">
        <ele>1482.5</ele>
        <time>2022-03-27T07:23:19.000Z</time>
      </trkpt>
      <trkpt lat="45.65454" lon="6.57828">
        <ele>1482.8</ele>
        <time>2022-03-27T07:23:28.000Z</time>
      </trkpt>
      <trkpt lat="45.65444" lon="6.57828">
        <ele>1483.2</ele>
        <time>2022-03-27T07:23:36.000Z</time>
      </trkpt>
      <trkpt lat="45.65435" lon="6.57834">
        <ele>1483.8</ele>
        <time>2022-03-27T07:23:44.000Z</time>
      </trkpt>
      <trkpt lat="45.65425" lon="6.57833">
        <ele>1483.9</ele>
        <time>2022-03-27T07:23:51.000Z</time>
      </trkpt>
      <trkpt lat="45.65416" lon="6.57832">
        <ele>1484.7</ele>
        <time>2022-03-27T07:23:59.000Z</time>
      </trkpt>
      <trkpt lat="45.65407" lon="6.57833">
        <ele>1485.3</ele>
        <time>2022-03-27T07:24:07.000Z</time>
      </trkpt>
      <trkpt lat="45.65398" lon="6.57834">
        <ele>1485.9</ele>
        <time>2022-03-27T07:24:15.000Z</time>
      </trkpt>
      <trkpt lat="45.65388" lon="6.57835">
        <ele>1486</ele>
        <time>2022-03-27T07:24:23.000Z</time>
      </trkpt>
      <trkpt lat="45.6538" lon="6.57833">
        <ele>1486.3</ele>
        <time>2022-03-27T07:24:31.000Z</time>
      </trkpt>
      <trkpt lat="45.6537" lon="6.57836">
        <ele>1487.1</ele>
        <time>2022-03-27T07:24:41.000Z</time>
      </trkpt>
      <trkpt lat="45.6536" lon="6.57838">
        <ele>1487.9</ele>
        <time>2022-03-27T07:24:51.000Z</time>
      </trkpt>
      <trkpt lat="45.6535" lon="6.57838">
        <ele>1488.4</ele>
        <time>2022-03-27T07:25:00.000Z</time>
      </trkpt>
      <trkpt lat="45.65341" lon="6.5784">
        <ele>1489.2</ele>
        <time>2022-03-27T07:25:08.000Z</time>
      </trkpt>
      <trkpt lat="45.65332" lon="6.57842">
        <ele>1489.4</ele>
        <time>2022-03-27T07:25:16.000Z</time>
      </trkpt>
      <trkpt lat="45.65322" lon="6.57844">
        <ele>1490.1</ele>
        <time>2022-03-27T07:25:24.000Z</time>
      </trkpt>
      <trkpt lat="45.65312" lon="6.57846">
        <ele>1490.6</ele>
        <time>2022-03-27T07:25:33.000Z</time>
      </trkpt>
      <trkpt lat="45.65303" lon="6.57849">
        <ele>1491.1</ele>
        <time>2022-03-27T07:25:42.000Z</time>
      </trkpt>
      <trkpt lat="45.65293" lon="6.57852">
        <ele>1491.5</ele>
        <time>2022-03-27T07:25:51.000Z</time>
      </trkpt>
      <trkpt lat="45.65284" lon="6.57854">
        <ele>1492</ele>
        <time>2022-03-27T07:26:00.000Z</time>
      </trkpt>
      <trkpt lat="45.65275" lon="6.57856">
        <ele>1492.3</ele>
        <time>2022-03-27T07:26:08.000Z</time>
      </trkpt>
      <trkpt lat="45.65265" lon="6.5786">
        <ele>1493.2</ele>
        <time>2022-03-27T07:26:17.000Z</time>
      </trkpt>
      <trkpt lat="45.65256" lon="6.57866">
        <ele>1493.6</ele>
        <time>2022-03-27T07:26:26.000Z</time>
      </trkpt>
      <trkpt lat="45.65247" lon="6.57871">
        <ele>1493.7</ele>
        <time>2022-03-27T07:26:35.000Z</time>
      </trkpt>
      <trkpt lat="45.65238" lon="6.57875">
        <ele>1494.3</ele>
        <time>2022-03-27T07:26:43.000Z</time>
      </trkpt>
      <trkpt lat="45.65229" lon="6.57881">
        <ele>1495</ele>
        <time>2022-03-27T07:26:52.000Z</time>
      </trkpt>
      <trkpt lat="45.65221" lon="6.57887">
        <ele>1495.8</ele>
        <time>2022-03-27T07:27:02.000Z</time>
      </trkpt>
      <trkpt lat="45.65213" lon="6.57892">
        <ele>1496.4</ele>
        <time>2022-03-27T07:27:11.000Z</time>
      </trkpt>
      <trkpt lat="45.65205" lon="6.579">
        <ele>1496.9</ele>
        <time>2022-03-27T07:27:20.000Z</time>
      </trkpt>
      <trkpt lat="45.65213" lon="6.57905">
        <ele>1498.7</ele>
        <time>2022-03-27T07:27:34.000Z</time>
      </trkpt>
      <trkpt lat="45.65222" lon="6.57905">
        <ele>1499.4</ele>
        <time>2022-03-27T07:27:44.000Z</time>
      </trkpt>
      <trkpt lat="45.65232" lon="6.57905">
        <ele>1500.1</ele>
        <time>2022-03-27T07:27:53.000Z</time>
      </trkpt>
      <trkpt lat="45.65241" lon="6.57902">
        <ele>1500.7</ele>
        <time>2022-03-27T07:28:02.000Z</time>
      </trkpt>
      <trkpt lat="45.6525" lon="6.57901">
        <ele>1502</ele>
        <time>2022-03-27T07:28:13.000Z</time>
      </trkpt>
      <trkpt lat="45.65259" lon="6.57897">
        <ele>1502.6</ele>
        <time>2022-03-27T07:28:22.000Z</time>
      </trkpt>
      <trkpt lat="45.65268" lon="6.57896">
        <ele>1503</ele>
        <time>2022-03-27T07:28:30.000Z</time>
      </trkpt>
      <trkpt lat="45.65278" lon="6.57894">
        <ele>1504.1</ele>
        <time>2022-03-27T07:28:40.000Z</time>
      </trkpt>
      <trkpt lat="45.65288" lon="6.57893">
        <ele>1505</ele>
        <time>2022-03-27T07:28:49.000Z</time>
      </trkpt>
      <trkpt lat="45.65298" lon="6.57894">
        <ele>1505.9</ele>
        <time>2022-03-27T07:28:58.000Z</time>
      </trkpt>
      <trkpt lat="45.65307" lon="6.57895">
        <ele>1506.6</ele>
        <time>2022-03-27T07:29:07.000Z</time>
      </trkpt>
      <trkpt lat="45.65316" lon="6.579">
        <ele>1507.4</ele>
        <time>2022-03-27T07:29:16.000Z</time>
      </trkpt>
      <trkpt lat="45.65326" lon="6.57901">
        <ele>1508.4</ele>
        <time>2022-03-27T07:29:26.000Z</time>
      </trkpt>
      <trkpt lat="45.65335" lon="6.57902">
        <ele>1509.6</ele>
        <time>2022-03-27T07:29:37.000Z</time>
      </trkpt>
      <trkpt lat="45.65344" lon="6.579">
        <ele>1510.5</ele>
        <time>2022-03-27T07:29:45.000Z</time>
      </trkpt>
      <trkpt lat="45.65353" lon="6.579">
        <ele>1511.3</ele>
        <time>2022-03-27T07:29:54.000Z</time>
      </trkpt>
      <trkpt lat="45.65363" lon="6.57901">
        <ele>1511.9</ele>
        <time>2022-03-27T07:30:03.000Z</time>
      </trkpt>
      <trkpt lat="45.65372" lon="6.57905">
        <ele>1512.7</ele>
        <time>2022-03-27T07:30:12.000Z</time>
      </trkpt>
      <trkpt lat="45.65381" lon="6.57907">
        <ele>1513.2</ele>
        <time>2022-03-27T07:30:20.000Z</time>
      </trkpt>
      <trkpt lat="45.6539" lon="6.57912">
        <ele>1513.6</ele>
        <time>2022-03-27T07:30:29.000Z</time>
      </trkpt>
      <trkpt lat="45.65399" lon="6.57919">
        <ele>1514.6</ele>
        <time>2022-03-27T07:30:38.000Z</time>
      </trkpt>
      <trkpt lat="45.65407" lon="6.57927">
        <ele>1515.3</ele>
        <time>2022-03-27T07:30:47.000Z</time>
      </trkpt>
      <trkpt lat="45.65415" lon="6.57932">
        <ele>1516.1</ele>
        <time>2022-03-27T07:30:55.000Z</time>
      </trkpt>
      <trkpt lat="45.65422" lon="6.57941">
        <ele>1517</ele>
        <time>2022-03-27T07:31:03.000Z</time>
      </trkpt>
      <trkpt lat="45.65431" lon="6.57945">
        <ele>1517.7</ele>
        <time>2022-03-27T07:31:12.000Z</time>
      </trkpt>
      <trkpt lat="45.65441" lon="6.57946">
        <ele>1518.6</ele>
        <time>2022-03-27T07:31:21.000Z</time>
      </trkpt>
      <trkpt lat="45.6545" lon="6.57953">
        <ele>1519.5</ele>
        <time>2022-03-27T07:31:30.000Z</time>
      </trkpt>
      <trkpt lat="45.65459" lon="6.57954">
        <ele>1520.9</ele>
        <time>2022-03-27T07:31:38.000Z</time>
      </trkpt>
      <trkpt lat="45.65468" lon="6.57953">
        <ele>1521.4</ele>
        <time>2022-03-27T07:31:48.000Z</time>
      </trkpt>
      <trkpt lat="45.65477" lon="6.57959">
        <ele>1522.4</ele>
        <time>2022-03-27T07:31:59.000Z</time>
      </trkpt>
      <trkpt lat="45.65486" lon="6.57965">
        <ele>1522.9</ele>
        <time>2022-03-27T07:32:09.000Z</time>
      </trkpt>
      <trkpt lat="45.65495" lon="6.57968">
        <ele>1523.9</ele>
        <time>2022-03-27T07:32:18.000Z</time>
      </trkpt>
      <trkpt lat="45.65504" lon="6.57972">
        <ele>1524.8</ele>
        <time>2022-03-27T07:32:27.000Z</time>
      </trkpt>
      <trkpt lat="45.65512" lon="6.57975">
        <ele>1525.5</ele>
        <time>2022-03-27T07:32:36.000Z</time>
      </trkpt>
      <trkpt lat="45.65521" lon="6.5798">
        <ele>1526.2</ele>
        <time>2022-03-27T07:32:46.000Z</time>
      </trkpt>
      <trkpt lat="45.65528" lon="6.57987">
        <ele>1527</ele>
        <time>2022-03-27T07:32:55.000Z</time>
      </trkpt>
      <trkpt lat="45.65537" lon="6.57992">
        <ele>1528</ele>
        <time>2022-03-27T07:33:03.000Z</time>
      </trkpt>
      <trkpt lat="45.65543" lon="6.58003">
        <ele>1529.1</ele>
        <time>2022-03-27T07:33:12.000Z</time>
      </trkpt>
      <trkpt lat="45.65552" lon="6.58009">
        <ele>1529.6</ele>
        <time>2022-03-27T07:33:22.000Z</time>
      </trkpt>
      <trkpt lat="45.6556" lon="6.58017">
        <ele>1530.8</ele>
        <time>2022-03-27T07:33:31.000Z</time>
      </trkpt>
      <trkpt lat="45.65567" lon="6.58025">
        <ele>1531.8</ele>
        <time>2022-03-27T07:33:40.000Z</time>
      </trkpt>
      <trkpt lat="45.65573" lon="6.58035">
        <ele>1533.3</ele>
        <time>2022-03-27T07:33:51.000Z</time>
      </trkpt>
      <trkpt lat="45.65576" lon="6.5804">
        <ele>1534.8</ele>
        <time>2022-03-27T07:34:08.000Z</time>
      </trkpt>
      <trkpt lat="45.65576" lon="6.5804">
        <ele>1534.3</ele>
        <time>2022-03-27T07:34:16.000Z</time>
      </trkpt>
      <trkpt lat="45.65576" lon="6.58041">
        <ele>1533.6</ele>
        <time>2022-03-27T07:34:19.000Z</time>
      </trkpt>
      <trkpt lat="45.65576" lon="6.58041">
        <ele>1533.3</ele>
        <time>2022-03-27T07:34:20.000Z</time>
      </trkpt>
      <trkpt lat="45.65577" lon="6.58048">
        <ele>1533.4</ele>
        <time>2022-03-27T07:34:32.000Z</time>
      </trkpt>
      <trkpt lat="45.65577" lon="6.58049">
        <ele>1533.4</ele>
        <time>2022-03-27T07:34:34.000Z</time>
      </trkpt>
      <trkpt lat="45.65577" lon="6.58055">
        <ele>1533.9</ele>
        <time>2022-03-27T07:34:43.000Z</time>
      </trkpt>
      <trkpt lat="45.65577" lon="6.58055">
        <ele>1533.7</ele>
        <time>2022-03-27T07:34:44.000Z</time>
      </trkpt>
      <trkpt lat="45.65578" lon="6.58056">
        <ele>1534.1</ele>
        <time>2022-03-27T07:34:46.000Z</time>
      </trkpt>
      <trkpt lat="45.65578" lon="6.58055">
        <ele>1534.1</ele>
        <time>2022-03-27T07:34:47.000Z</time>
      </trkpt>
      <trkpt lat="45.65579" lon="6.58049">
        <ele>1534.5</ele>
        <time>2022-03-27T07:34:55.000Z</time>
      </trkpt>
      <trkpt lat="45.6558" lon="6.58049">
        <ele>1534.4</ele>
        <time>2022-03-27T07:34:56.000Z</time>
      </trkpt>
      <trkpt lat="45.6558" lon="6.58049">
        <ele>1534.3</ele>
        <time>2022-03-27T07:34:57.000Z</time>
      </trkpt>
      <trkpt lat="45.6558" lon="6.58049">
        <ele>1534.3</ele>
        <time>2022-03-27T07:35:04.000Z</time>
      </trkpt>
      <trkpt lat="45.6558" lon="6.58048">
        <ele>1534.5</ele>
        <time>2022-03-27T07:35:06.000Z</time>
      </trkpt>
      <trkpt lat="45.6558" lon="6.58048">
        <ele>1534.5</ele>
        <time>2022-03-27T07:35:11.000Z</time>
      </trkpt>
      <trkpt lat="45.6558" lon="6.58048">
        <ele>1534.7</ele>
        <time>2022-03-27T07:35:12.000Z</time>
      </trkpt>
      <trkpt lat="45.65581" lon="6.58048">
        <ele>1534.8</ele>
        <time>2022-03-27T07:35:13.000Z</time>
      </trkpt>
      <trkpt lat="45.65577" lon="6.58036">
        <ele>1534.7</ele>
        <time>2022-03-27T07:35:28.000Z</time>
      </trkpt>
      <trkpt lat="45.65579" lon="6.58032">
        <ele>1534.8</ele>
        <time>2022-03-27T07:35:44.000Z</time>
      </trkpt>
      <trkpt lat="45.65579" lon="6.58033">
        <ele>1534.7</ele>
        <time>2022-03-27T07:35:45.000Z</time>
      </trkpt>
      <trkpt lat="45.65579" lon="6.58033">
        <ele>1534.7</ele>
        <time>2022-03-27T07:35:46.000Z</time>
      </trkpt>
      <trkpt lat="45.6558" lon="6.58033">
        <ele>1534.7</ele>
        <time>2022-03-27T07:35:55.000Z</time>
      </trkpt>
      <trkpt lat="45.6558" lon="6.58033">
        <ele>1534.5</ele>
        <time>2022-03-27T07:35:56.000Z</time>
      </trkpt>
      <trkpt lat="45.6558" lon="6.58033">
        <ele>1534.6</ele>
        <time>2022-03-27T07:35:59.000Z</time>
      </trkpt>
      <trkpt lat="45.6558" lon="6.58033">
        <ele>1534.4</ele>
        <time>2022-03-27T07:36:02.000Z</time>
      </trkpt>
      <trkpt lat="45.6558" lon="6.58033">
        <ele>1534.8</ele>
        <time>2022-03-27T07:36:28.000Z</time>
      </trkpt>
      <trkpt lat="45.6558" lon="6.58033">
        <ele>1534.8</ele>
        <time>2022-03-27T07:36:29.000Z</time>
      </trkpt>
      <trkpt lat="45.65579" lon="6.58033">
        <ele>1535</ele>
        <time>2022-03-27T07:36:32.000Z</time>
      </trkpt>
      <trkpt lat="45.65577" lon="6.58033">
        <ele>1535.4</ele>
        <time>2022-03-27T07:36:39.000Z</time>
      </trkpt>
      <trkpt lat="45.65577" lon="6.58033">
        <ele>1535.5</ele>
        <time>2022-03-27T07:36:40.000Z</time>
      </trkpt>
      <trkpt lat="45.65569" lon="6.58028">
        <ele>1536.6</ele>
        <time>2022-03-27T07:36:57.000Z</time>
      </trkpt>
      <trkpt lat="45.65559" lon="6.58027">
        <ele>1537.4</ele>
        <time>2022-03-27T07:37:09.000Z</time>
      </trkpt>
      <trkpt lat="45.6555" lon="6.58024">
        <ele>1538.7</ele>
        <time>2022-03-27T07:37:18.000Z</time>
      </trkpt>
      <trkpt lat="45.65541" lon="6.5802">
        <ele>1540.2</ele>
        <time>2022-03-27T07:37:33.000Z</time>
      </trkpt>
      <trkpt lat="45.65532" lon="6.58019">
        <ele>1540.8</ele>
        <time>2022-03-27T07:37:40.000Z</time>
      </trkpt>
      <trkpt lat="45.65523" lon="6.58015">
        <ele>1541.3</ele>
        <time>2022-03-27T07:37:49.000Z</time>
      </trkpt>
      <trkpt lat="45.65514" lon="6.58011">
        <ele>1542.3</ele>
        <time>2022-03-27T07:37:59.000Z</time>
      </trkpt>
      <trkpt lat="45.65504" lon="6.58011">
        <ele>1543.3</ele>
        <time>2022-03-27T07:38:09.000Z</time>
      </trkpt>
      <trkpt lat="45.65494" lon="6.58008">
        <ele>1544.1</ele>
        <time>2022-03-27T07:38:18.000Z</time>
      </trkpt>
      <trkpt lat="45.65485" lon="6.58007">
        <ele>1544.9</ele>
        <time>2022-03-27T07:38:29.000Z</time>
      </trkpt>
      <trkpt lat="45.65475" lon="6.58008">
        <ele>1546.1</ele>
        <time>2022-03-27T07:38:40.000Z</time>
      </trkpt>
      <trkpt lat="45.65465" lon="6.58006">
        <ele>1547.4</ele>
        <time>2022-03-27T07:38:49.000Z</time>
      </trkpt>
      <trkpt lat="45.65456" lon="6.58005">
        <ele>1548.2</ele>
        <time>2022-03-27T07:38:59.000Z</time>
      </trkpt>
      <trkpt lat="45.65446" lon="6.58005">
        <ele>1549.1</ele>
        <time>2022-03-27T07:39:09.000Z</time>
      </trkpt>
      <trkpt lat="45.65437" lon="6.58001">
        <ele>1550.7</ele>
        <time>2022-03-27T07:39:18.000Z</time>
      </trkpt>
      <trkpt lat="45.65428" lon="6.57997">
        <ele>1551.5</ele>
        <time>2022-03-27T07:39:28.000Z</time>
      </trkpt>
      <trkpt lat="45.65419" lon="6.57994">
        <ele>1552.4</ele>
        <time>2022-03-27T07:39:39.000Z</time>
      </trkpt>
      <trkpt lat="45.6541" lon="6.57989">
        <ele>1553.7</ele>
        <time>2022-03-27T07:39:49.000Z</time>
      </trkpt>
      <trkpt lat="45.65401" lon="6.57984">
        <ele>1554.3</ele>
        <time>2022-03-27T07:39:59.000Z</time>
      </trkpt>
      <trkpt lat="45.65392" lon="6.57984">
        <ele>1555.4</ele>
        <time>2022-03-27T07:40:09.000Z</time>
      </trkpt>
      <trkpt lat="45.65383" lon="6.57982">
        <ele>1556.3</ele>
        <time>2022-03-27T07:40:18.000Z</time>
      </trkpt>
      <trkpt lat="45.65374" lon="6.57982">
        <ele>1557.6</ele>
        <time>2022-03-27T07:40:28.000Z</time>
      </trkpt>
      <trkpt lat="45.65365" lon="6.57987">
        <ele>1558.3</ele>
        <time>2022-03-27T07:40:37.000Z</time>
      </trkpt>
      <trkpt lat="45.65356" lon="6.57991">
        <ele>1559.8</ele>
        <time>2022-03-27T07:40:47.000Z</time>
      </trkpt>
      <trkpt lat="45.65347" lon="6.57992">
        <ele>1560.6</ele>
        <time>2022-03-27T07:40:55.000Z</time>
      </trkpt>
      <trkpt lat="45.65337" lon="6.57993">
        <ele>1561.2</ele>
        <time>2022-03-27T07:41:03.000Z</time>
      </trkpt>
      <trkpt lat="45.6533" lon="6.57983">
        <ele>1561.9</ele>
        <time>2022-03-27T07:41:12.000Z</time>
      </trkpt>
      <trkpt lat="45.65321" lon="6.57982">
        <ele>1562.7</ele>
        <time>2022-03-27T07:41:23.000Z</time>
      </trkpt>
      <trkpt lat="45.65312" lon="6.57983">
        <ele>1563.3</ele>
        <time>2022-03-27T07:41:33.000Z</time>
      </trkpt>
      <trkpt lat="45.65303" lon="6.57988">
        <ele>1564.3</ele>
        <time>2022-03-27T07:41:42.000Z</time>
      </trkpt>
      <trkpt lat="45.65294" lon="6.57994">
        <ele>1565.6</ele>
        <time>2022-03-27T07:41:52.000Z</time>
      </trkpt>
      <trkpt lat="45.65286" lon="6.58">
        <ele>1566.1</ele>
        <time>2022-03-27T07:42:02.000Z</time>
      </trkpt>
      <trkpt lat="45.65277" lon="6.58003">
        <ele>1566.4</ele>
        <time>2022-03-27T07:42:12.000Z</time>
      </trkpt>
      <trkpt lat="45.65267" lon="6.58006">
        <ele>1567.8</ele>
        <time>2022-03-27T07:42:21.000Z</time>
      </trkpt>
      <trkpt lat="45.65258" lon="6.58007">
        <ele>1568.6</ele>
        <time>2022-03-27T07:42:31.000Z</time>
      </trkpt>
      <trkpt lat="45.65248" lon="6.58011">
        <ele>1568.9</ele>
        <time>2022-03-27T07:42:40.000Z</time>
      </trkpt>
      <trkpt lat="45.65239" lon="6.58015">
        <ele>1569.9</ele>
        <time>2022-03-27T07:42:50.000Z</time>
      </trkpt>
      <trkpt lat="45.65232" lon="6.58025">
        <ele>1571.1</ele>
        <time>2022-03-27T07:42:59.000Z</time>
      </trkpt>
      <trkpt lat="45.65225" lon="6.58033">
        <ele>1571.8</ele>
        <time>2022-03-27T07:43:09.000Z</time>
      </trkpt>
      <trkpt lat="45.65216" lon="6.58039">
        <ele>1572.3</ele>
        <time>2022-03-27T07:43:20.000Z</time>
      </trkpt>
      <trkpt lat="45.65208" lon="6.58046">
        <ele>1573.9</ele>
        <time>2022-03-27T07:43:31.000Z</time>
      </trkpt>
      <trkpt lat="45.65199" lon="6.58051">
        <ele>1575.4</ele>
        <time>2022-03-27T07:43:42.000Z</time>
      </trkpt>
      <trkpt lat="45.65191" lon="6.58057">
        <ele>1577</ele>
        <time>2022-03-27T07:43:53.000Z</time>
      </trkpt>
      <trkpt lat="45.65182" lon="6.58063">
        <ele>1578</ele>
        <time>2022-03-27T07:44:03.000Z</time>
      </trkpt>
      <trkpt lat="45.65174" lon="6.5807">
        <ele>1579.1</ele>
        <time>2022-03-27T07:44:13.000Z</time>
      </trkpt>
      <trkpt lat="45.65166" lon="6.58078">
        <ele>1580</ele>
        <time>2022-03-27T07:44:23.000Z</time>
      </trkpt>
      <trkpt lat="45.65158" lon="6.58084">
        <ele>1581.3</ele>
        <time>2022-03-27T07:44:33.000Z</time>
      </trkpt>
      <trkpt lat="45.65148" lon="6.58086">
        <ele>1582.3</ele>
        <time>2022-03-27T07:44:43.000Z</time>
      </trkpt>
      <trkpt lat="45.65138" lon="6.58083">
        <ele>1583.1</ele>
        <time>2022-03-27T07:44:52.000Z</time>
      </trkpt>
      <trkpt lat="45.65129" lon="6.5808">
        <ele>1583</ele>
        <time>2022-03-27T07:45:02.000Z</time>
      </trkpt>
      <trkpt lat="45.6512" lon="6.58078">
        <ele>1584</ele>
        <time>2022-03-27T07:45:12.000Z</time>
      </trkpt>
      <trkpt lat="45.65111" lon="6.58079">
        <ele>1584.2</ele>
        <time>2022-03-27T07:45:21.000Z</time>
      </trkpt>
      <trkpt lat="45.65101" lon="6.58075">
        <ele>1584.8</ele>
        <time>2022-03-27T07:45:31.000Z</time>
      </trkpt>
      <trkpt lat="45.65098" lon="6.58072">
        <ele>1585</ele>
        <time>2022-03-27T07:45:38.000Z</time>
      </trkpt>
      <trkpt lat="45.65098" lon="6.58072">
        <ele>1585.2</ele>
        <time>2022-03-27T07:45:44.000Z</time>
      </trkpt>
      <trkpt lat="45.65098" lon="6.58072">
        <ele>1585.2</ele>
        <time>2022-03-27T07:45:45.000Z</time>
      </trkpt>
      <trkpt lat="45.65098" lon="6.58072">
        <ele>1585.1</ele>
        <time>2022-03-27T07:45:47.000Z</time>
      </trkpt>
      <trkpt lat="45.65098" lon="6.58072">
        <ele>1585</ele>
        <time>2022-03-27T07:45:48.000Z</time>
      </trkpt>
      <trkpt lat="45.65098" lon="6.58072">
        <ele>1585</ele>
        <time>2022-03-27T07:45:59.000Z</time>
      </trkpt>
      <trkpt lat="45.65097" lon="6.58076">
        <ele>1583.9</ele>
        <time>2022-03-27T07:46:09.000Z</time>
      </trkpt>
      <trkpt lat="45.65097" lon="6.58076">
        <ele>1584.1</ele>
        <time>2022-03-27T07:46:21.000Z</time>
      </trkpt>
      <trkpt lat="45.65097" lon="6.58076">
        <ele>1584.2</ele>
        <time>2022-03-27T07:46:22.000Z</time>
      </trkpt>
      <trkpt lat="45.65096" lon="6.58076">
        <ele>1583.8</ele>
        <time>2022-03-27T07:47:18.000Z</time>
      </trkpt>
      <trkpt lat="45.65096" lon="6.58076">
        <ele>1583.8</ele>
        <time>2022-03-27T07:47:19.000Z</time>
      </trkpt>
      <trkpt lat="45.65096" lon="6.58076">
        <ele>1584.1</ele>
        <time>2022-03-27T07:47:34.000Z</time>
      </trkpt>
      <trkpt lat="45.65096" lon="6.58076">
        <ele>1584.1</ele>
        <time>2022-03-27T07:47:39.000Z</time>
      </trkpt>
      <trkpt lat="45.65096" lon="6.58076">
        <ele>1585.6</ele>
        <time>2022-03-27T07:47:40.000Z</time>
      </trkpt>
      <trkpt lat="45.65097" lon="6.58077">
        <ele>1583.8</ele>
        <time>2022-03-27T07:47:44.000Z</time>
      </trkpt>
      <trkpt lat="45.65097" lon="6.58077">
        <ele>1584.7</ele>
        <time>2022-03-27T07:47:46.000Z</time>
      </trkpt>
      <trkpt lat="45.65097" lon="6.58077">
        <ele>1584.6</ele>
        <time>2022-03-27T07:47:47.000Z</time>
      </trkpt>
      <trkpt lat="45.65097" lon="6.58077">
        <ele>1584</ele>
        <time>2022-03-27T07:47:49.000Z</time>
      </trkpt>
      <trkpt lat="45.65097" lon="6.58078">
        <ele>1583.8</ele>
        <time>2022-03-27T07:47:53.000Z</time>
      </trkpt>
      <trkpt lat="45.65096" lon="6.58078">
        <ele>1584.1</ele>
        <time>2022-03-27T07:48:32.000Z</time>
      </trkpt>
      <trkpt lat="45.65095" lon="6.58077">
        <ele>1582.5</ele>
        <time>2022-03-27T07:48:36.000Z</time>
      </trkpt>
      <trkpt lat="45.65095" lon="6.58077">
        <ele>1584.4</ele>
        <time>2022-03-27T07:48:43.000Z</time>
      </trkpt>
      <trkpt lat="45.65096" lon="6.58075">
        <ele>1585.5</ele>
        <time>2022-03-27T07:48:52.000Z</time>
      </trkpt>
      <trkpt lat="45.65096" lon="6.58075">
        <ele>1585.6</ele>
        <time>2022-03-27T07:49:01.000Z</time>
      </trkpt>
      <trkpt lat="45.65096" lon="6.58075">
        <ele>1585.5</ele>
        <time>2022-03-27T07:49:03.000Z</time>
      </trkpt>
      <trkpt lat="45.65096" lon="6.58075">
        <ele>1585.4</ele>
        <time>2022-03-27T07:49:19.000Z</time>
      </trkpt>
      <trkpt lat="45.65096" lon="6.58075">
        <ele>1585.4</ele>
        <time>2022-03-27T07:49:20.000Z</time>
      </trkpt>
      <trkpt lat="45.65095" lon="6.58075">
        <ele>1585.4</ele>
        <time>2022-03-27T07:50:11.000Z</time>
      </trkpt>
      <trkpt lat="45.65095" lon="6.58075">
        <ele>1585.5</ele>
        <time>2022-03-27T07:50:12.000Z</time>
      </trkpt>
      <trkpt lat="45.65095" lon="6.58074">
        <ele>1585.5</ele>
        <time>2022-03-27T07:50:30.000Z</time>
      </trkpt>
      <trkpt lat="45.65103" lon="6.58082">
        <ele>1584.5</ele>
        <time>2022-03-27T07:50:44.000Z</time>
      </trkpt>
      <trkpt lat="45.6511" lon="6.58091">
        <ele>1584.3</ele>
        <time>2022-03-27T07:50:52.000Z</time>
      </trkpt>
      <trkpt lat="45.65117" lon="6.58099">
        <ele>1583.6</ele>
        <time>2022-03-27T07:51:01.000Z</time>
      </trkpt>
      <trkpt lat="45.65123" lon="6.5811">
        <ele>1584.4</ele>
        <time>2022-03-27T07:51:12.000Z</time>
      </trkpt>
      <trkpt lat="45.65128" lon="6.5812">
        <ele>1585.4</ele>
        <time>2022-03-27T07:51:22.000Z</time>
      </trkpt>
      <trkpt lat="45.65132" lon="6.58133">
        <ele>1587</ele>
        <time>2022-03-27T07:51:34.000Z</time>
      </trkpt>
      <trkpt lat="45.65133" lon="6.58136">
        <ele>1587.3</ele>
        <time>2022-03-27T07:51:39.000Z</time>
      </trkpt>
      <trkpt lat="45.65133" lon="6.58137">
        <ele>1587.2</ele>
        <time>2022-03-27T07:51:58.000Z</time>
      </trkpt>
      <trkpt lat="45.65133" lon="6.58137">
        <ele>1587.3</ele>
        <time>2022-03-27T07:52:00.000Z</time>
      </trkpt>
      <trkpt lat="45.65133" lon="6.58137">
        <ele>1587.3</ele>
        <time>2022-03-27T07:52:32.000Z</time>
      </trkpt>
      <trkpt lat="45.65133" lon="6.5815">
        <ele>1587.7</ele>
        <time>2022-03-27T07:52:43.000Z</time>
      </trkpt>
      <trkpt lat="45.65133" lon="6.58164">
        <ele>1588.7</ele>
        <time>2022-03-27T07:52:53.000Z</time>
      </trkpt>
      <trkpt lat="45.65133" lon="6.58177">
        <ele>1589</ele>
        <time>2022-03-27T07:53:03.000Z</time>
      </trkpt>
      <trkpt lat="45.65133" lon="6.58183">
        <ele>1590.1</ele>
        <time>2022-03-27T07:53:09.000Z</time>
      </trkpt>
      <trkpt lat="45.65133" lon="6.58183">
        <ele>1590.2</ele>
        <time>2022-03-27T07:53:13.000Z</time>
      </trkpt>
      <trkpt lat="45.65135" lon="6.58197">
        <ele>1590.9</ele>
        <time>2022-03-27T07:53:23.000Z</time>
      </trkpt>
      <trkpt lat="45.65139" lon="6.5821">
        <ele>1592</ele>
        <time>2022-03-27T07:53:34.000Z</time>
      </trkpt>
      <trkpt lat="45.65145" lon="6.58221">
        <ele>1592.7</ele>
        <time>2022-03-27T07:53:44.000Z</time>
      </trkpt>
      <trkpt lat="45.65149" lon="6.58229">
        <ele>1593.6</ele>
        <time>2022-03-27T07:53:57.000Z</time>
      </trkpt>
      <trkpt lat="45.6515" lon="6.58229">
        <ele>1593.3</ele>
        <time>2022-03-27T07:53:59.000Z</time>
      </trkpt>
      <trkpt lat="45.6515" lon="6.58229">
        <ele>1593.3</ele>
        <time>2022-03-27T07:54:00.000Z</time>
      </trkpt>
      <trkpt lat="45.65149" lon="6.58229">
        <ele>1593.3</ele>
        <time>2022-03-27T07:54:15.000Z</time>
      </trkpt>
      <trkpt lat="45.65149" lon="6.58229">
        <ele>1593.1</ele>
        <time>2022-03-27T07:54:16.000Z</time>
      </trkpt>
      <trkpt lat="45.6515" lon="6.58229">
        <ele>1593.1</ele>
        <time>2022-03-27T07:54:17.000Z</time>
      </trkpt>
      <trkpt lat="45.65149" lon="6.58229">
        <ele>1593.1</ele>
        <time>2022-03-27T07:54:19.000Z</time>
      </trkpt>
      <trkpt lat="45.6515" lon="6.58229">
        <ele>1592.9</ele>
        <time>2022-03-27T07:54:20.000Z</time>
      </trkpt>
      <trkpt lat="45.6515" lon="6.58229">
        <ele>1592.9</ele>
        <time>2022-03-27T07:54:21.000Z</time>
      </trkpt>
      <trkpt lat="45.65149" lon="6.58229">
        <ele>1593.1</ele>
        <time>2022-03-27T07:54:23.000Z</time>
      </trkpt>
      <trkpt lat="45.65149" lon="6.58231">
        <ele>1593.7</ele>
        <time>2022-03-27T07:54:27.000Z</time>
      </trkpt>
      <trkpt lat="45.6515" lon="6.5823">
        <ele>1593.7</ele>
        <time>2022-03-27T07:54:33.000Z</time>
      </trkpt>
      <trkpt lat="45.65156" lon="6.58241">
        <ele>1594.3</ele>
        <time>2022-03-27T07:54:46.000Z</time>
      </trkpt>
      <trkpt lat="45.65158" lon="6.58255">
        <ele>1595.1</ele>
        <time>2022-03-27T07:54:55.000Z</time>
      </trkpt>
      <trkpt lat="45.65159" lon="6.58269">
        <ele>1596.3</ele>
        <time>2022-03-27T07:55:04.000Z</time>
      </trkpt>
      <trkpt lat="45.65161" lon="6.58282">
        <ele>1597.5</ele>
        <time>2022-03-27T07:55:12.000Z</time>
      </trkpt>
      <trkpt lat="45.65163" lon="6.58292">
        <ele>1598.2</ele>
        <time>2022-03-27T07:55:21.000Z</time>
      </trkpt>
      <trkpt lat="45.65163" lon="6.58292">
        <ele>1598.1</ele>
        <time>2022-03-27T07:55:22.000Z</time>
      </trkpt>
      <trkpt lat="45.65163" lon="6.58292">
        <ele>1597.9</ele>
        <time>2022-03-27T07:55:23.000Z</time>
      </trkpt>
      <trkpt lat="45.65163" lon="6.58292">
        <ele>1597.8</ele>
        <time>2022-03-27T07:55:24.000Z</time>
      </trkpt>
      <trkpt lat="45.65163" lon="6.58292">
        <ele>1598</ele>
        <time>2022-03-27T07:55:28.000Z</time>
      </trkpt>
      <trkpt lat="45.65162" lon="6.58292">
        <ele>1598.3</ele>
        <time>2022-03-27T07:55:37.000Z</time>
      </trkpt>
      <trkpt lat="45.65162" lon="6.58292">
        <ele>1598.2</ele>
        <time>2022-03-27T07:55:38.000Z</time>
      </trkpt>
      <trkpt lat="45.65163" lon="6.58292">
        <ele>1597.6</ele>
        <time>2022-03-27T07:55:55.000Z</time>
      </trkpt>
      <trkpt lat="45.65165" lon="6.58304">
        <ele>1598.7</ele>
        <time>2022-03-27T07:56:08.000Z</time>
      </trkpt>
      <trkpt lat="45.65165" lon="6.58304">
        <ele>1598.7</ele>
        <time>2022-03-27T07:56:22.000Z</time>
      </trkpt>
      <trkpt lat="45.65166" lon="6.58308">
        <ele>1599.1</ele>
        <time>2022-03-27T07:56:27.000Z</time>
      </trkpt>
      <trkpt lat="45.65166" lon="6.58309">
        <ele>1599.5</ele>
        <time>2022-03-27T07:56:34.000Z</time>
      </trkpt>
      <trkpt lat="45.6517" lon="6.58322">
        <ele>1599.8</ele>
        <time>2022-03-27T07:56:45.000Z</time>
      </trkpt>
      <trkpt lat="45.65171" lon="6.58336">
        <ele>1600.5</ele>
        <time>2022-03-27T07:56:54.000Z</time>
      </trkpt>
      <trkpt lat="45.65171" lon="6.58349">
        <ele>1601.2</ele>
        <time>2022-03-27T07:57:03.000Z</time>
      </trkpt>
      <trkpt lat="45.6517" lon="6.58363">
        <ele>1601.8</ele>
        <time>2022-03-27T07:57:12.000Z</time>
      </trkpt>
      <trkpt lat="45.65169" lon="6.58377">
        <ele>1603.3</ele>
        <time>2022-03-27T07:57:22.000Z</time>
      </trkpt>
      <trkpt lat="45.65167" lon="6.58391">
        <ele>1604.1</ele>
        <time>2022-03-27T07:57:32.000Z</time>
      </trkpt>
      <trkpt lat="45.65165" lon="6.58404">
        <ele>1605.5</ele>
        <time>2022-03-27T07:57:43.000Z</time>
      </trkpt>
      <trkpt lat="45.65161" lon="6.58417">
        <ele>1606.9</ele>
        <time>2022-03-27T07:57:54.000Z</time>
      </trkpt>
      <trkpt lat="45.65156" lon="6.58428">
        <ele>1608.3</ele>
        <time>2022-03-27T07:58:04.000Z</time>
      </trkpt>
      <trkpt lat="45.65151" lon="6.5844">
        <ele>1609.1</ele>
        <time>2022-03-27T07:58:14.000Z</time>
      </trkpt>
      <trkpt lat="45.65144" lon="6.58451">
        <ele>1609.6</ele>
        <time>2022-03-27T07:58:24.000Z</time>
      </trkpt>
      <trkpt lat="45.65139" lon="6.58461">
        <ele>1610.1</ele>
        <time>2022-03-27T07:58:33.000Z</time>
      </trkpt>
      <trkpt lat="45.65133" lon="6.58472">
        <ele>1610.2</ele>
        <time>2022-03-27T07:58:43.000Z</time>
      </trkpt>
      <trkpt lat="45.65127" lon="6.58482">
        <ele>1611.1</ele>
        <time>2022-03-27T07:58:53.000Z</time>
      </trkpt>
      <trkpt lat="45.6512" lon="6.58492">
        <ele>1611.9</ele>
        <time>2022-03-27T07:59:03.000Z</time>
      </trkpt>
      <trkpt lat="45.65113" lon="6.58501">
        <ele>1612.4</ele>
        <time>2022-03-27T07:59:13.000Z</time>
      </trkpt>
      <trkpt lat="45.65106" lon="6.58511">
        <ele>1613.6</ele>
        <time>2022-03-27T07:59:22.000Z</time>
      </trkpt>
      <trkpt lat="45.651" lon="6.58522">
        <ele>1614.4</ele>
        <time>2022-03-27T07:59:32.000Z</time>
      </trkpt>
      <trkpt lat="45.65096" lon="6.58533">
        <ele>1615.2</ele>
        <time>2022-03-27T07:59:42.000Z</time>
      </trkpt>
      <trkpt lat="45.65093" lon="6.58546">
        <ele>1615.8</ele>
        <time>2022-03-27T07:59:52.000Z</time>
      </trkpt>
      <trkpt lat="45.65092" lon="6.5856">
        <ele>1616.1</ele>
        <time>2022-03-27T08:00:01.000Z</time>
      </trkpt>
      <trkpt lat="45.65091" lon="6.58574">
        <ele>1617.1</ele>
        <time>2022-03-27T08:00:11.000Z</time>
      </trkpt>
      <trkpt lat="45.65091" lon="6.58588">
        <ele>1617.3</ele>
        <time>2022-03-27T08:00:20.000Z</time>
      </trkpt>
      <trkpt lat="45.6509" lon="6.58602">
        <ele>1617.6</ele>
        <time>2022-03-27T08:00:30.000Z</time>
      </trkpt>
      <trkpt lat="45.65084" lon="6.58613">
        <ele>1618.5</ele>
        <time>2022-03-27T08:00:41.000Z</time>
      </trkpt>
      <trkpt lat="45.65075" lon="6.58614">
        <ele>1618.8</ele>
        <time>2022-03-27T08:00:53.000Z</time>
      </trkpt>
      <trkpt lat="45.65066" lon="6.5861">
        <ele>1619.9</ele>
        <time>2022-03-27T08:01:03.000Z</time>
      </trkpt>
      <trkpt lat="45.65057" lon="6.58605">
        <ele>1621.1</ele>
        <time>2022-03-27T08:01:13.000Z</time>
      </trkpt>
      <trkpt lat="45.65048" lon="6.58599">
        <ele>1622</ele>
        <time>2022-03-27T08:01:23.000Z</time>
      </trkpt>
      <trkpt lat="45.65039" lon="6.58595">
        <ele>1623.2</ele>
        <time>2022-03-27T08:01:34.000Z</time>
      </trkpt>
      <trkpt lat="45.65029" lon="6.58592">
        <ele>1624.1</ele>
        <time>2022-03-27T08:01:44.000Z</time>
      </trkpt>
      <trkpt lat="45.6502" lon="6.58588">
        <ele>1625</ele>
        <time>2022-03-27T08:01:54.000Z</time>
      </trkpt>
      <trkpt lat="45.65011" lon="6.5859">
        <ele>1625.9</ele>
        <time>2022-03-27T08:02:03.000Z</time>
      </trkpt>
      <trkpt lat="45.65002" lon="6.58596">
        <ele>1626.6</ele>
        <time>2022-03-27T08:02:13.000Z</time>
      </trkpt>
      <trkpt lat="45.64997" lon="6.58607">
        <ele>1628</ele>
        <time>2022-03-27T08:02:22.000Z</time>
      </trkpt>
      <trkpt lat="45.64994" lon="6.58619">
        <ele>1629</ele>
        <time>2022-03-27T08:02:31.000Z</time>
      </trkpt>
      <trkpt lat="45.64991" lon="6.58633">
        <ele>1629.7</ele>
        <time>2022-03-27T08:02:41.000Z</time>
      </trkpt>
      <trkpt lat="45.64988" lon="6.58645">
        <ele>1630.8</ele>
        <time>2022-03-27T08:02:51.000Z</time>
      </trkpt>
      <trkpt lat="45.64984" lon="6.58658">
        <ele>1631.7</ele>
        <time>2022-03-27T08:03:01.000Z</time>
      </trkpt>
      <trkpt lat="45.64978" lon="6.58668">
        <ele>1632</ele>
        <time>2022-03-27T08:03:10.000Z</time>
      </trkpt>
      <trkpt lat="45.6497" lon="6.58678">
        <ele>1633.1</ele>
        <time>2022-03-27T08:03:21.000Z</time>
      </trkpt>
      <trkpt lat="45.64964" lon="6.58688">
        <ele>1634.1</ele>
        <time>2022-03-27T08:03:31.000Z</time>
      </trkpt>
      <trkpt lat="45.64958" lon="6.58698">
        <ele>1635.8</ele>
        <time>2022-03-27T08:03:41.000Z</time>
      </trkpt>
      <trkpt lat="45.64952" lon="6.58708">
        <ele>1636.2</ele>
        <time>2022-03-27T08:03:51.000Z</time>
      </trkpt>
      <trkpt lat="45.64945" lon="6.58717">
        <ele>1637</ele>
        <time>2022-03-27T08:04:01.000Z</time>
      </trkpt>
      <trkpt lat="45.64936" lon="6.5872">
        <ele>1638.6</ele>
        <time>2022-03-27T08:04:12.000Z</time>
      </trkpt>
      <trkpt lat="45.64927" lon="6.58721">
        <ele>1639.6</ele>
        <time>2022-03-27T08:04:22.000Z</time>
      </trkpt>
      <trkpt lat="45.64918" lon="6.58724">
        <ele>1640.6</ele>
        <time>2022-03-27T08:04:32.000Z</time>
      </trkpt>
      <trkpt lat="45.64908" lon="6.58723">
        <ele>1642</ele>
        <time>2022-03-27T08:04:42.000Z</time>
      </trkpt>
      <trkpt lat="45.64899" lon="6.58724">
        <ele>1643.1</ele>
        <time>2022-03-27T08:04:52.000Z</time>
      </trkpt>
      <trkpt lat="45.64889" lon="6.58722">
        <ele>1644.3</ele>
        <time>2022-03-27T08:05:03.000Z</time>
      </trkpt>
      <trkpt lat="45.64881" lon="6.58717">
        <ele>1645.1</ele>
        <time>2022-03-27T08:05:13.000Z</time>
      </trkpt>
      <trkpt lat="45.64871" lon="6.58715">
        <ele>1646.1</ele>
        <time>2022-03-27T08:05:25.000Z</time>
      </trkpt>
      <trkpt lat="45.64862" lon="6.58714">
        <ele>1647.3</ele>
        <time>2022-03-27T08:05:35.000Z</time>
      </trkpt>
      <trkpt lat="45.64853" lon="6.5871">
        <ele>1648.3</ele>
        <time>2022-03-27T08:05:45.000Z</time>
      </trkpt>
      <trkpt lat="45.64843" lon="6.58705">
        <ele>1649.2</ele>
        <time>2022-03-27T08:05:56.000Z</time>
      </trkpt>
      <trkpt lat="45.64835" lon="6.58699">
        <ele>1650.7</ele>
        <time>2022-03-27T08:06:06.000Z</time>
      </trkpt>
      <trkpt lat="45.64827" lon="6.58693">
        <ele>1651.7</ele>
        <time>2022-03-27T08:06:16.000Z</time>
      </trkpt>
      <trkpt lat="45.64817" lon="6.58688">
        <ele>1652.8</ele>
        <time>2022-03-27T08:06:27.000Z</time>
      </trkpt>
      <trkpt lat="45.64808" lon="6.58683">
        <ele>1653.8</ele>
        <time>2022-03-27T08:06:37.000Z</time>
      </trkpt>
      <trkpt lat="45.64799" lon="6.58678">
        <ele>1654.7</ele>
        <time>2022-03-27T08:06:47.000Z</time>
      </trkpt>
      <trkpt lat="45.64791" lon="6.58672">
        <ele>1655.5</ele>
        <time>2022-03-27T08:06:57.000Z</time>
      </trkpt>
      <trkpt lat="45.64783" lon="6.58665">
        <ele>1656.7</ele>
        <time>2022-03-27T08:07:06.000Z</time>
      </trkpt>
      <trkpt lat="45.64776" lon="6.58656">
        <ele>1657.2</ele>
        <time>2022-03-27T08:07:15.000Z</time>
      </trkpt>
      <trkpt lat="45.64768" lon="6.58649">
        <ele>1658</ele>
        <time>2022-03-27T08:07:25.000Z</time>
      </trkpt>
      <trkpt lat="45.64759" lon="6.58643">
        <ele>1659</ele>
        <time>2022-03-27T08:07:36.000Z</time>
      </trkpt>
      <trkpt lat="45.6475" lon="6.58637">
        <ele>1660.1</ele>
        <time>2022-03-27T08:07:47.000Z</time>
      </trkpt>
      <trkpt lat="45.64742" lon="6.58632">
        <ele>1661.2</ele>
        <time>2022-03-27T08:07:57.000Z</time>
      </trkpt>
      <trkpt lat="45.64733" lon="6.58626">
        <ele>1662</ele>
        <time>2022-03-27T08:08:06.000Z</time>
      </trkpt>
      <trkpt lat="45.64724" lon="6.58622">
        <ele>1662.5</ele>
        <time>2022-03-27T08:08:15.000Z</time>
      </trkpt>
      <trkpt lat="45.64715" lon="6.58617">
        <ele>1663.7</ele>
        <time>2022-03-27T08:08:25.000Z</time>
      </trkpt>
      <trkpt lat="45.64706" lon="6.58613">
        <ele>1664.2</ele>
        <time>2022-03-27T08:08:34.000Z</time>
      </trkpt>
      <trkpt lat="45.64697" lon="6.58611">
        <ele>1665.2</ele>
        <time>2022-03-27T08:08:44.000Z</time>
      </trkpt>
      <trkpt lat="45.64687" lon="6.58608">
        <ele>1665.4</ele>
        <time>2022-03-27T08:08:53.000Z</time>
      </trkpt>
      <trkpt lat="45.64678" lon="6.58602">
        <ele>1665.7</ele>
        <time>2022-03-27T08:09:03.000Z</time>
      </trkpt>
      <trkpt lat="45.64671" lon="6.58591">
        <ele>1666.9</ele>
        <time>2022-03-27T08:09:14.000Z</time>
      </trkpt>
      <trkpt lat="45.64665" lon="6.5858">
        <ele>1666.9</ele>
        <time>2022-03-27T08:09:23.000Z</time>
      </trkpt>
      <trkpt lat="45.64659" lon="6.5857">
        <ele>1667.3</ele>
        <time>2022-03-27T08:09:31.000Z</time>
      </trkpt>
      <trkpt lat="45.64652" lon="6.58561">
        <ele>1667.9</ele>
        <time>2022-03-27T08:09:40.000Z</time>
      </trkpt>
      <trkpt lat="45.64645" lon="6.58553">
        <ele>1668.5</ele>
        <time>2022-03-27T08:09:49.000Z</time>
      </trkpt>
      <trkpt lat="45.64637" lon="6.58545">
        <ele>1668.2</ele>
        <time>2022-03-27T08:09:58.000Z</time>
      </trkpt>
      <trkpt lat="45.64629" lon="6.58537">
        <ele>1668.6</ele>
        <time>2022-03-27T08:10:06.000Z</time>
      </trkpt>
      <trkpt lat="45.64621" lon="6.58528">
        <ele>1668.8</ele>
        <time>2022-03-27T08:10:15.000Z</time>
      </trkpt>
      <trkpt lat="45.64612" lon="6.58521">
        <ele>1669.3</ele>
        <time>2022-03-27T08:10:24.000Z</time>
      </trkpt>
      <trkpt lat="45.64604" lon="6.58514">
        <ele>1669.6</ele>
        <time>2022-03-27T08:10:32.000Z</time>
      </trkpt>
      <trkpt lat="45.64595" lon="6.58508">
        <ele>1670</ele>
        <time>2022-03-27T08:10:41.000Z</time>
      </trkpt>
      <trkpt lat="45.64586" lon="6.58502">
        <ele>1670</ele>
        <time>2022-03-27T08:10:50.000Z</time>
      </trkpt>
      <trkpt lat="45.64577" lon="6.58497">
        <ele>1670.1</ele>
        <time>2022-03-27T08:10:59.000Z</time>
      </trkpt>
      <trkpt lat="45.64568" lon="6.5849">
        <ele>1670.5</ele>
        <time>2022-03-27T08:11:08.000Z</time>
      </trkpt>
      <trkpt lat="45.6456" lon="6.58483">
        <ele>1670.5</ele>
        <time>2022-03-27T08:11:19.000Z</time>
      </trkpt>
      <trkpt lat="45.6455" lon="6.5848">
        <ele>1671.2</ele>
        <time>2022-03-27T08:11:30.000Z</time>
      </trkpt>
      <trkpt lat="45.64541" lon="6.58476">
        <ele>1672.1</ele>
        <time>2022-03-27T08:11:41.000Z</time>
      </trkpt>
      <trkpt lat="45.64533" lon="6.5847">
        <ele>1673</ele>
        <time>2022-03-27T08:11:50.000Z</time>
      </trkpt>
      <trkpt lat="45.64524" lon="6.58465">
        <ele>1673.3</ele>
        <time>2022-03-27T08:11:59.000Z</time>
      </trkpt>
      <trkpt lat="45.64515" lon="6.58463">
        <ele>1673.8</ele>
        <time>2022-03-27T08:12:09.000Z</time>
      </trkpt>
      <trkpt lat="45.64506" lon="6.58463">
        <ele>1674.4</ele>
        <time>2022-03-27T08:12:18.000Z</time>
      </trkpt>
      <trkpt lat="45.64496" lon="6.58464">
        <ele>1674.8</ele>
        <time>2022-03-27T08:12:27.000Z</time>
      </trkpt>
      <trkpt lat="45.64488" lon="6.58467">
        <ele>1675.7</ele>
        <time>2022-03-27T08:12:40.000Z</time>
      </trkpt>
      <trkpt lat="45.64487" lon="6.58467">
        <ele>1676.1</ele>
        <time>2022-03-27T08:12:42.000Z</time>
      </trkpt>
      <trkpt lat="45.64487" lon="6.58467">
        <ele>1676.2</ele>
        <time>2022-03-27T08:12:51.000Z</time>
      </trkpt>
      <trkpt lat="45.64478" lon="6.58472">
        <ele>1676.9</ele>
        <time>2022-03-27T08:13:01.000Z</time>
      </trkpt>
      <trkpt lat="45.64469" lon="6.58476">
        <ele>1678.5</ele>
        <time>2022-03-27T08:13:12.000Z</time>
      </trkpt>
      <trkpt lat="45.64461" lon="6.58482">
        <ele>1679.7</ele>
        <time>2022-03-27T08:13:23.000Z</time>
      </trkpt>
      <trkpt lat="45.64461" lon="6.58495">
        <ele>1681.6</ele>
        <time>2022-03-27T08:13:40.000Z</time>
      </trkpt>
      <trkpt lat="45.6447" lon="6.58497">
        <ele>1683.1</ele>
        <time>2022-03-27T08:13:53.000Z</time>
      </trkpt>
      <trkpt lat="45.64479" lon="6.58498">
        <ele>1684.7</ele>
        <time>2022-03-27T08:14:05.000Z</time>
      </trkpt>
      <trkpt lat="45.64488" lon="6.58502">
        <ele>1686.1</ele>
        <time>2022-03-27T08:14:17.000Z</time>
      </trkpt>
      <trkpt lat="45.64498" lon="6.58506">
        <ele>1687.5</ele>
        <time>2022-03-27T08:14:29.000Z</time>
      </trkpt>
      <trkpt lat="45.64502" lon="6.58509">
        <ele>1687.6</ele>
        <time>2022-03-27T08:14:37.000Z</time>
      </trkpt>
      <trkpt lat="45.64503" lon="6.58509">
        <ele>1688.1</ele>
        <time>2022-03-27T08:14:48.000Z</time>
      </trkpt>
      <trkpt lat="45.64503" lon="6.58509">
        <ele>1688</ele>
        <time>2022-03-27T08:14:49.000Z</time>
      </trkpt>
      <trkpt lat="45.64503" lon="6.58509">
        <ele>1688.2</ele>
        <time>2022-03-27T08:14:56.000Z</time>
      </trkpt>
      <trkpt lat="45.64509" lon="6.5852">
        <ele>1689.8</ele>
        <time>2022-03-27T08:15:08.000Z</time>
      </trkpt>
      <trkpt lat="45.64516" lon="6.58529">
        <ele>1691.4</ele>
        <time>2022-03-27T08:15:21.000Z</time>
      </trkpt>
      <trkpt lat="45.64521" lon="6.5854">
        <ele>1693.8</ele>
        <time>2022-03-27T08:15:37.000Z</time>
      </trkpt>
      <trkpt lat="45.64527" lon="6.58552">
        <ele>1695.7</ele>
        <time>2022-03-27T08:15:51.000Z</time>
      </trkpt>
      <trkpt lat="45.64532" lon="6.58562">
        <ele>1697.8</ele>
        <time>2022-03-27T08:16:06.000Z</time>
      </trkpt>
      <trkpt lat="45.64535" lon="6.58575">
        <ele>1699.8</ele>
        <time>2022-03-27T08:16:21.000Z</time>
      </trkpt>
      <trkpt lat="45.64536" lon="6.58589">
        <ele>1701.2</ele>
        <time>2022-03-27T08:16:33.000Z</time>
      </trkpt>
      <trkpt lat="45.64537" lon="6.58602">
        <ele>1701.8</ele>
        <time>2022-03-27T08:16:44.000Z</time>
      </trkpt>
      <trkpt lat="45.6454" lon="6.58616">
        <ele>1702.4</ele>
        <time>2022-03-27T08:16:56.000Z</time>
      </trkpt>
      <trkpt lat="45.64542" lon="6.58629">
        <ele>1704</ele>
        <time>2022-03-27T08:17:10.000Z</time>
      </trkpt>
      <trkpt lat="45.64542" lon="6.58642">
        <ele>1706.2</ele>
        <time>2022-03-27T08:17:25.000Z</time>
      </trkpt>
      <trkpt lat="45.64534" lon="6.5865">
        <ele>1708</ele>
        <time>2022-03-27T08:17:40.000Z</time>
      </trkpt>
      <trkpt lat="45.64528" lon="6.58659">
        <ele>1710.5</ele>
        <time>2022-03-27T08:17:55.000Z</time>
      </trkpt>
      <trkpt lat="45.64533" lon="6.5867">
        <ele>1712.6</ele>
        <time>2022-03-27T08:18:08.000Z</time>
      </trkpt>
      <trkpt lat="45.64538" lon="6.58682">
        <ele>1714.4</ele>
        <time>2022-03-27T08:18:22.000Z</time>
      </trkpt>
      <trkpt lat="45.64546" lon="6.58689">
        <ele>1716.4</ele>
        <time>2022-03-27T08:18:39.000Z</time>
      </trkpt>
      <trkpt lat="45.64555" lon="6.58693">
        <ele>1719.1</ele>
        <time>2022-03-27T08:18:57.000Z</time>
      </trkpt>
      <trkpt lat="45.64564" lon="6.58696">
        <ele>1721.1</ele>
        <time>2022-03-27T08:19:12.000Z</time>
      </trkpt>
      <trkpt lat="45.64572" lon="6.58703">
        <ele>1723.1</ele>
        <time>2022-03-27T08:19:25.000Z</time>
      </trkpt>
      <trkpt lat="45.64579" lon="6.58712">
        <ele>1724.5</ele>
        <time>2022-03-27T08:19:41.000Z</time>
      </trkpt>
      <trkpt lat="45.64584" lon="6.58723">
        <ele>1726.5</ele>
        <time>2022-03-27T08:19:55.000Z</time>
      </trkpt>
      <trkpt lat="45.64593" lon="6.58726">
        <ele>1729.4</ele>
        <time>2022-03-27T08:20:10.000Z</time>
      </trkpt>
      <trkpt lat="45.64602" lon="6.58732">
        <ele>1731.7</ele>
        <time>2022-03-27T08:20:27.000Z</time>
      </trkpt>
      <trkpt lat="45.64609" lon="6.58741">
        <ele>1734.3</ele>
        <time>2022-03-27T08:20:45.000Z</time>
      </trkpt>
      <trkpt lat="45.64613" lon="6.58746">
        <ele>1736.7</ele>
        <time>2022-03-27T08:20:59.000Z</time>
      </trkpt>
      <trkpt lat="45.64614" lon="6.58746">
        <ele>1736.6</ele>
        <time>2022-03-27T08:21:01.000Z</time>
      </trkpt>
      <trkpt lat="45.64613" lon="6.58746">
        <ele>1737.1</ele>
        <time>2022-03-27T08:21:04.000Z</time>
      </trkpt>
      <trkpt lat="45.64613" lon="6.58746">
        <ele>1737.4</ele>
        <time>2022-03-27T08:21:05.000Z</time>
      </trkpt>
      <trkpt lat="45.64609" lon="6.58748">
        <ele>1738.4</ele>
        <time>2022-03-27T08:21:12.000Z</time>
      </trkpt>
      <trkpt lat="45.64609" lon="6.58748">
        <ele>1738.3</ele>
        <time>2022-03-27T08:21:27.000Z</time>
      </trkpt>
      <trkpt lat="45.64609" lon="6.58761">
        <ele>1741.2</ele>
        <time>2022-03-27T08:21:50.000Z</time>
      </trkpt>
      <trkpt lat="45.64616" lon="6.58769">
        <ele>1743.3</ele>
        <time>2022-03-27T08:22:04.000Z</time>
      </trkpt>
      <trkpt lat="45.64616" lon="6.5877">
        <ele>1744.4</ele>
        <time>2022-03-27T08:22:08.000Z</time>
      </trkpt>
      <trkpt lat="45.64616" lon="6.58771">
        <ele>1745</ele>
        <time>2022-03-27T08:22:17.000Z</time>
      </trkpt>
      <trkpt lat="45.64615" lon="6.58771">
        <ele>1745.2</ele>
        <time>2022-03-27T08:22:20.000Z</time>
      </trkpt>
      <trkpt lat="45.64615" lon="6.58772">
        <ele>1745.2</ele>
        <time>2022-03-27T08:22:22.000Z</time>
      </trkpt>
      <trkpt lat="45.64614" lon="6.58784">
        <ele>1750</ele>
        <time>2022-03-27T08:22:42.000Z</time>
      </trkpt>
      <trkpt lat="45.64608" lon="6.58795">
        <ele>1751.5</ele>
        <time>2022-03-27T08:22:57.000Z</time>
      </trkpt>
      <trkpt lat="45.64601" lon="6.58804">
        <ele>1752.3</ele>
        <time>2022-03-27T08:23:13.000Z</time>
      </trkpt>
      <trkpt lat="45.64608" lon="6.58812">
        <ele>1755.7</ele>
        <time>2022-03-27T08:23:33.000Z</time>
      </trkpt>
      <trkpt lat="45.64616" lon="6.58818">
        <ele>1758.2</ele>
        <time>2022-03-27T08:23:49.000Z</time>
      </trkpt>
      <trkpt lat="45.6461" lon="6.58828">
        <ele>1760.8</ele>
        <time>2022-03-27T08:24:08.000Z</time>
      </trkpt>
      <trkpt lat="45.64617" lon="6.58837">
        <ele>1762.2</ele>
        <time>2022-03-27T08:24:24.000Z</time>
      </trkpt>
      <trkpt lat="45.64611" lon="6.58848">
        <ele>1764.9</ele>
        <time>2022-03-27T08:24:40.000Z</time>
      </trkpt>
      <trkpt lat="45.64604" lon="6.58856">
        <ele>1767.3</ele>
        <time>2022-03-27T08:24:58.000Z</time>
      </trkpt>
      <trkpt lat="45.64604" lon="6.58865">
        <ele>1769.3</ele>
        <time>2022-03-27T08:25:15.000Z</time>
      </trkpt>
      <trkpt lat="45.64604" lon="6.58866">
        <ele>1769.3</ele>
        <time>2022-03-27T08:25:18.000Z</time>
      </trkpt>
      <trkpt lat="45.64613" lon="6.5887">
        <ele>1771.7</ele>
        <time>2022-03-27T08:25:34.000Z</time>
      </trkpt>
      <trkpt lat="45.64616" lon="6.58871">
        <ele>1772.8</ele>
        <time>2022-03-27T08:25:42.000Z</time>
      </trkpt>
      <trkpt lat="45.64616" lon="6.58871">
        <ele>1773</ele>
        <time>2022-03-27T08:25:44.000Z</time>
      </trkpt>
      <trkpt lat="45.64616" lon="6.58871">
        <ele>1773.1</ele>
        <time>2022-03-27T08:25:45.000Z</time>
      </trkpt>
      <trkpt lat="45.64617" lon="6.58871">
        <ele>1773.2</ele>
        <time>2022-03-27T08:25:46.000Z</time>
      </trkpt>
      <trkpt lat="45.64617" lon="6.58873">
        <ele>1773.2</ele>
        <time>2022-03-27T08:25:50.000Z</time>
      </trkpt>
      <trkpt lat="45.64617" lon="6.58873">
        <ele>1773.5</ele>
        <time>2022-03-27T08:25:51.000Z</time>
      </trkpt>
      <trkpt lat="45.64613" lon="6.58876">
        <ele>1774.9</ele>
        <time>2022-03-27T08:26:03.000Z</time>
      </trkpt>
      <trkpt lat="45.64612" lon="6.58877">
        <ele>1774.7</ele>
        <time>2022-03-27T08:26:05.000Z</time>
      </trkpt>
      <trkpt lat="45.6462" lon="6.58885">
        <ele>1778.5</ele>
        <time>2022-03-27T08:26:31.000Z</time>
      </trkpt>
      <trkpt lat="45.6462" lon="6.58898">
        <ele>1781.7</ele>
        <time>2022-03-27T08:26:50.000Z</time>
      </trkpt>
      <trkpt lat="45.64612" lon="6.58904">
        <ele>1784.3</ele>
        <time>2022-03-27T08:27:06.000Z</time>
      </trkpt>
      <trkpt lat="45.64617" lon="6.58916">
        <ele>1786.3</ele>
        <time>2022-03-27T08:27:25.000Z</time>
      </trkpt>
      <trkpt lat="45.64621" lon="6.58918">
        <ele>1788.1</ele>
        <time>2022-03-27T08:27:34.000Z</time>
      </trkpt>
      <trkpt lat="45.64621" lon="6.58918">
        <ele>1787.7</ele>
        <time>2022-03-27T08:27:44.000Z</time>
      </trkpt>
      <trkpt lat="45.64621" lon="6.58918">
        <ele>1787.8</ele>
        <time>2022-03-27T08:27:45.000Z</time>
      </trkpt>
      <trkpt lat="45.64622" lon="6.58918">
        <ele>1787.9</ele>
        <time>2022-03-27T08:27:46.000Z</time>
      </trkpt>
      <trkpt lat="45.64631" lon="6.58921">
        <ele>1791</ele>
        <time>2022-03-27T08:28:01.000Z</time>
      </trkpt>
      <trkpt lat="45.6463" lon="6.58934">
        <ele>1794.3</ele>
        <time>2022-03-27T08:28:21.000Z</time>
      </trkpt>
      <trkpt lat="45.64626" lon="6.58945">
        <ele>1796</ele>
        <time>2022-03-27T08:28:40.000Z</time>
      </trkpt>
      <trkpt lat="45.64631" lon="6.58956">
        <ele>1798</ele>
        <time>2022-03-27T08:28:55.000Z</time>
      </trkpt>
      <trkpt lat="45.64629" lon="6.58965">
        <ele>1800.5</ele>
        <time>2022-03-27T08:29:08.000Z</time>
      </trkpt>
      <trkpt lat="45.64629" lon="6.58965">
        <ele>1800.1</ele>
        <time>2022-03-27T08:29:15.000Z</time>
      </trkpt>
      <trkpt lat="45.64632" lon="6.58978">
        <ele>1802.1</ele>
        <time>2022-03-27T08:29:29.000Z</time>
      </trkpt>
      <trkpt lat="45.64638" lon="6.58988">
        <ele>1803.4</ele>
        <time>2022-03-27T08:29:42.000Z</time>
      </trkpt>
      <trkpt lat="45.6464" lon="6.59001">
        <ele>1806.4</ele>
        <time>2022-03-27T08:30:02.000Z</time>
      </trkpt>
      <trkpt lat="45.64634" lon="6.59012">
        <ele>1807.9</ele>
        <time>2022-03-27T08:30:18.000Z</time>
      </trkpt>
      <trkpt lat="45.64634" lon="6.59012">
        <ele>1808</ele>
        <time>2022-03-27T08:30:19.000Z</time>
      </trkpt>
      <trkpt lat="45.64635" lon="6.59012">
        <ele>1808.4</ele>
        <time>2022-03-27T08:30:24.000Z</time>
      </trkpt>
      <trkpt lat="45.64641" lon="6.59021">
        <ele>1810.5</ele>
        <time>2022-03-27T08:30:40.000Z</time>
      </trkpt>
      <trkpt lat="45.64648" lon="6.59029">
        <ele>1812</ele>
        <time>2022-03-27T08:30:55.000Z</time>
      </trkpt>
      <trkpt lat="45.64655" lon="6.59039">
        <ele>1813.6</ele>
        <time>2022-03-27T08:31:11.000Z</time>
      </trkpt>
      <trkpt lat="45.6466" lon="6.5905">
        <ele>1815.5</ele>
        <time>2022-03-27T08:31:25.000Z</time>
      </trkpt>
      <trkpt lat="45.64664" lon="6.59062">
        <ele>1817.4</ele>
        <time>2022-03-27T08:31:39.000Z</time>
      </trkpt>
      <trkpt lat="45.64656" lon="6.59067">
        <ele>1821.1</ele>
        <time>2022-03-27T08:31:58.000Z</time>
      </trkpt>
      <trkpt lat="45.64655" lon="6.59067">
        <ele>1821.3</ele>
        <time>2022-03-27T08:32:00.000Z</time>
      </trkpt>
      <trkpt lat="45.64655" lon="6.59067">
        <ele>1821</ele>
        <time>2022-03-27T08:32:06.000Z</time>
      </trkpt>
      <trkpt lat="45.64655" lon="6.59067">
        <ele>1819.1</ele>
        <time>2022-03-27T08:32:10.000Z</time>
      </trkpt>
      <trkpt lat="45.64655" lon="6.59068">
        <ele>1819.9</ele>
        <time>2022-03-27T08:32:11.000Z</time>
      </trkpt>
      <trkpt lat="45.64655" lon="6.59068">
        <ele>1820.3</ele>
        <time>2022-03-27T08:32:12.000Z</time>
      </trkpt>
      <trkpt lat="45.64656" lon="6.59068">
        <ele>1820.1</ele>
        <time>2022-03-27T08:32:13.000Z</time>
      </trkpt>
      <trkpt lat="45.64656" lon="6.59068">
        <ele>1819.8</ele>
        <time>2022-03-27T08:32:14.000Z</time>
      </trkpt>
      <trkpt lat="45.64655" lon="6.59068">
        <ele>1819.7</ele>
        <time>2022-03-27T08:32:37.000Z</time>
      </trkpt>
      <trkpt lat="45.64655" lon="6.59067">
        <ele>1819.9</ele>
        <time>2022-03-27T08:32:39.000Z</time>
      </trkpt>
      <trkpt lat="45.64655" lon="6.59067">
        <ele>1820</ele>
        <time>2022-03-27T08:32:40.000Z</time>
      </trkpt>
      <trkpt lat="45.64655" lon="6.59067">
        <ele>1820.1</ele>
        <time>2022-03-27T08:32:43.000Z</time>
      </trkpt>
      <trkpt lat="45.64655" lon="6.59068">
        <ele>1819.2</ele>
        <time>2022-03-27T08:32:55.000Z</time>
      </trkpt>
      <trkpt lat="45.64654" lon="6.59068">
        <ele>1818.7</ele>
        <time>2022-03-27T08:32:57.000Z</time>
      </trkpt>
      <trkpt lat="45.64654" lon="6.59068">
        <ele>1819.7</ele>
        <time>2022-03-27T08:34:12.000Z</time>
      </trkpt>
      <trkpt lat="45.64654" lon="6.59069">
        <ele>1820.5</ele>
        <time>2022-03-27T08:34:15.000Z</time>
      </trkpt>
      <trkpt lat="45.64654" lon="6.59069">
        <ele>1820.5</ele>
        <time>2022-03-27T08:34:16.000Z</time>
      </trkpt>
      <trkpt lat="45.64654" lon="6.59069">
        <ele>1820.5</ele>
        <time>2022-03-27T08:34:17.000Z</time>
      </trkpt>
      <trkpt lat="45.64655" lon="6.59069">
        <ele>1820.7</ele>
        <time>2022-03-27T08:34:19.000Z</time>
      </trkpt>
      <trkpt lat="45.64655" lon="6.59069">
        <ele>1820.7</ele>
        <time>2022-03-27T08:34:20.000Z</time>
      </trkpt>
      <trkpt lat="45.64655" lon="6.59068">
        <ele>1820.7</ele>
        <time>2022-03-27T08:34:30.000Z</time>
      </trkpt>
      <trkpt lat="45.64656" lon="6.59067">
        <ele>1820.4</ele>
        <time>2022-03-27T08:34:34.000Z</time>
      </trkpt>
      <trkpt lat="45.64656" lon="6.59067">
        <ele>1820.5</ele>
        <time>2022-03-27T08:34:35.000Z</time>
      </trkpt>
      <trkpt lat="45.64656" lon="6.59066">
        <ele>1820.8</ele>
        <time>2022-03-27T08:34:36.000Z</time>
      </trkpt>
      <trkpt lat="45.64656" lon="6.59066">
        <ele>1820.6</ele>
        <time>2022-03-27T08:35:33.000Z</time>
      </trkpt>
      <trkpt lat="45.64656" lon="6.59066">
        <ele>1820.8</ele>
        <time>2022-03-27T08:35:34.000Z</time>
      </trkpt>
      <trkpt lat="45.64656" lon="6.59066">
        <ele>1820.9</ele>
        <time>2022-03-27T08:35:56.000Z</time>
      </trkpt>
      <trkpt lat="45.64656" lon="6.59066">
        <ele>1820.9</ele>
        <time>2022-03-27T08:35:57.000Z</time>
      </trkpt>
      <trkpt lat="45.64656" lon="6.59067">
        <ele>1821</ele>
        <time>2022-03-27T08:35:58.000Z</time>
      </trkpt>
      <trkpt lat="45.64647" lon="6.59072">
        <ele>1822.6</ele>
        <time>2022-03-27T08:36:11.000Z</time>
      </trkpt>
      <trkpt lat="45.64639" lon="6.59079">
        <ele>1825.7</ele>
        <time>2022-03-27T08:36:24.000Z</time>
      </trkpt>
      <trkpt lat="45.64645" lon="6.59089">
        <ele>1827.8</ele>
        <time>2022-03-27T08:36:38.000Z</time>
      </trkpt>
      <trkpt lat="45.64647" lon="6.59091">
        <ele>1828.5</ele>
        <time>2022-03-27T08:36:42.000Z</time>
      </trkpt>
      <trkpt lat="45.64647" lon="6.59091">
        <ele>1828.5</ele>
        <time>2022-03-27T08:36:43.000Z</time>
      </trkpt>
      <trkpt lat="45.64652" lon="6.59102">
        <ele>1831.4</ele>
        <time>2022-03-27T08:37:00.000Z</time>
      </trkpt>
      <trkpt lat="45.64658" lon="6.59113">
        <ele>1833.5</ele>
        <time>2022-03-27T08:37:16.000Z</time>
      </trkpt>
      <trkpt lat="45.6465" lon="6.59119">
        <ele>1836.5</ele>
        <time>2022-03-27T08:37:35.000Z</time>
      </trkpt>
      <trkpt lat="45.64641" lon="6.59124">
        <ele>1838.5</ele>
        <time>2022-03-27T08:37:51.000Z</time>
      </trkpt>
      <trkpt lat="45.64641" lon="6.59137">
        <ele>1843.9</ele>
        <time>2022-03-27T08:38:25.000Z</time>
      </trkpt>
      <trkpt lat="45.64639" lon="6.59148">
        <ele>1848.5</ele>
        <time>2022-03-27T08:38:57.000Z</time>
      </trkpt>
      <trkpt lat="45.64639" lon="6.59148">
        <ele>1848.7</ele>
        <time>2022-03-27T08:38:58.000Z</time>
      </trkpt>
      <trkpt lat="45.6464" lon="6.5915">
        <ele>1848.7</ele>
        <time>2022-03-27T08:39:04.000Z</time>
      </trkpt>
      <trkpt lat="45.6464" lon="6.5915">
        <ele>1848.6</ele>
        <time>2022-03-27T08:39:05.000Z</time>
      </trkpt>
      <trkpt lat="45.64646" lon="6.5916">
        <ele>1850.8</ele>
        <time>2022-03-27T08:39:21.000Z</time>
      </trkpt>
      <trkpt lat="45.64643" lon="6.59173">
        <ele>1854.1</ele>
        <time>2022-03-27T08:39:45.000Z</time>
      </trkpt>
      <trkpt lat="45.64644" lon="6.59179">
        <ele>1855.6</ele>
        <time>2022-03-27T08:39:54.000Z</time>
      </trkpt>
      <trkpt lat="45.64644" lon="6.59179">
        <ele>1856.2</ele>
        <time>2022-03-27T08:40:13.000Z</time>
      </trkpt>
      <trkpt lat="45.64646" lon="6.59184">
        <ele>1857.4</ele>
        <time>2022-03-27T08:40:20.000Z</time>
      </trkpt>
      <trkpt lat="45.64645" lon="6.59184">
        <ele>1857.6</ele>
        <time>2022-03-27T08:40:24.000Z</time>
      </trkpt>
      <trkpt lat="45.64645" lon="6.59184">
        <ele>1857.2</ele>
        <time>2022-03-27T08:40:26.000Z</time>
      </trkpt>
      <trkpt lat="45.64644" lon="6.59184">
        <ele>1857.2</ele>
        <time>2022-03-27T08:40:27.000Z</time>
      </trkpt>
      <trkpt lat="45.64643" lon="6.59183">
        <ele>1857.5</ele>
        <time>2022-03-27T08:40:32.000Z</time>
      </trkpt>
      <trkpt lat="45.64643" lon="6.59183">
        <ele>1857.7</ele>
        <time>2022-03-27T08:40:33.000Z</time>
      </trkpt>
      <trkpt lat="45.64643" lon="6.59183">
        <ele>1857.9</ele>
        <time>2022-03-27T08:40:34.000Z</time>
      </trkpt>
      <trkpt lat="45.64643" lon="6.59184">
        <ele>1857.4</ele>
        <time>2022-03-27T08:40:42.000Z</time>
      </trkpt>
      <trkpt lat="45.64645" lon="6.59185">
        <ele>1857</ele>
        <time>2022-03-27T08:40:49.000Z</time>
      </trkpt>
      <trkpt lat="45.64644" lon="6.59185">
        <ele>1857.1</ele>
        <time>2022-03-27T08:41:22.000Z</time>
      </trkpt>
      <trkpt lat="45.64644" lon="6.59186">
        <ele>1856.4</ele>
        <time>2022-03-27T08:41:24.000Z</time>
      </trkpt>
      <trkpt lat="45.64644" lon="6.59185">
        <ele>1856.4</ele>
        <time>2022-03-27T08:41:25.000Z</time>
      </trkpt>
      <trkpt lat="45.64644" lon="6.59185">
        <ele>1856.9</ele>
        <time>2022-03-27T08:41:26.000Z</time>
      </trkpt>
      <trkpt lat="45.64645" lon="6.59185">
        <ele>1856.7</ele>
        <time>2022-03-27T08:41:33.000Z</time>
      </trkpt>
      <trkpt lat="45.64645" lon="6.59185">
        <ele>1856.9</ele>
        <time>2022-03-27T08:41:34.000Z</time>
      </trkpt>
      <trkpt lat="45.64645" lon="6.59186">
        <ele>1857.1</ele>
        <time>2022-03-27T08:41:40.000Z</time>
      </trkpt>
      <trkpt lat="45.64645" lon="6.59186">
        <ele>1857.4</ele>
        <time>2022-03-27T08:41:41.000Z</time>
      </trkpt>
      <trkpt lat="45.64645" lon="6.59186">
        <ele>1856.8</ele>
        <time>2022-03-27T08:42:50.000Z</time>
      </trkpt>
      <trkpt lat="45.64645" lon="6.59186">
        <ele>1856.7</ele>
        <time>2022-03-27T08:42:51.000Z</time>
      </trkpt>
      <trkpt lat="45.64644" lon="6.59185">
        <ele>1856.5</ele>
        <time>2022-03-27T08:43:06.000Z</time>
      </trkpt>
      <trkpt lat="45.64644" lon="6.59185">
        <ele>1856.8</ele>
        <time>2022-03-27T08:43:07.000Z</time>
      </trkpt>
      <trkpt lat="45.64645" lon="6.59185">
        <ele>1857.1</ele>
        <time>2022-03-27T08:43:08.000Z</time>
      </trkpt>
      <trkpt lat="45.64645" lon="6.59184">
        <ele>1857.6</ele>
        <time>2022-03-27T08:43:10.000Z</time>
      </trkpt>
      <trkpt lat="45.64645" lon="6.59184">
        <ele>1858</ele>
        <time>2022-03-27T08:43:12.000Z</time>
      </trkpt>
      <trkpt lat="45.64645" lon="6.59184">
        <ele>1858</ele>
        <time>2022-03-27T08:43:13.000Z</time>
      </trkpt>
      <trkpt lat="45.64645" lon="6.59184">
        <ele>1857.9</ele>
        <time>2022-03-27T08:43:27.000Z</time>
      </trkpt>
      <trkpt lat="45.64646" lon="6.59183">
        <ele>1857.9</ele>
        <time>2022-03-27T08:43:30.000Z</time>
      </trkpt>
      <trkpt lat="45.64646" lon="6.59183">
        <ele>1857.7</ele>
        <time>2022-03-27T08:43:43.000Z</time>
      </trkpt>
      <trkpt lat="45.64646" lon="6.59183">
        <ele>1857.6</ele>
        <time>2022-03-27T08:43:44.000Z</time>
      </trkpt>
      <trkpt lat="45.64646" lon="6.59183">
        <ele>1857.7</ele>
        <time>2022-03-27T08:43:45.000Z</time>
      </trkpt>
      <trkpt lat="45.64646" lon="6.59183">
        <ele>1857.8</ele>
        <time>2022-03-27T08:43:46.000Z</time>
      </trkpt>
      <trkpt lat="45.64646" lon="6.59184">
        <ele>1858</ele>
        <time>2022-03-27T08:43:47.000Z</time>
      </trkpt>
      <trkpt lat="45.64646" lon="6.59184">
        <ele>1858</ele>
        <time>2022-03-27T08:43:48.000Z</time>
      </trkpt>
      <trkpt lat="45.64646" lon="6.59184">
        <ele>1858.1</ele>
        <time>2022-03-27T08:44:17.000Z</time>
      </trkpt>
      <trkpt lat="45.64646" lon="6.59184">
        <ele>1858.1</ele>
        <time>2022-03-27T08:44:18.000Z</time>
      </trkpt>
      <trkpt lat="45.64645" lon="6.59183">
        <ele>1858.5</ele>
        <time>2022-03-27T08:44:26.000Z</time>
      </trkpt>
      <trkpt lat="45.64638" lon="6.59191">
        <ele>1861</ele>
        <time>2022-03-27T08:44:48.000Z</time>
      </trkpt>
      <trkpt lat="45.64641" lon="6.59199">
        <ele>1863.7</ele>
        <time>2022-03-27T08:45:02.000Z</time>
      </trkpt>
      <trkpt lat="45.64641" lon="6.59199">
        <ele>1863.9</ele>
        <time>2022-03-27T08:45:03.000Z</time>
      </trkpt>
      <trkpt lat="45.64643" lon="6.59202">
        <ele>1864.7</ele>
        <time>2022-03-27T08:45:10.000Z</time>
      </trkpt>
      <trkpt lat="45.64643" lon="6.59203">
        <ele>1864.7</ele>
        <time>2022-03-27T08:45:12.000Z</time>
      </trkpt>
      <trkpt lat="45.64644" lon="6.59211">
        <ele>1867.3</ele>
        <time>2022-03-27T08:45:27.000Z</time>
      </trkpt>
      <trkpt lat="45.64644" lon="6.59211">
        <ele>1867.5</ele>
        <time>2022-03-27T08:45:29.000Z</time>
      </trkpt>
      <trkpt lat="45.6464" lon="6.59223">
        <ele>1870.8</ele>
        <time>2022-03-27T08:45:53.000Z</time>
      </trkpt>
      <trkpt lat="45.64643" lon="6.59234">
        <ele>1873.1</ele>
        <time>2022-03-27T08:46:11.000Z</time>
      </trkpt>
      <trkpt lat="45.64643" lon="6.59235">
        <ele>1873.3</ele>
        <time>2022-03-27T08:46:12.000Z</time>
      </trkpt>
      <trkpt lat="45.64646" lon="6.59247">
        <ele>1876.3</ele>
        <time>2022-03-27T08:46:36.000Z</time>
      </trkpt>
      <trkpt lat="45.64637" lon="6.5925">
        <ele>1880.7</ele>
        <time>2022-03-27T08:47:07.000Z</time>
      </trkpt>
      <trkpt lat="45.64628" lon="6.59246">
        <ele>1883</ele>
        <time>2022-03-27T08:47:27.000Z</time>
      </trkpt>
      <trkpt lat="45.6462" lon="6.59239">
        <ele>1884.9</ele>
        <time>2022-03-27T08:47:44.000Z</time>
      </trkpt>
      <trkpt lat="45.64612" lon="6.59231">
        <ele>1886.4</ele>
        <time>2022-03-27T08:47:59.000Z</time>
      </trkpt>
      <trkpt lat="45.64603" lon="6.59227">
        <ele>1888.1</ele>
        <time>2022-03-27T08:48:16.000Z</time>
      </trkpt>
      <trkpt lat="45.64604" lon="6.5924">
        <ele>1892.3</ele>
        <time>2022-03-27T08:48:38.000Z</time>
      </trkpt>
      <trkpt lat="45.64607" lon="6.59253">
        <ele>1893.4</ele>
        <time>2022-03-27T08:48:52.000Z</time>
      </trkpt>
      <trkpt lat="45.6461" lon="6.59265">
        <ele>1896</ele>
        <time>2022-03-27T08:49:09.000Z</time>
      </trkpt>
      <trkpt lat="45.64615" lon="6.59276">
        <ele>1898</ele>
        <time>2022-03-27T08:49:25.000Z</time>
      </trkpt>
      <trkpt lat="45.64612" lon="6.59281">
        <ele>1900</ele>
        <time>2022-03-27T08:49:39.000Z</time>
      </trkpt>
      <trkpt lat="45.64612" lon="6.59281">
        <ele>1900.1</ele>
        <time>2022-03-27T08:49:44.000Z</time>
      </trkpt>
      <trkpt lat="45.64613" lon="6.59295">
        <ele>1902.7</ele>
        <time>2022-03-27T08:50:04.000Z</time>
      </trkpt>
      <trkpt lat="45.64604" lon="6.59292">
        <ele>1906.1</ele>
        <time>2022-03-27T08:50:21.000Z</time>
      </trkpt>
      <trkpt lat="45.64595" lon="6.59288">
        <ele>1908.6</ele>
        <time>2022-03-27T08:50:41.000Z</time>
      </trkpt>
      <trkpt lat="45.64588" lon="6.5928">
        <ele>1910.5</ele>
        <time>2022-03-27T08:50:56.000Z</time>
      </trkpt>
      <trkpt lat="45.64581" lon="6.59271">
        <ele>1912.4</ele>
        <time>2022-03-27T08:51:11.000Z</time>
      </trkpt>
      <trkpt lat="45.64578" lon="6.59267">
        <ele>1913.1</ele>
        <time>2022-03-27T08:51:19.000Z</time>
      </trkpt>
      <trkpt lat="45.64578" lon="6.59267">
        <ele>1913</ele>
        <time>2022-03-27T08:51:21.000Z</time>
      </trkpt>
      <trkpt lat="45.64569" lon="6.59261">
        <ele>1916.4</ele>
        <time>2022-03-27T08:51:38.000Z</time>
      </trkpt>
      <trkpt lat="45.6456" lon="6.59256">
        <ele>1918.5</ele>
        <time>2022-03-27T08:51:54.000Z</time>
      </trkpt>
      <trkpt lat="45.64558" lon="6.59253">
        <ele>1919.3</ele>
        <time>2022-03-27T08:52:01.000Z</time>
      </trkpt>
      <trkpt lat="45.64557" lon="6.59253">
        <ele>1919.6</ele>
        <time>2022-03-27T08:52:03.000Z</time>
      </trkpt>
      <trkpt lat="45.64548" lon="6.5925">
        <ele>1921.7</ele>
        <time>2022-03-27T08:52:21.000Z</time>
      </trkpt>
      <trkpt lat="45.64541" lon="6.59242">
        <ele>1924.8</ele>
        <time>2022-03-27T08:52:38.000Z</time>
      </trkpt>
      <trkpt lat="45.64531" lon="6.59239">
        <ele>1927.1</ele>
        <time>2022-03-27T08:52:56.000Z</time>
      </trkpt>
      <trkpt lat="45.64522" lon="6.59235">
        <ele>1929.1</ele>
        <time>2022-03-27T08:53:11.000Z</time>
      </trkpt>
      <trkpt lat="45.64513" lon="6.59231">
        <ele>1931</ele>
        <time>2022-03-27T08:53:31.000Z</time>
      </trkpt>
      <trkpt lat="45.64504" lon="6.59231">
        <ele>1935</ele>
        <time>2022-03-27T08:53:52.000Z</time>
      </trkpt>
      <trkpt lat="45.64495" lon="6.5923">
        <ele>1937.5</ele>
        <time>2022-03-27T08:54:08.000Z</time>
      </trkpt>
      <trkpt lat="45.64486" lon="6.59231">
        <ele>1940</ele>
        <time>2022-03-27T08:54:27.000Z</time>
      </trkpt>
      <trkpt lat="45.64477" lon="6.59234">
        <ele>1942</ele>
        <time>2022-03-27T08:54:43.000Z</time>
      </trkpt>
      <trkpt lat="45.64468" lon="6.59239">
        <ele>1944.6</ele>
        <time>2022-03-27T08:55:00.000Z</time>
      </trkpt>
      <trkpt lat="45.6446" lon="6.59244">
        <ele>1947.3</ele>
        <time>2022-03-27T08:55:17.000Z</time>
      </trkpt>
      <trkpt lat="45.64451" lon="6.59248">
        <ele>1949.7</ele>
        <time>2022-03-27T08:55:35.000Z</time>
      </trkpt>
      <trkpt lat="45.64443" lon="6.59255">
        <ele>1952.5</ele>
        <time>2022-03-27T08:55:52.000Z</time>
      </trkpt>
      <trkpt lat="45.64434" lon="6.5926">
        <ele>1954.6</ele>
        <time>2022-03-27T08:56:09.000Z</time>
      </trkpt>
      <trkpt lat="45.64426" lon="6.59266">
        <ele>1956.3</ele>
        <time>2022-03-27T08:56:26.000Z</time>
      </trkpt>
      <trkpt lat="45.64418" lon="6.59272">
        <ele>1958.4</ele>
        <time>2022-03-27T08:56:42.000Z</time>
      </trkpt>
      <trkpt lat="45.6441" lon="6.59279">
        <ele>1960.2</ele>
        <time>2022-03-27T08:56:57.000Z</time>
      </trkpt>
      <trkpt lat="45.64402" lon="6.59286">
        <ele>1962.2</ele>
        <time>2022-03-27T08:57:12.000Z</time>
      </trkpt>
      <trkpt lat="45.64402" lon="6.59287">
        <ele>1962.5</ele>
        <time>2022-03-27T08:57:15.000Z</time>
      </trkpt>
      <trkpt lat="45.64401" lon="6.59287">
        <ele>1962.7</ele>
        <time>2022-03-27T08:57:17.000Z</time>
      </trkpt>
      <trkpt lat="45.64395" lon="6.59297">
        <ele>1964.8</ele>
        <time>2022-03-27T08:57:31.000Z</time>
      </trkpt>
      <trkpt lat="45.6439" lon="6.59309">
        <ele>1966.8</ele>
        <time>2022-03-27T08:57:46.000Z</time>
      </trkpt>
      <trkpt lat="45.6439" lon="6.59322">
        <ele>1969.7</ele>
        <time>2022-03-27T08:58:04.000Z</time>
      </trkpt>
      <trkpt lat="45.64392" lon="6.59323">
        <ele>1970.7</ele>
        <time>2022-03-27T08:58:09.000Z</time>
      </trkpt>
      <trkpt lat="45.64392" lon="6.59323">
        <ele>1970.1</ele>
        <time>2022-03-27T08:58:18.000Z</time>
      </trkpt>
      <trkpt lat="45.64393" lon="6.59324">
        <ele>1969.7</ele>
        <time>2022-03-27T08:58:21.000Z</time>
      </trkpt>
      <trkpt lat="45.64393" lon="6.59324">
        <ele>1969.4</ele>
        <time>2022-03-27T08:58:38.000Z</time>
      </trkpt>
      <trkpt lat="45.64393" lon="6.59324">
        <ele>1969.5</ele>
        <time>2022-03-27T08:58:39.000Z</time>
      </trkpt>
      <trkpt lat="45.64393" lon="6.59324">
        <ele>1969.7</ele>
        <time>2022-03-27T08:58:51.000Z</time>
      </trkpt>
      <trkpt lat="45.64392" lon="6.59323">
        <ele>1970.8</ele>
        <time>2022-03-27T08:58:56.000Z</time>
      </trkpt>
      <trkpt lat="45.64392" lon="6.59323">
        <ele>1970.5</ele>
        <time>2022-03-27T08:59:05.000Z</time>
      </trkpt>
      <trkpt lat="45.64392" lon="6.59323">
        <ele>1970.4</ele>
        <time>2022-03-27T08:59:06.000Z</time>
      </trkpt>
      <trkpt lat="45.64391" lon="6.59323">
        <ele>1970.6</ele>
        <time>2022-03-27T08:59:13.000Z</time>
      </trkpt>
      <trkpt lat="45.64399" lon="6.5933">
        <ele>1973.6</ele>
        <time>2022-03-27T08:59:28.000Z</time>
      </trkpt>
      <trkpt lat="45.64406" lon="6.5934">
        <ele>1976.1</ele>
        <time>2022-03-27T08:59:42.000Z</time>
      </trkpt>
      <trkpt lat="45.64413" lon="6.59349">
        <ele>1979.5</ele>
        <time>2022-03-27T08:59:58.000Z</time>
      </trkpt>
      <trkpt lat="45.64419" lon="6.59358">
        <ele>1981.9</ele>
        <time>2022-03-27T09:00:13.000Z</time>
      </trkpt>
      <trkpt lat="45.64426" lon="6.59367">
        <ele>1984.6</ele>
        <time>2022-03-27T09:00:28.000Z</time>
      </trkpt>
      <trkpt lat="45.64431" lon="6.59378">
        <ele>1987.7</ele>
        <time>2022-03-27T09:00:45.000Z</time>
      </trkpt>
      <trkpt lat="45.64436" lon="6.59389">
        <ele>1990.2</ele>
        <time>2022-03-27T09:01:00.000Z</time>
      </trkpt>
      <trkpt lat="45.64437" lon="6.59402">
        <ele>1993</ele>
        <time>2022-03-27T09:01:15.000Z</time>
      </trkpt>
      <trkpt lat="45.64433" lon="6.59414">
        <ele>1995.4</ele>
        <time>2022-03-27T09:01:29.000Z</time>
      </trkpt>
      <trkpt lat="45.64438" lon="6.59426">
        <ele>1999.3</ele>
        <time>2022-03-27T09:01:50.000Z</time>
      </trkpt>
      <trkpt lat="45.64446" lon="6.59431">
        <ele>2002.4</ele>
        <time>2022-03-27T09:02:06.000Z</time>
      </trkpt>
      <trkpt lat="45.64454" lon="6.59437">
        <ele>2005.5</ele>
        <time>2022-03-27T09:02:23.000Z</time>
      </trkpt>
      <trkpt lat="45.64459" lon="6.59445">
        <ele>2008.3</ele>
        <time>2022-03-27T09:02:42.000Z</time>
      </trkpt>
      <trkpt lat="45.64459" lon="6.59445">
        <ele>2008.5</ele>
        <time>2022-03-27T09:03:04.000Z</time>
      </trkpt>
      <trkpt lat="45.64459" lon="6.59445">
        <ele>2008.5</ele>
        <time>2022-03-27T09:03:05.000Z</time>
      </trkpt>
      <trkpt lat="45.64459" lon="6.59446">
        <ele>2008</ele>
        <time>2022-03-27T09:03:09.000Z</time>
      </trkpt>
      <trkpt lat="45.64459" lon="6.59446">
        <ele>2008</ele>
        <time>2022-03-27T09:03:10.000Z</time>
      </trkpt>
      <trkpt lat="45.64458" lon="6.59445">
        <ele>2008.5</ele>
        <time>2022-03-27T09:04:06.000Z</time>
      </trkpt>
      <trkpt lat="45.64458" lon="6.59445">
        <ele>2008.4</ele>
        <time>2022-03-27T09:04:07.000Z</time>
      </trkpt>
      <trkpt lat="45.64458" lon="6.59445">
        <ele>2008.4</ele>
        <time>2022-03-27T09:04:21.000Z</time>
      </trkpt>
      <trkpt lat="45.64458" lon="6.59445">
        <ele>2008.4</ele>
        <time>2022-03-27T09:04:22.000Z</time>
      </trkpt>
      <trkpt lat="45.64458" lon="6.59445">
        <ele>2008.7</ele>
        <time>2022-03-27T09:04:29.000Z</time>
      </trkpt>
      <trkpt lat="45.64458" lon="6.59445">
        <ele>2008.7</ele>
        <time>2022-03-27T09:04:30.000Z</time>
      </trkpt>
      <trkpt lat="45.64458" lon="6.59445">
        <ele>2008.2</ele>
        <time>2022-03-27T09:04:49.000Z</time>
      </trkpt>
      <trkpt lat="45.64458" lon="6.59445">
        <ele>2008.2</ele>
        <time>2022-03-27T09:04:50.000Z</time>
      </trkpt>
      <trkpt lat="45.64458" lon="6.59445">
        <ele>2008.1</ele>
        <time>2022-03-27T09:05:57.000Z</time>
      </trkpt>
      <trkpt lat="45.64458" lon="6.59445">
        <ele>2008.3</ele>
        <time>2022-03-27T09:05:58.000Z</time>
      </trkpt>
      <trkpt lat="45.64458" lon="6.59445">
        <ele>2008.6</ele>
        <time>2022-03-27T09:08:06.000Z</time>
      </trkpt>
      <trkpt lat="45.64458" lon="6.59445">
        <ele>2008.7</ele>
        <time>2022-03-27T09:08:07.000Z</time>
      </trkpt>
      <trkpt lat="45.64458" lon="6.59445">
        <ele>2008</ele>
        <time>2022-03-27T09:08:11.000Z</time>
      </trkpt>
      <trkpt lat="45.64458" lon="6.59445">
        <ele>2008.1</ele>
        <time>2022-03-27T09:08:12.000Z</time>
      </trkpt>
      <trkpt lat="45.64458" lon="6.59445">
        <ele>2007.9</ele>
        <time>2022-03-27T09:08:45.000Z</time>
      </trkpt>
      <trkpt lat="45.64458" lon="6.59445">
        <ele>2007.7</ele>
        <time>2022-03-27T09:08:47.000Z</time>
      </trkpt>
      <trkpt lat="45.64458" lon="6.59446">
        <ele>2007.8</ele>
        <time>2022-03-27T09:08:48.000Z</time>
      </trkpt>
      <trkpt lat="45.64451" lon="6.59454">
        <ele>2008.9</ele>
        <time>2022-03-27T09:09:00.000Z</time>
      </trkpt>
      <trkpt lat="45.64442" lon="6.5946">
        <ele>2010.4</ele>
        <time>2022-03-27T09:09:14.000Z</time>
      </trkpt>
      <trkpt lat="45.64434" lon="6.59466">
        <ele>2012.1</ele>
        <time>2022-03-27T09:09:29.000Z</time>
      </trkpt>
      <trkpt lat="45.64427" lon="6.59475">
        <ele>2014.1</ele>
        <time>2022-03-27T09:09:46.000Z</time>
      </trkpt>
      <trkpt lat="45.64421" lon="6.59485">
        <ele>2015.4</ele>
        <time>2022-03-27T09:10:03.000Z</time>
      </trkpt>
      <trkpt lat="45.64415" lon="6.59495">
        <ele>2017.5</ele>
        <time>2022-03-27T09:10:17.000Z</time>
      </trkpt>
      <trkpt lat="45.6441" lon="6.59508">
        <ele>2018.8</ele>
        <time>2022-03-27T09:10:32.000Z</time>
      </trkpt>
      <trkpt lat="45.64407" lon="6.5952">
        <ele>2019.2</ele>
        <time>2022-03-27T09:10:44.000Z</time>
      </trkpt>
      <trkpt lat="45.64403" lon="6.59532">
        <ele>2020.4</ele>
        <time>2022-03-27T09:11:01.000Z</time>
      </trkpt>
      <trkpt lat="45.64398" lon="6.59543">
        <ele>2021.9</ele>
        <time>2022-03-27T09:11:14.000Z</time>
      </trkpt>
      <trkpt lat="45.64391" lon="6.59553">
        <ele>2023</ele>
        <time>2022-03-27T09:11:28.000Z</time>
      </trkpt>
      <trkpt lat="45.64385" lon="6.59563">
        <ele>2024.3</ele>
        <time>2022-03-27T09:11:41.000Z</time>
      </trkpt>
      <trkpt lat="45.64378" lon="6.59572">
        <ele>2025.5</ele>
        <time>2022-03-27T09:11:55.000Z</time>
      </trkpt>
      <trkpt lat="45.64372" lon="6.59581">
        <ele>2027.1</ele>
        <time>2022-03-27T09:12:09.000Z</time>
      </trkpt>
      <trkpt lat="45.64365" lon="6.59592">
        <ele>2028.2</ele>
        <time>2022-03-27T09:12:23.000Z</time>
      </trkpt>
      <trkpt lat="45.64361" lon="6.59603">
        <ele>2030.2</ele>
        <time>2022-03-27T09:12:41.000Z</time>
      </trkpt>
      <trkpt lat="45.64369" lon="6.59609">
        <ele>2033.4</ele>
        <time>2022-03-27T09:13:06.000Z</time>
      </trkpt>
      <trkpt lat="45.64379" lon="6.59609">
        <ele>2036.1</ele>
        <time>2022-03-27T09:13:24.000Z</time>
      </trkpt>
      <trkpt lat="45.64388" lon="6.59609">
        <ele>2038</ele>
        <time>2022-03-27T09:13:39.000Z</time>
      </trkpt>
      <trkpt lat="45.64397" lon="6.5961">
        <ele>2039.8</ele>
        <time>2022-03-27T09:13:54.000Z</time>
      </trkpt>
      <trkpt lat="45.64407" lon="6.59611">
        <ele>2041.7</ele>
        <time>2022-03-27T09:14:09.000Z</time>
      </trkpt>
      <trkpt lat="45.6441" lon="6.59623">
        <ele>2045.4</ele>
        <time>2022-03-27T09:14:33.000Z</time>
      </trkpt>
      <trkpt lat="45.64419" lon="6.59627">
        <ele>2048.2</ele>
        <time>2022-03-27T09:14:50.000Z</time>
      </trkpt>
      <trkpt lat="45.64427" lon="6.59633">
        <ele>2050.5</ele>
        <time>2022-03-27T09:15:06.000Z</time>
      </trkpt>
      <trkpt lat="45.6443" lon="6.59636">
        <ele>2051.2</ele>
        <time>2022-03-27T09:15:14.000Z</time>
      </trkpt>
      <trkpt lat="45.64431" lon="6.59636">
        <ele>2051.6</ele>
        <time>2022-03-27T09:15:33.000Z</time>
      </trkpt>
      <trkpt lat="45.64438" lon="6.59644">
        <ele>2053.3</ele>
        <time>2022-03-27T09:15:49.000Z</time>
      </trkpt>
      <trkpt lat="45.64446" lon="6.59651">
        <ele>2054.6</ele>
        <time>2022-03-27T09:16:05.000Z</time>
      </trkpt>
      <trkpt lat="45.64449" lon="6.59655">
        <ele>2055.4</ele>
        <time>2022-03-27T09:16:13.000Z</time>
      </trkpt>
      <trkpt lat="45.6445" lon="6.59655">
        <ele>2055.4</ele>
        <time>2022-03-27T09:16:18.000Z</time>
      </trkpt>
      <trkpt lat="45.64452" lon="6.59658">
        <ele>2055.9</ele>
        <time>2022-03-27T09:16:24.000Z</time>
      </trkpt>
      <trkpt lat="45.64452" lon="6.59658">
        <ele>2056.7</ele>
        <time>2022-03-27T09:16:42.000Z</time>
      </trkpt>
      <trkpt lat="45.6446" lon="6.59667">
        <ele>2057.8</ele>
        <time>2022-03-27T09:16:58.000Z</time>
      </trkpt>
      <trkpt lat="45.64464" lon="6.5968">
        <ele>2060.4</ele>
        <time>2022-03-27T09:17:12.000Z</time>
      </trkpt>
      <trkpt lat="45.64465" lon="6.59693">
        <ele>2062.3</ele>
        <time>2022-03-27T09:17:25.000Z</time>
      </trkpt>
      <trkpt lat="45.64466" lon="6.59706">
        <ele>2063.8</ele>
        <time>2022-03-27T09:17:37.000Z</time>
      </trkpt>
      <trkpt lat="45.64466" lon="6.5972">
        <ele>2064.5</ele>
        <time>2022-03-27T09:17:51.000Z</time>
      </trkpt>
      <trkpt lat="45.64466" lon="6.59731">
        <ele>2064.3</ele>
        <time>2022-03-27T09:18:03.000Z</time>
      </trkpt>
      <trkpt lat="45.64466" lon="6.59731">
        <ele>2064.4</ele>
        <time>2022-03-27T09:18:13.000Z</time>
      </trkpt>
      <trkpt lat="45.64466" lon="6.59731">
        <ele>2064.2</ele>
        <time>2022-03-27T09:18:14.000Z</time>
      </trkpt>
      <trkpt lat="45.64466" lon="6.59731">
        <ele>2064.6</ele>
        <time>2022-03-27T09:18:16.000Z</time>
      </trkpt>
      <trkpt lat="45.64465" lon="6.59745">
        <ele>2064.2</ele>
        <time>2022-03-27T09:18:28.000Z</time>
      </trkpt>
      <trkpt lat="45.64464" lon="6.59758">
        <ele>2065.2</ele>
        <time>2022-03-27T09:18:39.000Z</time>
      </trkpt>
      <trkpt lat="45.64463" lon="6.59771">
        <ele>2066.4</ele>
        <time>2022-03-27T09:18:49.000Z</time>
      </trkpt>
      <trkpt lat="45.64463" lon="6.59784">
        <ele>2066.8</ele>
        <time>2022-03-27T09:18:59.000Z</time>
      </trkpt>
      <trkpt lat="45.64463" lon="6.59798">
        <ele>2067.5</ele>
        <time>2022-03-27T09:19:10.000Z</time>
      </trkpt>
      <trkpt lat="45.64464" lon="6.59811">
        <ele>2068.8</ele>
        <time>2022-03-27T09:19:21.000Z</time>
      </trkpt>
      <trkpt lat="45.64463" lon="6.59825">
        <ele>2069.2</ele>
        <time>2022-03-27T09:19:33.000Z</time>
      </trkpt>
      <trkpt lat="45.64463" lon="6.59839">
        <ele>2070.1</ele>
        <time>2022-03-27T09:19:45.000Z</time>
      </trkpt>
      <trkpt lat="45.64462" lon="6.59852">
        <ele>2070.1</ele>
        <time>2022-03-27T09:19:57.000Z</time>
      </trkpt>
      <trkpt lat="45.64459" lon="6.59864">
        <ele>2070</ele>
        <time>2022-03-27T09:20:08.000Z</time>
      </trkpt>
      <trkpt lat="45.64458" lon="6.59878">
        <ele>2070.3</ele>
        <time>2022-03-27T09:20:18.000Z</time>
      </trkpt>
      <trkpt lat="45.64461" lon="6.59891">
        <ele>2071</ele>
        <time>2022-03-27T09:20:30.000Z</time>
      </trkpt>
      <trkpt lat="45.64467" lon="6.59902">
        <ele>2069.2</ele>
        <time>2022-03-27T09:20:40.000Z</time>
      </trkpt>
      <trkpt lat="45.64472" lon="6.59913">
        <ele>2070.2</ele>
        <time>2022-03-27T09:20:51.000Z</time>
      </trkpt>
      <trkpt lat="45.64478" lon="6.59922">
        <ele>2071.1</ele>
        <time>2022-03-27T09:21:03.000Z</time>
      </trkpt>
      <trkpt lat="45.64478" lon="6.59922">
        <ele>2071</ele>
        <time>2022-03-27T09:21:07.000Z</time>
      </trkpt>
      <trkpt lat="45.64478" lon="6.59922">
        <ele>2070.8</ele>
        <time>2022-03-27T09:21:08.000Z</time>
      </trkpt>
      <trkpt lat="45.64478" lon="6.59921">
        <ele>2071.1</ele>
        <time>2022-03-27T09:21:13.000Z</time>
      </trkpt>
      <trkpt lat="45.64479" lon="6.59922">
        <ele>2070.2</ele>
        <time>2022-03-27T09:21:17.000Z</time>
      </trkpt>
      <trkpt lat="45.64479" lon="6.59922">
        <ele>2070</ele>
        <time>2022-03-27T09:21:18.000Z</time>
      </trkpt>
      <trkpt lat="45.64479" lon="6.59922">
        <ele>2070.1</ele>
        <time>2022-03-27T09:21:19.000Z</time>
      </trkpt>
      <trkpt lat="45.64479" lon="6.59921">
        <ele>2069.9</ele>
        <time>2022-03-27T09:21:52.000Z</time>
      </trkpt>
      <trkpt lat="45.64478" lon="6.59921">
        <ele>2070.8</ele>
        <time>2022-03-27T09:22:00.000Z</time>
      </trkpt>
      <trkpt lat="45.64478" lon="6.59921">
        <ele>2071</ele>
        <time>2022-03-27T09:22:47.000Z</time>
      </trkpt>
      <trkpt lat="45.64486" lon="6.59931">
        <ele>2070.5</ele>
        <time>2022-03-27T09:22:56.000Z</time>
      </trkpt>
      <trkpt lat="45.64492" lon="6.5994">
        <ele>2070.8</ele>
        <time>2022-03-27T09:23:04.000Z</time>
      </trkpt>
      <trkpt lat="45.645" lon="6.59949">
        <ele>2069.6</ele>
        <time>2022-03-27T09:23:12.000Z</time>
      </trkpt>
      <trkpt lat="45.64507" lon="6.59959">
        <ele>2071.4</ele>
        <time>2022-03-27T09:23:23.000Z</time>
      </trkpt>
      <trkpt lat="45.64515" lon="6.59964">
        <ele>2071.7</ele>
        <time>2022-03-27T09:23:32.000Z</time>
      </trkpt>
      <trkpt lat="45.64525" lon="6.59967">
        <ele>2072.5</ele>
        <time>2022-03-27T09:23:42.000Z</time>
      </trkpt>
      <trkpt lat="45.64534" lon="6.59965">
        <ele>2073.6</ele>
        <time>2022-03-27T09:23:51.000Z</time>
      </trkpt>
      <trkpt lat="45.64544" lon="6.59964">
        <ele>2075.4</ele>
        <time>2022-03-27T09:24:02.000Z</time>
      </trkpt>
      <trkpt lat="45.64553" lon="6.59963">
        <ele>2076.2</ele>
        <time>2022-03-27T09:24:13.000Z</time>
      </trkpt>
      <trkpt lat="45.64562" lon="6.5996">
        <ele>2077.1</ele>
        <time>2022-03-27T09:24:24.000Z</time>
      </trkpt>
      <trkpt lat="45.64571" lon="6.59957">
        <ele>2078.3</ele>
        <time>2022-03-27T09:24:36.000Z</time>
      </trkpt>
      <trkpt lat="45.64581" lon="6.59955">
        <ele>2078.3</ele>
        <time>2022-03-27T09:24:45.000Z</time>
      </trkpt>
      <trkpt lat="45.6459" lon="6.59956">
        <ele>2078.5</ele>
        <time>2022-03-27T09:24:55.000Z</time>
      </trkpt>
      <trkpt lat="45.646" lon="6.59956">
        <ele>2079.4</ele>
        <time>2022-03-27T09:25:07.000Z</time>
      </trkpt>
      <trkpt lat="45.6461" lon="6.59956">
        <ele>2079.6</ele>
        <time>2022-03-27T09:25:17.000Z</time>
      </trkpt>
      <trkpt lat="45.64619" lon="6.59956">
        <ele>2079.7</ele>
        <time>2022-03-27T09:25:27.000Z</time>
      </trkpt>
      <trkpt lat="45.64628" lon="6.59958">
        <ele>2080.6</ele>
        <time>2022-03-27T09:25:37.000Z</time>
      </trkpt>
      <trkpt lat="45.64637" lon="6.59961">
        <ele>2080.3</ele>
        <time>2022-03-27T09:25:47.000Z</time>
      </trkpt>
      <trkpt lat="45.64647" lon="6.59964">
        <ele>2080.2</ele>
        <time>2022-03-27T09:25:56.000Z</time>
      </trkpt>
      <trkpt lat="45.64655" lon="6.59967">
        <ele>2080.2</ele>
        <time>2022-03-27T09:26:07.000Z</time>
      </trkpt>
      <trkpt lat="45.64665" lon="6.59969">
        <ele>2079</ele>
        <time>2022-03-27T09:26:15.000Z</time>
      </trkpt>
      <trkpt lat="45.64674" lon="6.5997">
        <ele>2078.6</ele>
        <time>2022-03-27T09:26:23.000Z</time>
      </trkpt>
      <trkpt lat="45.64675" lon="6.5997">
        <ele>2078.7</ele>
        <time>2022-03-27T09:26:25.000Z</time>
      </trkpt>
      <trkpt lat="45.64675" lon="6.5997">
        <ele>2078.8</ele>
        <time>2022-03-27T09:26:26.000Z</time>
      </trkpt>
      <trkpt lat="45.64684" lon="6.5997">
        <ele>2079.3</ele>
        <time>2022-03-27T09:26:38.000Z</time>
      </trkpt>
      <trkpt lat="45.64693" lon="6.59968">
        <ele>2081.4</ele>
        <time>2022-03-27T09:26:51.000Z</time>
      </trkpt>
      <trkpt lat="45.64701" lon="6.59962">
        <ele>2084.9</ele>
        <time>2022-03-27T09:27:10.000Z</time>
      </trkpt>
      <trkpt lat="45.64702" lon="6.59962">
        <ele>2085.2</ele>
        <time>2022-03-27T09:27:12.000Z</time>
      </trkpt>
      <trkpt lat="45.64702" lon="6.59961">
        <ele>2085.5</ele>
        <time>2022-03-27T09:27:13.000Z</time>
      </trkpt>
      <trkpt lat="45.64711" lon="6.59961">
        <ele>2088.1</ele>
        <time>2022-03-27T09:27:28.000Z</time>
      </trkpt>
      <trkpt lat="45.6472" lon="6.59966">
        <ele>2090</ele>
        <time>2022-03-27T09:27:43.000Z</time>
      </trkpt>
      <trkpt lat="45.64727" lon="6.59975">
        <ele>2091.9</ele>
        <time>2022-03-27T09:27:58.000Z</time>
      </trkpt>
      <trkpt lat="45.64735" lon="6.59981">
        <ele>2094.5</ele>
        <time>2022-03-27T09:28:16.000Z</time>
      </trkpt>
      <trkpt lat="45.64744" lon="6.59985">
        <ele>2096.3</ele>
        <time>2022-03-27T09:28:32.000Z</time>
      </trkpt>
      <trkpt lat="45.64745" lon="6.59985">
        <ele>2097.1</ele>
        <time>2022-03-27T09:28:35.000Z</time>
      </trkpt>
      <trkpt lat="45.64745" lon="6.59985">
        <ele>2097</ele>
        <time>2022-03-27T09:28:40.000Z</time>
      </trkpt>
      <trkpt lat="45.64755" lon="6.59984">
        <ele>2098.8</ele>
        <time>2022-03-27T09:28:54.000Z</time>
      </trkpt>
      <trkpt lat="45.64764" lon="6.5998">
        <ele>2101.8</ele>
        <time>2022-03-27T09:29:10.000Z</time>
      </trkpt>
      <trkpt lat="45.64773" lon="6.59976">
        <ele>2104.1</ele>
        <time>2022-03-27T09:29:25.000Z</time>
      </trkpt>
      <trkpt lat="45.6477" lon="6.59988">
        <ele>2106.8</ele>
        <time>2022-03-27T09:29:50.000Z</time>
      </trkpt>
      <trkpt lat="45.64768" lon="6.59998">
        <ele>2108.7</ele>
        <time>2022-03-27T09:30:03.000Z</time>
      </trkpt>
      <trkpt lat="45.64768" lon="6.59999">
        <ele>2108.8</ele>
        <time>2022-03-27T09:30:04.000Z</time>
      </trkpt>
      <trkpt lat="45.64768" lon="6.6001">
        <ele>2111.2</ele>
        <time>2022-03-27T09:30:21.000Z</time>
      </trkpt>
      <trkpt lat="45.64768" lon="6.60011">
        <ele>2111.4</ele>
        <time>2022-03-27T09:30:23.000Z</time>
      </trkpt>
      <trkpt lat="45.64773" lon="6.60021">
        <ele>2113.7</ele>
        <time>2022-03-27T09:30:45.000Z</time>
      </trkpt>
      <trkpt lat="45.64782" lon="6.60015">
        <ele>2116.1</ele>
        <time>2022-03-27T09:31:01.000Z</time>
      </trkpt>
      <trkpt lat="45.64791" lon="6.60011">
        <ele>2117.7</ele>
        <time>2022-03-27T09:31:15.000Z</time>
      </trkpt>
      <trkpt lat="45.648" lon="6.60012">
        <ele>2120.2</ele>
        <time>2022-03-27T09:31:31.000Z</time>
      </trkpt>
      <trkpt lat="45.648" lon="6.60026">
        <ele>2123.6</ele>
        <time>2022-03-27T09:31:52.000Z</time>
      </trkpt>
      <trkpt lat="45.64809" lon="6.60025">
        <ele>2126</ele>
        <time>2022-03-27T09:32:12.000Z</time>
      </trkpt>
      <trkpt lat="45.64813" lon="6.60022">
        <ele>2127.6</ele>
        <time>2022-03-27T09:32:23.000Z</time>
      </trkpt>
      <trkpt lat="45.64814" lon="6.60022">
        <ele>2127.7</ele>
        <time>2022-03-27T09:32:26.000Z</time>
      </trkpt>
      <trkpt lat="45.64819" lon="6.60033">
        <ele>2131.6</ele>
        <time>2022-03-27T09:32:57.000Z</time>
      </trkpt>
      <trkpt lat="45.64818" lon="6.60046">
        <ele>2134.7</ele>
        <time>2022-03-27T09:33:14.000Z</time>
      </trkpt>
      <trkpt lat="45.64818" lon="6.60051">
        <ele>2136.3</ele>
        <time>2022-03-27T09:33:23.000Z</time>
      </trkpt>
      <trkpt lat="45.64818" lon="6.60051">
        <ele>2136.5</ele>
        <time>2022-03-27T09:33:24.000Z</time>
      </trkpt>
      <trkpt lat="45.64828" lon="6.6005">
        <ele>2138.9</ele>
        <time>2022-03-27T09:33:42.000Z</time>
      </trkpt>
      <trkpt lat="45.64837" lon="6.60048">
        <ele>2140.5</ele>
        <time>2022-03-27T09:33:56.000Z</time>
      </trkpt>
      <trkpt lat="45.64846" lon="6.60047">
        <ele>2142.6</ele>
        <time>2022-03-27T09:34:11.000Z</time>
      </trkpt>
      <trkpt lat="45.64855" lon="6.60046">
        <ele>2144.5</ele>
        <time>2022-03-27T09:34:27.000Z</time>
      </trkpt>
      <trkpt lat="45.64856" lon="6.60059">
        <ele>2147.3</ele>
        <time>2022-03-27T09:34:51.000Z</time>
      </trkpt>
      <trkpt lat="45.64852" lon="6.60071">
        <ele>2149.6</ele>
        <time>2022-03-27T09:35:07.000Z</time>
      </trkpt>
      <trkpt lat="45.64852" lon="6.60073">
        <ele>2149.9</ele>
        <time>2022-03-27T09:35:10.000Z</time>
      </trkpt>
      <trkpt lat="45.64852" lon="6.60073">
        <ele>2150.2</ele>
        <time>2022-03-27T09:35:11.000Z</time>
      </trkpt>
      <trkpt lat="45.64861" lon="6.60075">
        <ele>2152.6</ele>
        <time>2022-03-27T09:35:27.000Z</time>
      </trkpt>
      <trkpt lat="45.6487" lon="6.60078">
        <ele>2154.8</ele>
        <time>2022-03-27T09:35:43.000Z</time>
      </trkpt>
      <trkpt lat="45.6488" lon="6.60079">
        <ele>2157.4</ele>
        <time>2022-03-27T09:35:58.000Z</time>
      </trkpt>
      <trkpt lat="45.64889" lon="6.60077">
        <ele>2159.3</ele>
        <time>2022-03-27T09:36:12.000Z</time>
      </trkpt>
      <trkpt lat="45.64898" lon="6.60074">
        <ele>2161.2</ele>
        <time>2022-03-27T09:36:28.000Z</time>
      </trkpt>
      <trkpt lat="45.64906" lon="6.60069">
        <ele>2163.4</ele>
        <time>2022-03-27T09:36:44.000Z</time>
      </trkpt>
      <trkpt lat="45.64908" lon="6.60068">
        <ele>2163.8</ele>
        <time>2022-03-27T09:36:49.000Z</time>
      </trkpt>
      <trkpt lat="45.64908" lon="6.60068">
        <ele>2164</ele>
        <time>2022-03-27T09:36:50.000Z</time>
      </trkpt>
      <trkpt lat="45.64911" lon="6.60066">
        <ele>2165.4</ele>
        <time>2022-03-27T09:36:58.000Z</time>
      </trkpt>
      <trkpt lat="45.64912" lon="6.60065">
        <ele>2165.7</ele>
        <time>2022-03-27T09:37:00.000Z</time>
      </trkpt>
      <trkpt lat="45.64921" lon="6.60063">
        <ele>2167</ele>
        <time>2022-03-27T09:37:15.000Z</time>
      </trkpt>
      <trkpt lat="45.6493" lon="6.60061">
        <ele>2168.9</ele>
        <time>2022-03-27T09:37:30.000Z</time>
      </trkpt>
      <trkpt lat="45.64939" lon="6.60058">
        <ele>2171.6</ele>
        <time>2022-03-27T09:37:46.000Z</time>
      </trkpt>
      <trkpt lat="45.64948" lon="6.60055">
        <ele>2173.8</ele>
        <time>2022-03-27T09:38:03.000Z</time>
      </trkpt>
      <trkpt lat="45.64955" lon="6.60064">
        <ele>2177</ele>
        <time>2022-03-27T09:38:26.000Z</time>
      </trkpt>
      <trkpt lat="45.64964" lon="6.60067">
        <ele>2181.2</ele>
        <time>2022-03-27T09:38:49.000Z</time>
      </trkpt>
      <trkpt lat="45.64965" lon="6.60068">
        <ele>2181.9</ele>
        <time>2022-03-27T09:38:53.000Z</time>
      </trkpt>
      <trkpt lat="45.64965" lon="6.60068">
        <ele>2182</ele>
        <time>2022-03-27T09:38:58.000Z</time>
      </trkpt>
      <trkpt lat="45.64965" lon="6.60068">
        <ele>2181.9</ele>
        <time>2022-03-27T09:39:00.000Z</time>
      </trkpt>
      <trkpt lat="45.64965" lon="6.60068">
        <ele>2181.8</ele>
        <time>2022-03-27T09:39:33.000Z</time>
      </trkpt>
      <trkpt lat="45.64965" lon="6.60068">
        <ele>2181.9</ele>
        <time>2022-03-27T09:39:36.000Z</time>
      </trkpt>
      <trkpt lat="45.64965" lon="6.60068">
        <ele>2181.6</ele>
        <time>2022-03-27T09:40:06.000Z</time>
      </trkpt>
      <trkpt lat="45.64965" lon="6.60068">
        <ele>2181.5</ele>
        <time>2022-03-27T09:40:08.000Z</time>
      </trkpt>
      <trkpt lat="45.64965" lon="6.60067">
        <ele>2181.8</ele>
        <time>2022-03-27T09:40:19.000Z</time>
      </trkpt>
      <trkpt lat="45.64965" lon="6.60067">
        <ele>2181.9</ele>
        <time>2022-03-27T09:40:20.000Z</time>
      </trkpt>
      <trkpt lat="45.64965" lon="6.60067">
        <ele>2182.1</ele>
        <time>2022-03-27T09:44:37.000Z</time>
      </trkpt>
      <trkpt lat="45.64965" lon="6.60067">
        <ele>2182.3</ele>
        <time>2022-03-27T09:44:38.000Z</time>
      </trkpt>
      <trkpt lat="45.64965" lon="6.60067">
        <ele>2182.2</ele>
        <time>2022-03-27T09:44:39.000Z</time>
      </trkpt>
      <trkpt lat="45.64967" lon="6.60065">
        <ele>2181.9</ele>
        <time>2022-03-27T09:44:45.000Z</time>
      </trkpt>
      <trkpt lat="45.64967" lon="6.60066">
        <ele>2181.4</ele>
        <time>2022-03-27T09:45:40.000Z</time>
      </trkpt>
      <trkpt lat="45.64967" lon="6.60066">
        <ele>2181.6</ele>
        <time>2022-03-27T09:45:41.000Z</time>
      </trkpt>
      <trkpt lat="45.64967" lon="6.60066">
        <ele>2181.7</ele>
        <time>2022-03-27T09:45:42.000Z</time>
      </trkpt>
      <trkpt lat="45.64967" lon="6.60065">
        <ele>2181.7</ele>
        <time>2022-03-27T09:45:46.000Z</time>
      </trkpt>
      <trkpt lat="45.64968" lon="6.60065">
        <ele>2181.9</ele>
        <time>2022-03-27T09:45:48.000Z</time>
      </trkpt>
      <trkpt lat="45.64969" lon="6.60064">
        <ele>2182</ele>
        <time>2022-03-27T09:45:53.000Z</time>
      </trkpt>
      <trkpt lat="45.64969" lon="6.60064">
        <ele>2182.2</ele>
        <time>2022-03-27T09:45:56.000Z</time>
      </trkpt>
      <trkpt lat="45.64975" lon="6.60056">
        <ele>2184.6</ele>
        <time>2022-03-27T09:46:12.000Z</time>
      </trkpt>
      <trkpt lat="45.64975" lon="6.60055">
        <ele>2185.1</ele>
        <time>2022-03-27T09:46:16.000Z</time>
      </trkpt>
      <trkpt lat="45.64981" lon="6.60047">
        <ele>2188</ele>
        <time>2022-03-27T09:46:34.000Z</time>
      </trkpt>
      <trkpt lat="45.64981" lon="6.60047">
        <ele>2187.8</ele>
        <time>2022-03-27T09:46:49.000Z</time>
      </trkpt>
      <trkpt lat="45.6499" lon="6.60046">
        <ele>2191</ele>
        <time>2022-03-27T09:47:06.000Z</time>
      </trkpt>
      <trkpt lat="45.64996" lon="6.60046">
        <ele>2192</ele>
        <time>2022-03-27T09:47:18.000Z</time>
      </trkpt>
      <trkpt lat="45.64996" lon="6.60045">
        <ele>2192.4</ele>
        <time>2022-03-27T09:47:23.000Z</time>
      </trkpt>
      <trkpt lat="45.64996" lon="6.60044">
        <ele>2192.2</ele>
        <time>2022-03-27T09:47:27.000Z</time>
      </trkpt>
      <trkpt lat="45.64996" lon="6.60044">
        <ele>2192.5</ele>
        <time>2022-03-27T09:47:29.000Z</time>
      </trkpt>
      <trkpt lat="45.64996" lon="6.60044">
        <ele>2192.3</ele>
        <time>2022-03-27T09:47:30.000Z</time>
      </trkpt>
      <trkpt lat="45.64996" lon="6.60044">
        <ele>2192.4</ele>
        <time>2022-03-27T09:47:31.000Z</time>
      </trkpt>
      <trkpt lat="45.64996" lon="6.60044">
        <ele>2192.5</ele>
        <time>2022-03-27T09:47:32.000Z</time>
      </trkpt>
      <trkpt lat="45.64996" lon="6.60043">
        <ele>2192.3</ele>
        <time>2022-03-27T09:47:45.000Z</time>
      </trkpt>
      <trkpt lat="45.64996" lon="6.60043">
        <ele>2192.3</ele>
        <time>2022-03-27T09:47:46.000Z</time>
      </trkpt>
      <trkpt lat="45.64996" lon="6.60044">
        <ele>2191.8</ele>
        <time>2022-03-27T09:47:57.000Z</time>
      </trkpt>
      <trkpt lat="45.64996" lon="6.60044">
        <ele>2191.7</ele>
        <time>2022-03-27T09:47:58.000Z</time>
      </trkpt>
      <trkpt lat="45.64996" lon="6.60043">
        <ele>2191.6</ele>
        <time>2022-03-27T09:48:16.000Z</time>
      </trkpt>
      <trkpt lat="45.64997" lon="6.60044">
        <ele>2190.9</ele>
        <time>2022-03-27T09:48:20.000Z</time>
      </trkpt>
      <trkpt lat="45.64997" lon="6.60043">
        <ele>2191.4</ele>
        <time>2022-03-27T09:48:27.000Z</time>
      </trkpt>
      <trkpt lat="45.64997" lon="6.60043">
        <ele>2191.3</ele>
        <time>2022-03-27T09:48:28.000Z</time>
      </trkpt>
      <trkpt lat="45.64997" lon="6.60043">
        <ele>2190.9</ele>
        <time>2022-03-27T09:48:36.000Z</time>
      </trkpt>
      <trkpt lat="45.64997" lon="6.60043">
        <ele>2190.7</ele>
        <time>2022-03-27T09:48:38.000Z</time>
      </trkpt>
      <trkpt lat="45.64997" lon="6.60043">
        <ele>2191</ele>
        <time>2022-03-27T09:49:12.000Z</time>
      </trkpt>
      <trkpt lat="45.64997" lon="6.60044">
        <ele>2191</ele>
        <time>2022-03-27T09:49:15.000Z</time>
      </trkpt>
      <trkpt lat="45.64998" lon="6.60044">
        <ele>2191.2</ele>
        <time>2022-03-27T09:50:33.000Z</time>
      </trkpt>
      <trkpt lat="45.64998" lon="6.60044">
        <ele>2191</ele>
        <time>2022-03-27T09:50:35.000Z</time>
      </trkpt>
      <trkpt lat="45.64998" lon="6.60044">
        <ele>2191.5</ele>
        <time>2022-03-27T09:51:05.000Z</time>
      </trkpt>
      <trkpt lat="45.64998" lon="6.60043">
        <ele>2191.6</ele>
        <time>2022-03-27T09:51:07.000Z</time>
      </trkpt>
      <trkpt lat="45.64998" lon="6.60043">
        <ele>2191</ele>
        <time>2022-03-27T09:51:08.000Z</time>
      </trkpt>
      <trkpt lat="45.64998" lon="6.60044">
        <ele>2190.6</ele>
        <time>2022-03-27T09:51:10.000Z</time>
      </trkpt>
      <trkpt lat="45.64998" lon="6.60044">
        <ele>2192.2</ele>
        <time>2022-03-27T09:51:13.000Z</time>
      </trkpt>
      <trkpt lat="45.64998" lon="6.60044">
        <ele>2192.6</ele>
        <time>2022-03-27T09:51:14.000Z</time>
      </trkpt>
      <trkpt lat="45.64998" lon="6.60044">
        <ele>2191.1</ele>
        <time>2022-03-27T09:51:54.000Z</time>
      </trkpt>
      <trkpt lat="45.64998" lon="6.60044">
        <ele>2191.1</ele>
        <time>2022-03-27T09:51:55.000Z</time>
      </trkpt>
      <trkpt lat="45.64998" lon="6.60044">
        <ele>2190.8</ele>
        <time>2022-03-27T09:52:38.000Z</time>
      </trkpt>
      <trkpt lat="45.64997" lon="6.60045">
        <ele>2190.6</ele>
        <time>2022-03-27T09:52:41.000Z</time>
      </trkpt>
      <trkpt lat="45.64997" lon="6.60045">
        <ele>2191</ele>
        <time>2022-03-27T09:53:02.000Z</time>
      </trkpt>
      <trkpt lat="45.64997" lon="6.60045">
        <ele>2190.9</ele>
        <time>2022-03-27T09:53:04.000Z</time>
      </trkpt>
      <trkpt lat="45.64997" lon="6.60045">
        <ele>2192</ele>
        <time>2022-03-27T09:53:12.000Z</time>
      </trkpt>
      <trkpt lat="45.64997" lon="6.60045">
        <ele>2192.1</ele>
        <time>2022-03-27T09:53:13.000Z</time>
      </trkpt>
      <trkpt lat="45.64997" lon="6.60045">
        <ele>2190.7</ele>
        <time>2022-03-27T09:55:49.000Z</time>
      </trkpt>
      <trkpt lat="45.64997" lon="6.60045">
        <ele>2190.6</ele>
        <time>2022-03-27T09:55:50.000Z</time>
      </trkpt>
      <trkpt lat="45.64997" lon="6.60046">
        <ele>2191</ele>
        <time>2022-03-27T09:57:00.000Z</time>
      </trkpt>
      <trkpt lat="45.64998" lon="6.60046">
        <ele>2191.2</ele>
        <time>2022-03-27T09:57:02.000Z</time>
      </trkpt>
      <trkpt lat="45.64997" lon="6.60045">
        <ele>2190.9</ele>
        <time>2022-03-27T09:58:32.000Z</time>
      </trkpt>
      <trkpt lat="45.64997" lon="6.60046">
        <ele>2190.7</ele>
        <time>2022-03-27T09:58:35.000Z</time>
      </trkpt>
      <trkpt lat="45.64997" lon="6.60046">
        <ele>2190.9</ele>
        <time>2022-03-27T09:58:57.000Z</time>
      </trkpt>
      <trkpt lat="45.64997" lon="6.60046">
        <ele>2190.8</ele>
        <time>2022-03-27T09:59:00.000Z</time>
      </trkpt>
      <trkpt lat="45.64997" lon="6.60046">
        <ele>2191</ele>
        <time>2022-03-27T09:59:34.000Z</time>
      </trkpt>
      <trkpt lat="45.64997" lon="6.60046">
        <ele>2190.9</ele>
        <time>2022-03-27T09:59:35.000Z</time>
      </trkpt>
      <trkpt lat="45.64997" lon="6.60046">
        <ele>2190.6</ele>
        <time>2022-03-27T09:59:43.000Z</time>
      </trkpt>
      <trkpt lat="45.64997" lon="6.60046">
        <ele>2190.6</ele>
        <time>2022-03-27T09:59:44.000Z</time>
      </trkpt>
      <trkpt lat="45.64997" lon="6.60046">
        <ele>2190.6</ele>
        <time>2022-03-27T09:59:47.000Z</time>
      </trkpt>
      <trkpt lat="45.64997" lon="6.60046">
        <ele>2191.6</ele>
        <time>2022-03-27T09:59:50.000Z</time>
      </trkpt>
      <trkpt lat="45.64997" lon="6.60046">
        <ele>2190.8</ele>
        <time>2022-03-27T09:59:54.000Z</time>
      </trkpt>
      <trkpt lat="45.64997" lon="6.60046">
        <ele>2190.8</ele>
        <time>2022-03-27T09:59:55.000Z</time>
      </trkpt>
      <trkpt lat="45.64997" lon="6.60046">
        <ele>2191.2</ele>
        <time>2022-03-27T10:00:17.000Z</time>
      </trkpt>
      <trkpt lat="45.64997" lon="6.60046">
        <ele>2191.3</ele>
        <time>2022-03-27T10:00:18.000Z</time>
      </trkpt>
      <trkpt lat="45.64997" lon="6.60045">
        <ele>2191.2</ele>
        <time>2022-03-27T10:01:33.000Z</time>
      </trkpt>
      <trkpt lat="45.64997" lon="6.60045">
        <ele>2191.1</ele>
        <time>2022-03-27T10:01:34.000Z</time>
      </trkpt>
      <trkpt lat="45.64998" lon="6.60045">
        <ele>2191.7</ele>
        <time>2022-03-27T10:02:13.000Z</time>
      </trkpt>
      <trkpt lat="45.64997" lon="6.60044">
        <ele>2192.1</ele>
        <time>2022-03-27T10:02:19.000Z</time>
      </trkpt>
      <trkpt lat="45.64997" lon="6.60044">
        <ele>2191.2</ele>
        <time>2022-03-27T10:02:20.000Z</time>
      </trkpt>
      <trkpt lat="45.6499" lon="6.60041">
        <ele>2189.7</ele>
        <time>2022-03-27T10:02:39.000Z</time>
      </trkpt>
      <trkpt lat="45.6499" lon="6.60042">
        <ele>2189.3</ele>
        <time>2022-03-27T10:02:44.000Z</time>
      </trkpt>
      <trkpt lat="45.64991" lon="6.60042">
        <ele>2188.4</ele>
        <time>2022-03-27T10:02:49.000Z</time>
      </trkpt>
      <trkpt lat="45.64991" lon="6.60042">
        <ele>2188.4</ele>
        <time>2022-03-27T10:02:50.000Z</time>
      </trkpt>
      <trkpt lat="45.64991" lon="6.60042">
        <ele>2188.8</ele>
        <time>2022-03-27T10:02:51.000Z</time>
      </trkpt>
      <trkpt lat="45.64991" lon="6.60042">
        <ele>2189.6</ele>
        <time>2022-03-27T10:02:55.000Z</time>
      </trkpt>
      <trkpt lat="45.64992" lon="6.60042">
        <ele>2189.4</ele>
        <time>2022-03-27T10:02:58.000Z</time>
      </trkpt>
      <trkpt lat="45.64992" lon="6.60042">
        <ele>2189.5</ele>
        <time>2022-03-27T10:02:59.000Z</time>
      </trkpt>
      <trkpt lat="45.64991" lon="6.60042">
        <ele>2189.9</ele>
        <time>2022-03-27T10:03:02.000Z</time>
      </trkpt>
      <trkpt lat="45.64991" lon="6.60042">
        <ele>2189.9</ele>
        <time>2022-03-27T10:03:03.000Z</time>
      </trkpt>
      <trkpt lat="45.64991" lon="6.60042">
        <ele>2189.9</ele>
        <time>2022-03-27T10:03:04.000Z</time>
      </trkpt>
      <trkpt lat="45.64991" lon="6.60041">
        <ele>2190</ele>
        <time>2022-03-27T10:03:06.000Z</time>
      </trkpt>
      <trkpt lat="45.64991" lon="6.60041">
        <ele>2190.1</ele>
        <time>2022-03-27T10:03:07.000Z</time>
      </trkpt>
      <trkpt lat="45.64991" lon="6.60041">
        <ele>2189.9</ele>
        <time>2022-03-27T10:03:08.000Z</time>
      </trkpt>
      <trkpt lat="45.64991" lon="6.60041">
        <ele>2189.8</ele>
        <time>2022-03-27T10:03:10.000Z</time>
      </trkpt>
      <trkpt lat="45.6499" lon="6.6004">
        <ele>2189.5</ele>
        <time>2022-03-27T10:03:14.000Z</time>
      </trkpt>
      <trkpt lat="45.64991" lon="6.60041">
        <ele>2188.9</ele>
        <time>2022-03-27T10:03:23.000Z</time>
      </trkpt>
      <trkpt lat="45.64991" lon="6.60041">
        <ele>2189</ele>
        <time>2022-03-27T10:03:24.000Z</time>
      </trkpt>
      <trkpt lat="45.64992" lon="6.6004">
        <ele>2188.8</ele>
        <time>2022-03-27T10:03:26.000Z</time>
      </trkpt>
      <trkpt lat="45.64991" lon="6.60041">
        <ele>2188.1</ele>
        <time>2022-03-27T10:07:59.000Z</time>
      </trkpt>
      <trkpt lat="45.64991" lon="6.60041">
        <ele>2188.1</ele>
        <time>2022-03-27T10:08:03.000Z</time>
      </trkpt>
      <trkpt lat="45.64991" lon="6.6004">
        <ele>2186.3</ele>
        <time>2022-03-27T10:08:11.000Z</time>
      </trkpt>
      <trkpt lat="45.64991" lon="6.6004">
        <ele>2187.6</ele>
        <time>2022-03-27T10:08:14.000Z</time>
      </trkpt>
      <trkpt lat="45.64991" lon="6.6004">
        <ele>2188.5</ele>
        <time>2022-03-27T10:08:37.000Z</time>
      </trkpt>
      <trkpt lat="45.64991" lon="6.6004">
        <ele>2188.3</ele>
        <time>2022-03-27T10:08:38.000Z</time>
      </trkpt>
      <trkpt lat="45.6499" lon="6.60039">
        <ele>2188.1</ele>
        <time>2022-03-27T10:08:46.000Z</time>
      </trkpt>
      <trkpt lat="45.6499" lon="6.6004">
        <ele>2188.2</ele>
        <time>2022-03-27T10:08:47.000Z</time>
      </trkpt>
      <trkpt lat="45.64991" lon="6.6004">
        <ele>2188.6</ele>
        <time>2022-03-27T10:09:05.000Z</time>
      </trkpt>
      <trkpt lat="45.64991" lon="6.6004">
        <ele>2188.6</ele>
        <time>2022-03-27T10:09:06.000Z</time>
      </trkpt>
      <trkpt lat="45.64991" lon="6.6004">
        <ele>2188.2</ele>
        <time>2022-03-27T10:11:04.000Z</time>
      </trkpt>
      <trkpt lat="45.64991" lon="6.6004">
        <ele>2188.3</ele>
        <time>2022-03-27T10:11:05.000Z</time>
      </trkpt>
      <trkpt lat="45.64991" lon="6.6004">
        <ele>2187.8</ele>
        <time>2022-03-27T10:12:04.000Z</time>
      </trkpt>
      <trkpt lat="45.64991" lon="6.6004">
        <ele>2187.8</ele>
        <time>2022-03-27T10:12:05.000Z</time>
      </trkpt>
      <trkpt lat="45.64991" lon="6.6004">
        <ele>2188.8</ele>
        <time>2022-03-27T10:14:37.000Z</time>
      </trkpt>
      <trkpt lat="45.64991" lon="6.6004">
        <ele>2188.9</ele>
        <time>2022-03-27T10:14:38.000Z</time>
      </trkpt>
      <trkpt lat="45.64991" lon="6.6004">
        <ele>2189.1</ele>
        <time>2022-03-27T10:15:05.000Z</time>
      </trkpt>
      <trkpt lat="45.64991" lon="6.6004">
        <ele>2189</ele>
        <time>2022-03-27T10:15:06.000Z</time>
      </trkpt>
      <trkpt lat="45.64991" lon="6.6004">
        <ele>2189.2</ele>
        <time>2022-03-27T10:15:13.000Z</time>
      </trkpt>
      <trkpt lat="45.64991" lon="6.6004">
        <ele>2189.2</ele>
        <time>2022-03-27T10:15:14.000Z</time>
      </trkpt>
      <trkpt lat="45.64991" lon="6.6004">
        <ele>2188.9</ele>
        <time>2022-03-27T10:18:01.000Z</time>
      </trkpt>
      <trkpt lat="45.64991" lon="6.6004">
        <ele>2188.9</ele>
        <time>2022-03-27T10:18:02.000Z</time>
      </trkpt>
      <trkpt lat="45.64991" lon="6.6004">
        <ele>2189.1</ele>
        <time>2022-03-27T10:19:09.000Z</time>
      </trkpt>
      <trkpt lat="45.64991" lon="6.6004">
        <ele>2189.1</ele>
        <time>2022-03-27T10:19:10.000Z</time>
      </trkpt>
      <trkpt lat="45.6499" lon="6.6004">
        <ele>2189</ele>
        <time>2022-03-27T10:25:00.000Z</time>
      </trkpt>
      <trkpt lat="45.6499" lon="6.6004">
        <ele>2188.8</ele>
        <time>2022-03-27T10:25:01.000Z</time>
      </trkpt>
      <trkpt lat="45.6499" lon="6.60039">
        <ele>2191.4</ele>
        <time>2022-03-27T10:28:04.000Z</time>
      </trkpt>
      <trkpt lat="45.6499" lon="6.60039">
        <ele>2189.2</ele>
        <time>2022-03-27T10:28:06.000Z</time>
      </trkpt>
      <trkpt lat="45.6499" lon="6.6004">
        <ele>2189.1</ele>
        <time>2022-03-27T10:28:09.000Z</time>
      </trkpt>
      <trkpt lat="45.64991" lon="6.6004">
        <ele>2190.3</ele>
        <time>2022-03-27T10:28:12.000Z</time>
      </trkpt>
      <trkpt lat="45.6499" lon="6.6004">
        <ele>2189.7</ele>
        <time>2022-03-27T10:28:13.000Z</time>
      </trkpt>
      <trkpt lat="45.6499" lon="6.6004">
        <ele>2189.2</ele>
        <time>2022-03-27T10:28:15.000Z</time>
      </trkpt>
      <trkpt lat="45.64991" lon="6.6004">
        <ele>2189</ele>
        <time>2022-03-27T10:29:05.000Z</time>
      </trkpt>
      <trkpt lat="45.64991" lon="6.6004">
        <ele>2189</ele>
        <time>2022-03-27T10:29:06.000Z</time>
      </trkpt>
      <trkpt lat="45.64991" lon="6.6004">
        <ele>2189</ele>
        <time>2022-03-27T10:29:30.000Z</time>
      </trkpt>
      <trkpt lat="45.64991" lon="6.6004">
        <ele>2188.9</ele>
        <time>2022-03-27T10:29:31.000Z</time>
      </trkpt>
      <trkpt lat="45.6499" lon="6.6004">
        <ele>2189</ele>
        <time>2022-03-27T10:30:04.000Z</time>
      </trkpt>
      <trkpt lat="45.64991" lon="6.6004">
        <ele>2189</ele>
        <time>2022-03-27T10:30:06.000Z</time>
      </trkpt>
      <trkpt lat="45.64991" lon="6.6004">
        <ele>2189.6</ele>
        <time>2022-03-27T10:30:21.000Z</time>
      </trkpt>
      <trkpt lat="45.64991" lon="6.6004">
        <ele>2189.4</ele>
        <time>2022-03-27T10:30:22.000Z</time>
      </trkpt>
      <trkpt lat="45.64991" lon="6.6004">
        <ele>2189.3</ele>
        <time>2022-03-27T10:30:36.000Z</time>
      </trkpt>
      <trkpt lat="45.64991" lon="6.6004">
        <ele>2189.3</ele>
        <time>2022-03-27T10:30:37.000Z</time>
      </trkpt>
      <trkpt lat="45.64991" lon="6.6004">
        <ele>2189.1</ele>
        <time>2022-03-27T10:30:40.000Z</time>
      </trkpt>
      <trkpt lat="45.64991" lon="6.6004">
        <ele>2189</ele>
        <time>2022-03-27T10:30:46.000Z</time>
      </trkpt>
      <trkpt lat="45.64991" lon="6.6004">
        <ele>2189</ele>
        <time>2022-03-27T10:30:48.000Z</time>
      </trkpt>
      <trkpt lat="45.64991" lon="6.6004">
        <ele>2189</ele>
        <time>2022-03-27T10:30:49.000Z</time>
      </trkpt>
      <trkpt lat="45.64991" lon="6.6004">
        <ele>2189.1</ele>
        <time>2022-03-27T10:31:07.000Z</time>
      </trkpt>
      <trkpt lat="45.64991" lon="6.6004">
        <ele>2188.8</ele>
        <time>2022-03-27T10:31:08.000Z</time>
      </trkpt>
      <trkpt lat="45.64991" lon="6.6004">
        <ele>2189.3</ele>
        <time>2022-03-27T10:31:31.000Z</time>
      </trkpt>
      <trkpt lat="45.64991" lon="6.60039">
        <ele>2188.8</ele>
        <time>2022-03-27T10:31:34.000Z</time>
      </trkpt>
      <trkpt lat="45.64991" lon="6.60039">
        <ele>2186.6</ele>
        <time>2022-03-27T10:31:38.000Z</time>
      </trkpt>
      <trkpt lat="45.6499" lon="6.6004">
        <ele>2188.1</ele>
        <time>2022-03-27T10:31:41.000Z</time>
      </trkpt>
      <trkpt lat="45.6499" lon="6.6004">
        <ele>2187.8</ele>
        <time>2022-03-27T10:31:44.000Z</time>
      </trkpt>
      <trkpt lat="45.64994" lon="6.60041">
        <ele>2188.2</ele>
        <time>2022-03-27T10:31:51.000Z</time>
      </trkpt>
      <trkpt lat="45.64993" lon="6.6004">
        <ele>2187.4</ele>
        <time>2022-03-27T10:31:52.000Z</time>
      </trkpt>
      <trkpt lat="45.64989" lon="6.60036">
        <ele>2189</ele>
        <time>2022-03-27T10:32:03.000Z</time>
      </trkpt>
      <trkpt lat="45.64989" lon="6.60035">
        <ele>2188.9</ele>
        <time>2022-03-27T10:32:04.000Z</time>
      </trkpt>
      <trkpt lat="45.64989" lon="6.60035">
        <ele>2188.9</ele>
        <time>2022-03-27T10:32:07.000Z</time>
      </trkpt>
      <trkpt lat="45.64989" lon="6.60035">
        <ele>2188.9</ele>
        <time>2022-03-27T10:32:08.000Z</time>
      </trkpt>
      <trkpt lat="45.64989" lon="6.60035">
        <ele>2189</ele>
        <time>2022-03-27T10:32:10.000Z</time>
      </trkpt>
      <trkpt lat="45.64989" lon="6.60035">
        <ele>2188.9</ele>
        <time>2022-03-27T10:32:43.000Z</time>
      </trkpt>
      <trkpt lat="45.64989" lon="6.60035">
        <ele>2188.6</ele>
        <time>2022-03-27T10:32:45.000Z</time>
      </trkpt>
      <trkpt lat="45.64989" lon="6.60035">
        <ele>2188.6</ele>
        <time>2022-03-27T10:32:47.000Z</time>
      </trkpt>
      <trkpt lat="45.64989" lon="6.60035">
        <ele>2188.7</ele>
        <time>2022-03-27T10:32:48.000Z</time>
      </trkpt>
      <trkpt lat="45.64989" lon="6.60036">
        <ele>2188.8</ele>
        <time>2022-03-27T10:32:52.000Z</time>
      </trkpt>
      <trkpt lat="45.64989" lon="6.60036">
        <ele>2188.6</ele>
        <time>2022-03-27T10:32:53.000Z</time>
      </trkpt>
      <trkpt lat="45.64989" lon="6.60036">
        <ele>2188.6</ele>
        <time>2022-03-27T10:32:54.000Z</time>
      </trkpt>
      <trkpt lat="45.64989" lon="6.60036">
        <ele>2188.8</ele>
        <time>2022-03-27T10:32:55.000Z</time>
      </trkpt>
      <trkpt lat="45.6499" lon="6.60036">
        <ele>2188.7</ele>
        <time>2022-03-27T10:33:05.000Z</time>
      </trkpt>
      <trkpt lat="45.6499" lon="6.60036">
        <ele>2188.1</ele>
        <time>2022-03-27T10:33:08.000Z</time>
      </trkpt>
      <trkpt lat="45.6499" lon="6.60036">
        <ele>2188.4</ele>
        <time>2022-03-27T10:33:35.000Z</time>
      </trkpt>
      <trkpt lat="45.6499" lon="6.60036">
        <ele>2188.5</ele>
        <time>2022-03-27T10:33:36.000Z</time>
      </trkpt>
      <trkpt lat="45.6499" lon="6.60036">
        <ele>2188.2</ele>
        <time>2022-03-27T10:34:03.000Z</time>
      </trkpt>
      <trkpt lat="45.6499" lon="6.60036">
        <ele>2188.3</ele>
        <time>2022-03-27T10:34:06.000Z</time>
      </trkpt>
      <trkpt lat="45.6499" lon="6.60037">
        <ele>2188.6</ele>
        <time>2022-03-27T10:39:59.000Z</time>
      </trkpt>
      <trkpt lat="45.6499" lon="6.60037">
        <ele>2188.7</ele>
        <time>2022-03-27T10:40:00.000Z</time>
      </trkpt>
      <trkpt lat="45.6499" lon="6.60037">
        <ele>2189</ele>
        <time>2022-03-27T10:40:04.000Z</time>
      </trkpt>
      <trkpt lat="45.6499" lon="6.60037">
        <ele>2189</ele>
        <time>2022-03-27T10:40:05.000Z</time>
      </trkpt>
      <trkpt lat="45.6499" lon="6.60037">
        <ele>2188.9</ele>
        <time>2022-03-27T10:40:07.000Z</time>
      </trkpt>
      <trkpt lat="45.6499" lon="6.60037">
        <ele>2188.8</ele>
        <time>2022-03-27T10:40:08.000Z</time>
      </trkpt>
      <trkpt lat="45.6499" lon="6.60037">
        <ele>2188.1</ele>
        <time>2022-03-27T10:41:21.000Z</time>
      </trkpt>
      <trkpt lat="45.64989" lon="6.60037">
        <ele>2189.3</ele>
        <time>2022-03-27T10:41:25.000Z</time>
      </trkpt>
      <trkpt lat="45.64989" lon="6.60037">
        <ele>2188.7</ele>
        <time>2022-03-27T10:41:41.000Z</time>
      </trkpt>
      <trkpt lat="45.64989" lon="6.60037">
        <ele>2188.7</ele>
        <time>2022-03-27T10:41:42.000Z</time>
      </trkpt>
      <trkpt lat="45.64989" lon="6.60037">
        <ele>2188.5</ele>
        <time>2022-03-27T10:43:14.000Z</time>
      </trkpt>
      <trkpt lat="45.6499" lon="6.60038">
        <ele>2188</ele>
        <time>2022-03-27T10:43:16.000Z</time>
      </trkpt>
      <trkpt lat="45.64989" lon="6.60038">
        <ele>2189</ele>
        <time>2022-03-27T10:44:06.000Z</time>
      </trkpt>
      <trkpt lat="45.64989" lon="6.60038">
        <ele>2189.1</ele>
        <time>2022-03-27T10:44:07.000Z</time>
      </trkpt>
      <trkpt lat="45.64989" lon="6.60038">
        <ele>2189.1</ele>
        <time>2022-03-27T10:47:05.000Z</time>
      </trkpt>
      <trkpt lat="45.64989" lon="6.60038">
        <ele>2188.9</ele>
        <time>2022-03-27T10:47:06.000Z</time>
      </trkpt>
      <trkpt lat="45.64989" lon="6.60038">
        <ele>2189.1</ele>
        <time>2022-03-27T10:50:32.000Z</time>
      </trkpt>
      <trkpt lat="45.64989" lon="6.60038">
        <ele>2189.3</ele>
        <time>2022-03-27T10:50:33.000Z</time>
      </trkpt>
      <trkpt lat="45.64989" lon="6.60038">
        <ele>2188.7</ele>
        <time>2022-03-27T10:53:22.000Z</time>
      </trkpt>
      <trkpt lat="45.64989" lon="6.60038">
        <ele>2188.7</ele>
        <time>2022-03-27T10:53:23.000Z</time>
      </trkpt>
      <trkpt lat="45.64989" lon="6.60038">
        <ele>2189.4</ele>
        <time>2022-03-27T10:59:52.000Z</time>
      </trkpt>
      <trkpt lat="45.64989" lon="6.60038">
        <ele>2189.3</ele>
        <time>2022-03-27T10:59:53.000Z</time>
      </trkpt>
      <trkpt lat="45.64989" lon="6.60038">
        <ele>2189.5</ele>
        <time>2022-03-27T11:07:56.000Z</time>
      </trkpt>
      <trkpt lat="45.64989" lon="6.60038">
        <ele>2189.7</ele>
        <time>2022-03-27T11:07:57.000Z</time>
      </trkpt>
      <trkpt lat="45.64989" lon="6.60038">
        <ele>2190.4</ele>
        <time>2022-03-27T11:17:02.000Z</time>
      </trkpt>
      <trkpt lat="45.64989" lon="6.60038">
        <ele>2190.3</ele>
        <time>2022-03-27T11:17:03.000Z</time>
      </trkpt>
      <trkpt lat="45.64989" lon="6.60038">
        <ele>2188.7</ele>
        <time>2022-03-27T11:20:44.000Z</time>
      </trkpt>
      <trkpt lat="45.64989" lon="6.60037">
        <ele>2189.7</ele>
        <time>2022-03-27T11:20:45.000Z</time>
      </trkpt>
      <trkpt lat="45.64989" lon="6.60038">
        <ele>2191</ele>
        <time>2022-03-27T11:20:52.000Z</time>
      </trkpt>
      <trkpt lat="45.64989" lon="6.60037">
        <ele>2190.5</ele>
        <time>2022-03-27T11:20:54.000Z</time>
      </trkpt>
      <trkpt lat="45.64989" lon="6.60038">
        <ele>2189.9</ele>
        <time>2022-03-27T11:20:55.000Z</time>
      </trkpt>
      <trkpt lat="45.64989" lon="6.60038">
        <ele>2189.8</ele>
        <time>2022-03-27T11:20:57.000Z</time>
      </trkpt>
      <trkpt lat="45.64989" lon="6.60038">
        <ele>2189.9</ele>
        <time>2022-03-27T11:20:58.000Z</time>
      </trkpt>
      <trkpt lat="45.64987" lon="6.60036">
        <ele>2190.3</ele>
        <time>2022-03-27T11:21:06.000Z</time>
      </trkpt>
      <trkpt lat="45.64987" lon="6.60036">
        <ele>2190.1</ele>
        <time>2022-03-27T11:21:09.000Z</time>
      </trkpt>
      <trkpt lat="45.64986" lon="6.60039">
        <ele>2190</ele>
        <time>2022-03-27T11:21:17.000Z</time>
      </trkpt>
      <trkpt lat="45.64986" lon="6.60039">
        <ele>2189.9</ele>
        <time>2022-03-27T11:21:18.000Z</time>
      </trkpt>
      <trkpt lat="45.64987" lon="6.60039">
        <ele>2190.2</ele>
        <time>2022-03-27T11:21:33.000Z</time>
      </trkpt>
      <trkpt lat="45.64987" lon="6.60039">
        <ele>2190.1</ele>
        <time>2022-03-27T11:21:34.000Z</time>
      </trkpt>
      <trkpt lat="45.64989" lon="6.60039">
        <ele>2191.4</ele>
        <time>2022-03-27T11:21:51.000Z</time>
      </trkpt>
      <trkpt lat="45.64989" lon="6.60039">
        <ele>2191.5</ele>
        <time>2022-03-27T11:22:10.000Z</time>
      </trkpt>
      <trkpt lat="45.64989" lon="6.60038">
        <ele>2191.1</ele>
        <time>2022-03-27T11:22:16.000Z</time>
      </trkpt>
      <trkpt lat="45.6499" lon="6.60039">
        <ele>2191</ele>
        <time>2022-03-27T11:22:22.000Z</time>
      </trkpt>
      <trkpt lat="45.6499" lon="6.60039">
        <ele>2190.8</ele>
        <time>2022-03-27T11:22:23.000Z</time>
      </trkpt>
      <trkpt lat="45.6499" lon="6.60039">
        <ele>2191.3</ele>
        <time>2022-03-27T11:22:39.000Z</time>
      </trkpt>
      <trkpt lat="45.64989" lon="6.60039">
        <ele>2191</ele>
        <time>2022-03-27T11:22:42.000Z</time>
      </trkpt>
      <trkpt lat="45.64989" lon="6.60039">
        <ele>2190.8</ele>
        <time>2022-03-27T11:22:43.000Z</time>
      </trkpt>
      <trkpt lat="45.64988" lon="6.60038">
        <ele>2190.8</ele>
        <time>2022-03-27T11:22:46.000Z</time>
      </trkpt>
      <trkpt lat="45.64988" lon="6.60039">
        <ele>2190.8</ele>
        <time>2022-03-27T11:22:47.000Z</time>
      </trkpt>
      <trkpt lat="45.64987" lon="6.60041">
        <ele>2191.3</ele>
        <time>2022-03-27T11:22:53.000Z</time>
      </trkpt>
      <trkpt lat="45.64987" lon="6.60041">
        <ele>2191.1</ele>
        <time>2022-03-27T11:22:54.000Z</time>
      </trkpt>
      <trkpt lat="45.64987" lon="6.60041">
        <ele>2191</ele>
        <time>2022-03-27T11:22:57.000Z</time>
      </trkpt>
      <trkpt lat="45.64987" lon="6.60041">
        <ele>2191.3</ele>
        <time>2022-03-27T11:23:00.000Z</time>
      </trkpt>
      <trkpt lat="45.64987" lon="6.60041">
        <ele>2191.5</ele>
        <time>2022-03-27T11:23:01.000Z</time>
      </trkpt>
      <trkpt lat="45.64987" lon="6.60041">
        <ele>2191.8</ele>
        <time>2022-03-27T11:23:15.000Z</time>
      </trkpt>
      <trkpt lat="45.64987" lon="6.60041">
        <ele>2191.6</ele>
        <time>2022-03-27T11:23:18.000Z</time>
      </trkpt>
      <trkpt lat="45.64987" lon="6.60041">
        <ele>2191.3</ele>
        <time>2022-03-27T11:23:20.000Z</time>
      </trkpt>
      <trkpt lat="45.64987" lon="6.60041">
        <ele>2191.3</ele>
        <time>2022-03-27T11:23:21.000Z</time>
      </trkpt>
      <trkpt lat="45.64987" lon="6.60041">
        <ele>2191.4</ele>
        <time>2022-03-27T11:23:33.000Z</time>
      </trkpt>
      <trkpt lat="45.64987" lon="6.60041">
        <ele>2191.3</ele>
        <time>2022-03-27T11:23:35.000Z</time>
      </trkpt>
      <trkpt lat="45.64987" lon="6.60041">
        <ele>2190.8</ele>
        <time>2022-03-27T11:23:45.000Z</time>
      </trkpt>
      <trkpt lat="45.64987" lon="6.60042">
        <ele>2191.3</ele>
        <time>2022-03-27T11:23:47.000Z</time>
      </trkpt>
      <trkpt lat="45.64987" lon="6.60042">
        <ele>2191.7</ele>
        <time>2022-03-27T11:23:58.000Z</time>
      </trkpt>
      <trkpt lat="45.64987" lon="6.60041">
        <ele>2191.5</ele>
        <time>2022-03-27T11:24:02.000Z</time>
      </trkpt>
      <trkpt lat="45.64988" lon="6.60041">
        <ele>2191.5</ele>
        <time>2022-03-27T11:24:39.000Z</time>
      </trkpt>
      <trkpt lat="45.64988" lon="6.60041">
        <ele>2191.3</ele>
        <time>2022-03-27T11:24:40.000Z</time>
      </trkpt>
      <trkpt lat="45.64987" lon="6.60041">
        <ele>2190.8</ele>
        <time>2022-03-27T11:24:50.000Z</time>
      </trkpt>
      <trkpt lat="45.64988" lon="6.60041">
        <ele>2191</ele>
        <time>2022-03-27T11:24:52.000Z</time>
      </trkpt>
      <trkpt lat="45.64987" lon="6.60042">
        <ele>2190.6</ele>
        <time>2022-03-27T11:25:18.000Z</time>
      </trkpt>
      <trkpt lat="45.64987" lon="6.60042">
        <ele>2190.6</ele>
        <time>2022-03-27T11:25:19.000Z</time>
      </trkpt>
      <trkpt lat="45.64987" lon="6.60041">
        <ele>2190.3</ele>
        <time>2022-03-27T11:25:39.000Z</time>
      </trkpt>
      <trkpt lat="45.64978" lon="6.60046">
        <ele>2188.4</ele>
        <time>2022-03-27T11:25:47.000Z</time>
      </trkpt>
      <trkpt lat="45.64967" lon="6.60046">
        <ele>2183.5</ele>
        <time>2022-03-27T11:25:54.000Z</time>
      </trkpt>
      <trkpt lat="45.64959" lon="6.60056">
        <ele>2181</ele>
        <time>2022-03-27T11:25:57.000Z</time>
      </trkpt>
      <trkpt lat="45.64951" lon="6.60049">
        <ele>2177.6</ele>
        <time>2022-03-27T11:26:00.000Z</time>
      </trkpt>
      <trkpt lat="45.64942" lon="6.60054">
        <ele>2175.2</ele>
        <time>2022-03-27T11:26:02.000Z</time>
      </trkpt>
      <trkpt lat="45.6493" lon="6.60062">
        <ele>2173.1</ele>
        <time>2022-03-27T11:26:05.000Z</time>
      </trkpt>
      <trkpt lat="45.64922" lon="6.60067">
        <ele>2172.2</ele>
        <time>2022-03-27T11:26:07.000Z</time>
      </trkpt>
      <trkpt lat="45.64913" lon="6.60072">
        <ele>2171.1</ele>
        <time>2022-03-27T11:26:09.000Z</time>
      </trkpt>
      <trkpt lat="45.64904" lon="6.60079">
        <ele>2169.6</ele>
        <time>2022-03-27T11:26:11.000Z</time>
      </trkpt>
      <trkpt lat="45.64891" lon="6.60084">
        <ele>2166.6</ele>
        <time>2022-03-27T11:26:13.000Z</time>
      </trkpt>
      <trkpt lat="45.64877" lon="6.60088">
        <ele>2164.4</ele>
        <time>2022-03-27T11:26:15.000Z</time>
      </trkpt>
      <trkpt lat="45.64865" lon="6.60088">
        <ele>2162.7</ele>
        <time>2022-03-27T11:26:17.000Z</time>
      </trkpt>
      <trkpt lat="45.64855" lon="6.60089">
        <ele>2161.5</ele>
        <time>2022-03-27T11:26:19.000Z</time>
      </trkpt>
      <trkpt lat="45.64846" lon="6.60091">
        <ele>2160.6</ele>
        <time>2022-03-27T11:26:21.000Z</time>
      </trkpt>
      <trkpt lat="45.64837" lon="6.60093">
        <ele>2159.6</ele>
        <time>2022-03-27T11:26:23.000Z</time>
      </trkpt>
      <trkpt lat="45.64825" lon="6.60096">
        <ele>2158.1</ele>
        <time>2022-03-27T11:26:26.000Z</time>
      </trkpt>
      <trkpt lat="45.64813" lon="6.60098">
        <ele>2156</ele>
        <time>2022-03-27T11:26:29.000Z</time>
      </trkpt>
      <trkpt lat="45.64804" lon="6.60101">
        <ele>2152.9</ele>
        <time>2022-03-27T11:26:33.000Z</time>
      </trkpt>
      <trkpt lat="45.64803" lon="6.60101">
        <ele>2152.4</ele>
        <time>2022-03-27T11:26:36.000Z</time>
      </trkpt>
      <trkpt lat="45.64803" lon="6.60101">
        <ele>2152.6</ele>
        <time>2022-03-27T11:27:15.000Z</time>
      </trkpt>
      <trkpt lat="45.64803" lon="6.60101">
        <ele>2152.6</ele>
        <time>2022-03-27T11:27:16.000Z</time>
      </trkpt>
      <trkpt lat="45.64803" lon="6.601">
        <ele>2152.1</ele>
        <time>2022-03-27T11:27:19.000Z</time>
      </trkpt>
      <trkpt lat="45.64801" lon="6.60087">
        <ele>2147.6</ele>
        <time>2022-03-27T11:27:26.000Z</time>
      </trkpt>
      <trkpt lat="45.64794" lon="6.6008">
        <ele>2141.9</ele>
        <time>2022-03-27T11:27:30.000Z</time>
      </trkpt>
      <trkpt lat="45.64788" lon="6.60068">
        <ele>2135.9</ele>
        <time>2022-03-27T11:27:34.000Z</time>
      </trkpt>
      <trkpt lat="45.64786" lon="6.60054">
        <ele>2130.8</ele>
        <time>2022-03-27T11:27:39.000Z</time>
      </trkpt>
      <trkpt lat="45.6478" lon="6.60041">
        <ele>2126.5</ele>
        <time>2022-03-27T11:27:43.000Z</time>
      </trkpt>
      <trkpt lat="45.64781" lon="6.60025">
        <ele>2124.1</ele>
        <time>2022-03-27T11:27:46.000Z</time>
      </trkpt>
      <trkpt lat="45.6477" lon="6.60029">
        <ele>2119.8</ele>
        <time>2022-03-27T11:27:50.000Z</time>
      </trkpt>
      <trkpt lat="45.6476" lon="6.60029">
        <ele>2117.8</ele>
        <time>2022-03-27T11:27:53.000Z</time>
      </trkpt>
      <trkpt lat="45.64761" lon="6.60011">
        <ele>2114.8</ele>
        <time>2022-03-27T11:27:56.000Z</time>
      </trkpt>
      <trkpt lat="45.64765" lon="6.59997">
        <ele>2112.8</ele>
        <time>2022-03-27T11:27:59.000Z</time>
      </trkpt>
      <trkpt lat="45.64757" lon="6.59991">
        <ele>2107.8</ele>
        <time>2022-03-27T11:28:03.000Z</time>
      </trkpt>
      <trkpt lat="45.64749" lon="6.59983">
        <ele>2101.2</ele>
        <time>2022-03-27T11:28:08.000Z</time>
      </trkpt>
      <trkpt lat="45.64738" lon="6.59979">
        <ele>2099.2</ele>
        <time>2022-03-27T11:28:10.000Z</time>
      </trkpt>
      <trkpt lat="45.64727" lon="6.59974">
        <ele>2095.6</ele>
        <time>2022-03-27T11:28:13.000Z</time>
      </trkpt>
      <trkpt lat="45.6472" lon="6.59964">
        <ele>2093.8</ele>
        <time>2022-03-27T11:28:15.000Z</time>
      </trkpt>
      <trkpt lat="45.64717" lon="6.59962">
        <ele>2091</ele>
        <time>2022-03-27T11:28:20.000Z</time>
      </trkpt>
      <trkpt lat="45.64717" lon="6.59962">
        <ele>2090.8</ele>
        <time>2022-03-27T11:28:25.000Z</time>
      </trkpt>
      <trkpt lat="45.64713" lon="6.59961">
        <ele>2091.1</ele>
        <time>2022-03-27T11:28:32.000Z</time>
      </trkpt>
      <trkpt lat="45.64714" lon="6.59961">
        <ele>2090.8</ele>
        <time>2022-03-27T11:28:37.000Z</time>
      </trkpt>
      <trkpt lat="45.64714" lon="6.59961">
        <ele>2090.8</ele>
        <time>2022-03-27T11:28:38.000Z</time>
      </trkpt>
      <trkpt lat="45.64714" lon="6.59962">
        <ele>2091.3</ele>
        <time>2022-03-27T11:28:53.000Z</time>
      </trkpt>
      <trkpt lat="45.64715" lon="6.59961">
        <ele>2091.1</ele>
        <time>2022-03-27T11:28:57.000Z</time>
      </trkpt>
      <trkpt lat="45.64715" lon="6.59961">
        <ele>2091.1</ele>
        <time>2022-03-27T11:29:01.000Z</time>
      </trkpt>
      <trkpt lat="45.64715" lon="6.59962">
        <ele>2091.1</ele>
        <time>2022-03-27T11:29:02.000Z</time>
      </trkpt>
      <trkpt lat="45.64714" lon="6.59962">
        <ele>2091</ele>
        <time>2022-03-27T11:29:03.000Z</time>
      </trkpt>
      <trkpt lat="45.64704" lon="6.59961">
        <ele>2089.2</ele>
        <time>2022-03-27T11:29:11.000Z</time>
      </trkpt>
      <trkpt lat="45.64695" lon="6.59963">
        <ele>2086.4</ele>
        <time>2022-03-27T11:29:14.000Z</time>
      </trkpt>
      <trkpt lat="45.64683" lon="6.59965">
        <ele>2084.3</ele>
        <time>2022-03-27T11:29:16.000Z</time>
      </trkpt>
      <trkpt lat="45.64669" lon="6.59964">
        <ele>2082.4</ele>
        <time>2022-03-27T11:29:18.000Z</time>
      </trkpt>
      <trkpt lat="45.64658" lon="6.59962">
        <ele>2081.4</ele>
        <time>2022-03-27T11:29:20.000Z</time>
      </trkpt>
      <trkpt lat="45.64649" lon="6.59955">
        <ele>2081.4</ele>
        <time>2022-03-27T11:29:24.000Z</time>
      </trkpt>
      <trkpt lat="45.64637" lon="6.59949">
        <ele>2080.5</ele>
        <time>2022-03-27T11:29:27.000Z</time>
      </trkpt>
      <trkpt lat="45.64628" lon="6.59946">
        <ele>2079.5</ele>
        <time>2022-03-27T11:29:31.000Z</time>
      </trkpt>
      <trkpt lat="45.64616" lon="6.59946">
        <ele>2079.5</ele>
        <time>2022-03-27T11:29:39.000Z</time>
      </trkpt>
      <trkpt lat="45.64605" lon="6.59945">
        <ele>2079.3</ele>
        <time>2022-03-27T11:29:43.000Z</time>
      </trkpt>
      <trkpt lat="45.64593" lon="6.59946">
        <ele>2078.6</ele>
        <time>2022-03-27T11:29:47.000Z</time>
      </trkpt>
      <trkpt lat="45.64584" lon="6.59947">
        <ele>2078.7</ele>
        <time>2022-03-27T11:29:50.000Z</time>
      </trkpt>
      <trkpt lat="45.64573" lon="6.59948">
        <ele>2078</ele>
        <time>2022-03-27T11:29:54.000Z</time>
      </trkpt>
      <trkpt lat="45.64564" lon="6.59951">
        <ele>2078.1</ele>
        <time>2022-03-27T11:29:58.000Z</time>
      </trkpt>
      <trkpt lat="45.64553" lon="6.59956">
        <ele>2077.3</ele>
        <time>2022-03-27T11:30:01.000Z</time>
      </trkpt>
      <trkpt lat="45.64541" lon="6.59959">
        <ele>2075.8</ele>
        <time>2022-03-27T11:30:04.000Z</time>
      </trkpt>
      <trkpt lat="45.64527" lon="6.59961">
        <ele>2075</ele>
        <time>2022-03-27T11:30:07.000Z</time>
      </trkpt>
      <trkpt lat="45.64516" lon="6.5996">
        <ele>2074.4</ele>
        <time>2022-03-27T11:30:09.000Z</time>
      </trkpt>
      <trkpt lat="45.64506" lon="6.59955">
        <ele>2073.7</ele>
        <time>2022-03-27T11:30:11.000Z</time>
      </trkpt>
      <trkpt lat="45.64499" lon="6.59945">
        <ele>2072.5</ele>
        <time>2022-03-27T11:30:13.000Z</time>
      </trkpt>
      <trkpt lat="45.64492" lon="6.59934">
        <ele>2071.6</ele>
        <time>2022-03-27T11:30:15.000Z</time>
      </trkpt>
      <trkpt lat="45.64483" lon="6.59924">
        <ele>2071.5</ele>
        <time>2022-03-27T11:30:18.000Z</time>
      </trkpt>
      <trkpt lat="45.64475" lon="6.59912">
        <ele>2072.2</ele>
        <time>2022-03-27T11:30:22.000Z</time>
      </trkpt>
      <trkpt lat="45.64468" lon="6.59902">
        <ele>2071.5</ele>
        <time>2022-03-27T11:30:24.000Z</time>
      </trkpt>
      <trkpt lat="45.64464" lon="6.5989">
        <ele>2071</ele>
        <time>2022-03-27T11:30:26.000Z</time>
      </trkpt>
      <trkpt lat="45.6446" lon="6.59877">
        <ele>2070.8</ele>
        <time>2022-03-27T11:30:31.000Z</time>
      </trkpt>
      <trkpt lat="45.6446" lon="6.59863">
        <ele>2070.1</ele>
        <time>2022-03-27T11:30:35.000Z</time>
      </trkpt>
      <trkpt lat="45.64461" lon="6.59849">
        <ele>2069.4</ele>
        <time>2022-03-27T11:30:39.000Z</time>
      </trkpt>
      <trkpt lat="45.64463" lon="6.59836">
        <ele>2069.7</ele>
        <time>2022-03-27T11:30:51.000Z</time>
      </trkpt>
      <trkpt lat="45.64463" lon="6.59822">
        <ele>2069.5</ele>
        <time>2022-03-27T11:30:54.000Z</time>
      </trkpt>
      <trkpt lat="45.64463" lon="6.59808">
        <ele>2068.8</ele>
        <time>2022-03-27T11:30:57.000Z</time>
      </trkpt>
      <trkpt lat="45.64463" lon="6.59793">
        <ele>2068.3</ele>
        <time>2022-03-27T11:31:00.000Z</time>
      </trkpt>
      <trkpt lat="45.64463" lon="6.59774">
        <ele>2067.3</ele>
        <time>2022-03-27T11:31:03.000Z</time>
      </trkpt>
      <trkpt lat="45.64462" lon="6.5976">
        <ele>2066.9</ele>
        <time>2022-03-27T11:31:05.000Z</time>
      </trkpt>
      <trkpt lat="45.64462" lon="6.59743">
        <ele>2066.1</ele>
        <time>2022-03-27T11:31:08.000Z</time>
      </trkpt>
      <trkpt lat="45.64462" lon="6.59728">
        <ele>2065.5</ele>
        <time>2022-03-27T11:31:11.000Z</time>
      </trkpt>
      <trkpt lat="45.64465" lon="6.59715">
        <ele>2065</ele>
        <time>2022-03-27T11:31:16.000Z</time>
      </trkpt>
      <trkpt lat="45.64466" lon="6.59701">
        <ele>2064.7</ele>
        <time>2022-03-27T11:31:21.000Z</time>
      </trkpt>
      <trkpt lat="45.64461" lon="6.59689">
        <ele>2064.4</ele>
        <time>2022-03-27T11:31:27.000Z</time>
      </trkpt>
      <trkpt lat="45.64458" lon="6.59686">
        <ele>2063.8</ele>
        <time>2022-03-27T11:31:34.000Z</time>
      </trkpt>
      <trkpt lat="45.64458" lon="6.59686">
        <ele>2063.9</ele>
        <time>2022-03-27T11:31:35.000Z</time>
      </trkpt>
      <trkpt lat="45.64458" lon="6.59686">
        <ele>2063.9</ele>
        <time>2022-03-27T11:31:36.000Z</time>
      </trkpt>
      <trkpt lat="45.64458" lon="6.59685">
        <ele>2064.1</ele>
        <time>2022-03-27T11:31:55.000Z</time>
      </trkpt>
      <trkpt lat="45.64448" lon="6.59682">
        <ele>2063.9</ele>
        <time>2022-03-27T11:32:01.000Z</time>
      </trkpt>
      <trkpt lat="45.64435" lon="6.59681">
        <ele>2062.9</ele>
        <time>2022-03-27T11:32:05.000Z</time>
      </trkpt>
      <trkpt lat="45.64424" lon="6.59682">
        <ele>2061.7</ele>
        <time>2022-03-27T11:32:08.000Z</time>
      </trkpt>
      <trkpt lat="45.64412" lon="6.59684">
        <ele>2060.8</ele>
        <time>2022-03-27T11:32:11.000Z</time>
      </trkpt>
      <trkpt lat="45.64401" lon="6.59688">
        <ele>2060</ele>
        <time>2022-03-27T11:32:14.000Z</time>
      </trkpt>
      <trkpt lat="45.6439" lon="6.59692">
        <ele>2059.7</ele>
        <time>2022-03-27T11:32:17.000Z</time>
      </trkpt>
      <trkpt lat="45.6438" lon="6.59698">
        <ele>2059</ele>
        <time>2022-03-27T11:32:20.000Z</time>
      </trkpt>
      <trkpt lat="45.6437" lon="6.59706">
        <ele>2058.3</ele>
        <time>2022-03-27T11:32:24.000Z</time>
      </trkpt>
      <trkpt lat="45.64362" lon="6.59714">
        <ele>2057.3</ele>
        <time>2022-03-27T11:32:27.000Z</time>
      </trkpt>
      <trkpt lat="45.64355" lon="6.59723">
        <ele>2057.4</ele>
        <time>2022-03-27T11:32:30.000Z</time>
      </trkpt>
      <trkpt lat="45.64347" lon="6.59733">
        <ele>2056.3</ele>
        <time>2022-03-27T11:32:33.000Z</time>
      </trkpt>
      <trkpt lat="45.64337" lon="6.59746">
        <ele>2055.5</ele>
        <time>2022-03-27T11:32:36.000Z</time>
      </trkpt>
      <trkpt lat="45.6433" lon="6.59754">
        <ele>2054.2</ele>
        <time>2022-03-27T11:32:38.000Z</time>
      </trkpt>
      <trkpt lat="45.64323" lon="6.59763">
        <ele>2053.5</ele>
        <time>2022-03-27T11:32:40.000Z</time>
      </trkpt>
      <trkpt lat="45.64314" lon="6.59774">
        <ele>2052.2</ele>
        <time>2022-03-27T11:32:43.000Z</time>
      </trkpt>
      <trkpt lat="45.64304" lon="6.5979">
        <ele>2050.9</ele>
        <time>2022-03-27T11:32:46.000Z</time>
      </trkpt>
      <trkpt lat="45.64293" lon="6.59803">
        <ele>2048.9</ele>
        <time>2022-03-27T11:32:48.000Z</time>
      </trkpt>
      <trkpt lat="45.64281" lon="6.59812">
        <ele>2047.7</ele>
        <time>2022-03-27T11:32:50.000Z</time>
      </trkpt>
      <trkpt lat="45.64269" lon="6.59817">
        <ele>2046.8</ele>
        <time>2022-03-27T11:32:52.000Z</time>
      </trkpt>
      <trkpt lat="45.64258" lon="6.59818">
        <ele>2045.2</ele>
        <time>2022-03-27T11:32:54.000Z</time>
      </trkpt>
      <trkpt lat="45.64247" lon="6.5982">
        <ele>2044.2</ele>
        <time>2022-03-27T11:32:56.000Z</time>
      </trkpt>
      <trkpt lat="45.64237" lon="6.59823">
        <ele>2043.7</ele>
        <time>2022-03-27T11:32:58.000Z</time>
      </trkpt>
      <trkpt lat="45.64228" lon="6.59826">
        <ele>2042.9</ele>
        <time>2022-03-27T11:33:00.000Z</time>
      </trkpt>
      <trkpt lat="45.64221" lon="6.59815">
        <ele>2039.7</ele>
        <time>2022-03-27T11:33:03.000Z</time>
      </trkpt>
      <trkpt lat="45.64211" lon="6.59812">
        <ele>2038.1</ele>
        <time>2022-03-27T11:33:05.000Z</time>
      </trkpt>
      <trkpt lat="45.64205" lon="6.59801">
        <ele>2036.1</ele>
        <time>2022-03-27T11:33:07.000Z</time>
      </trkpt>
      <trkpt lat="45.64198" lon="6.59788">
        <ele>2033.1</ele>
        <time>2022-03-27T11:33:09.000Z</time>
      </trkpt>
      <trkpt lat="45.6419" lon="6.59783">
        <ele>2030.5</ele>
        <time>2022-03-27T11:33:11.000Z</time>
      </trkpt>
      <trkpt lat="45.64182" lon="6.59774">
        <ele>2028.2</ele>
        <time>2022-03-27T11:33:13.000Z</time>
      </trkpt>
      <trkpt lat="45.64174" lon="6.59771">
        <ele>2026.3</ele>
        <time>2022-03-27T11:33:15.000Z</time>
      </trkpt>
      <trkpt lat="45.64169" lon="6.5976">
        <ele>2021.4</ele>
        <time>2022-03-27T11:33:21.000Z</time>
      </trkpt>
      <trkpt lat="45.64169" lon="6.5976">
        <ele>2021.5</ele>
        <time>2022-03-27T11:33:43.000Z</time>
      </trkpt>
      <trkpt lat="45.64169" lon="6.5976">
        <ele>2021.6</ele>
        <time>2022-03-27T11:33:44.000Z</time>
      </trkpt>
      <trkpt lat="45.64169" lon="6.5976">
        <ele>2021.6</ele>
        <time>2022-03-27T11:33:45.000Z</time>
      </trkpt>
      <trkpt lat="45.6417" lon="6.5976">
        <ele>2021.5</ele>
        <time>2022-03-27T11:33:47.000Z</time>
      </trkpt>
      <trkpt lat="45.6417" lon="6.5976">
        <ele>2021.4</ele>
        <time>2022-03-27T11:34:24.000Z</time>
      </trkpt>
      <trkpt lat="45.6417" lon="6.5976">
        <ele>2021.4</ele>
        <time>2022-03-27T11:34:25.000Z</time>
      </trkpt>
      <trkpt lat="45.6417" lon="6.59761">
        <ele>2021.4</ele>
        <time>2022-03-27T11:34:35.000Z</time>
      </trkpt>
      <trkpt lat="45.6417" lon="6.59761">
        <ele>2021.4</ele>
        <time>2022-03-27T11:34:36.000Z</time>
      </trkpt>
      <trkpt lat="45.6417" lon="6.59761">
        <ele>2022</ele>
        <time>2022-03-27T11:35:15.000Z</time>
      </trkpt>
      <trkpt lat="45.6417" lon="6.59761">
        <ele>2021.8</ele>
        <time>2022-03-27T11:35:16.000Z</time>
      </trkpt>
      <trkpt lat="45.6417" lon="6.59761">
        <ele>2021.5</ele>
        <time>2022-03-27T11:35:55.000Z</time>
      </trkpt>
      <trkpt lat="45.6417" lon="6.59761">
        <ele>2021.4</ele>
        <time>2022-03-27T11:35:56.000Z</time>
      </trkpt>
      <trkpt lat="45.64171" lon="6.59761">
        <ele>2021.6</ele>
        <time>2022-03-27T11:36:08.000Z</time>
      </trkpt>
      <trkpt lat="45.64171" lon="6.59761">
        <ele>2021.7</ele>
        <time>2022-03-27T11:36:09.000Z</time>
      </trkpt>
      <trkpt lat="45.64171" lon="6.59761">
        <ele>2021.7</ele>
        <time>2022-03-27T11:36:49.000Z</time>
      </trkpt>
      <trkpt lat="45.64171" lon="6.59761">
        <ele>2021.7</ele>
        <time>2022-03-27T11:36:50.000Z</time>
      </trkpt>
      <trkpt lat="45.64171" lon="6.59761">
        <ele>2021.7</ele>
        <time>2022-03-27T11:37:10.000Z</time>
      </trkpt>
      <trkpt lat="45.64171" lon="6.59761">
        <ele>2021.6</ele>
        <time>2022-03-27T11:37:11.000Z</time>
      </trkpt>
      <trkpt lat="45.64171" lon="6.59761">
        <ele>2021.8</ele>
        <time>2022-03-27T11:37:38.000Z</time>
      </trkpt>
      <trkpt lat="45.64171" lon="6.59761">
        <ele>2021.7</ele>
        <time>2022-03-27T11:37:40.000Z</time>
      </trkpt>
      <trkpt lat="45.64172" lon="6.59761">
        <ele>2021.7</ele>
        <time>2022-03-27T11:37:43.000Z</time>
      </trkpt>
      <trkpt lat="45.64172" lon="6.59761">
        <ele>2021.6</ele>
        <time>2022-03-27T11:37:44.000Z</time>
      </trkpt>
      <trkpt lat="45.64172" lon="6.59761">
        <ele>2021.5</ele>
        <time>2022-03-27T11:37:47.000Z</time>
      </trkpt>
      <trkpt lat="45.64172" lon="6.59761">
        <ele>2021.7</ele>
        <time>2022-03-27T11:37:48.000Z</time>
      </trkpt>
      <trkpt lat="45.64172" lon="6.59761">
        <ele>2021.7</ele>
        <time>2022-03-27T11:38:47.000Z</time>
      </trkpt>
      <trkpt lat="45.64172" lon="6.59761">
        <ele>2021.7</ele>
        <time>2022-03-27T11:38:48.000Z</time>
      </trkpt>
      <trkpt lat="45.64172" lon="6.59761">
        <ele>2021.7</ele>
        <time>2022-03-27T11:38:52.000Z</time>
      </trkpt>
      <trkpt lat="45.64172" lon="6.59761">
        <ele>2021.6</ele>
        <time>2022-03-27T11:38:53.000Z</time>
      </trkpt>
      <trkpt lat="45.64172" lon="6.59761">
        <ele>2021.3</ele>
        <time>2022-03-27T11:41:30.000Z</time>
      </trkpt>
      <trkpt lat="45.64172" lon="6.59761">
        <ele>2021.5</ele>
        <time>2022-03-27T11:41:31.000Z</time>
      </trkpt>
      <trkpt lat="45.64172" lon="6.59761">
        <ele>2021.6</ele>
        <time>2022-03-27T11:41:43.000Z</time>
      </trkpt>
      <trkpt lat="45.64178" lon="6.5975">
        <ele>2020.2</ele>
        <time>2022-03-27T11:41:51.000Z</time>
      </trkpt>
      <trkpt lat="45.64182" lon="6.59738">
        <ele>2019</ele>
        <time>2022-03-27T11:41:55.000Z</time>
      </trkpt>
      <trkpt lat="45.64177" lon="6.59727">
        <ele>2015.3</ele>
        <time>2022-03-27T11:41:58.000Z</time>
      </trkpt>
      <trkpt lat="45.64172" lon="6.59715">
        <ele>2012.6</ele>
        <time>2022-03-27T11:42:01.000Z</time>
      </trkpt>
      <trkpt lat="45.64168" lon="6.597">
        <ele>2007.4</ele>
        <time>2022-03-27T11:42:04.000Z</time>
      </trkpt>
      <trkpt lat="45.64158" lon="6.59694">
        <ele>2004</ele>
        <time>2022-03-27T11:42:07.000Z</time>
      </trkpt>
      <trkpt lat="45.64156" lon="6.59681">
        <ele>1999</ele>
        <time>2022-03-27T11:42:10.000Z</time>
      </trkpt>
      <trkpt lat="45.64149" lon="6.59672">
        <ele>1994.2</ele>
        <time>2022-03-27T11:42:13.000Z</time>
      </trkpt>
      <trkpt lat="45.64138" lon="6.59669">
        <ele>1990.2</ele>
        <time>2022-03-27T11:42:16.000Z</time>
      </trkpt>
      <trkpt lat="45.64127" lon="6.5967">
        <ele>1988.2</ele>
        <time>2022-03-27T11:42:19.000Z</time>
      </trkpt>
      <trkpt lat="45.64116" lon="6.59668">
        <ele>1987</ele>
        <time>2022-03-27T11:42:22.000Z</time>
      </trkpt>
      <trkpt lat="45.64109" lon="6.59653">
        <ele>1982.7</ele>
        <time>2022-03-27T11:42:25.000Z</time>
      </trkpt>
      <trkpt lat="45.64101" lon="6.59643">
        <ele>1977.6</ele>
        <time>2022-03-27T11:42:28.000Z</time>
      </trkpt>
      <trkpt lat="45.64091" lon="6.59639">
        <ele>1973.9</ele>
        <time>2022-03-27T11:42:31.000Z</time>
      </trkpt>
      <trkpt lat="45.64083" lon="6.59629">
        <ele>1970.6</ele>
        <time>2022-03-27T11:42:34.000Z</time>
      </trkpt>
      <trkpt lat="45.64077" lon="6.59619">
        <ele>1967.4</ele>
        <time>2022-03-27T11:42:36.000Z</time>
      </trkpt>
      <trkpt lat="45.64066" lon="6.59624">
        <ele>1965.4</ele>
        <time>2022-03-27T11:42:39.000Z</time>
      </trkpt>
      <trkpt lat="45.64056" lon="6.59624">
        <ele>1964.1</ele>
        <time>2022-03-27T11:42:42.000Z</time>
      </trkpt>
      <trkpt lat="45.64044" lon="6.59616">
        <ele>1961.6</ele>
        <time>2022-03-27T11:42:45.000Z</time>
      </trkpt>
      <trkpt lat="45.64034" lon="6.59604">
        <ele>1957.8</ele>
        <time>2022-03-27T11:42:48.000Z</time>
      </trkpt>
      <trkpt lat="45.64028" lon="6.59592">
        <ele>1954.9</ele>
        <time>2022-03-27T11:42:51.000Z</time>
      </trkpt>
      <trkpt lat="45.64021" lon="6.59581">
        <ele>1952.2</ele>
        <time>2022-03-27T11:42:53.000Z</time>
      </trkpt>
      <trkpt lat="45.64011" lon="6.59573">
        <ele>1950.7</ele>
        <time>2022-03-27T11:42:55.000Z</time>
      </trkpt>
      <trkpt lat="45.64001" lon="6.59566">
        <ele>1947.9</ele>
        <time>2022-03-27T11:42:58.000Z</time>
      </trkpt>
      <trkpt lat="45.63994" lon="6.59554">
        <ele>1946.5</ele>
        <time>2022-03-27T11:43:00.000Z</time>
      </trkpt>
      <trkpt lat="45.63987" lon="6.59543">
        <ele>1944.6</ele>
        <time>2022-03-27T11:43:02.000Z</time>
      </trkpt>
      <trkpt lat="45.63976" lon="6.59536">
        <ele>1943.5</ele>
        <time>2022-03-27T11:43:05.000Z</time>
      </trkpt>
      <trkpt lat="45.63966" lon="6.5953">
        <ele>1941.8</ele>
        <time>2022-03-27T11:43:09.000Z</time>
      </trkpt>
      <trkpt lat="45.63965" lon="6.59524">
        <ele>1938.7</ele>
        <time>2022-03-27T11:43:14.000Z</time>
      </trkpt>
      <trkpt lat="45.63965" lon="6.59524">
        <ele>1938.6</ele>
        <time>2022-03-27T11:43:16.000Z</time>
      </trkpt>
      <trkpt lat="45.63965" lon="6.59524">
        <ele>1938.7</ele>
        <time>2022-03-27T11:43:17.000Z</time>
      </trkpt>
      <trkpt lat="45.63965" lon="6.59524">
        <ele>1938.7</ele>
        <time>2022-03-27T11:43:18.000Z</time>
      </trkpt>
      <trkpt lat="45.63965" lon="6.59518">
        <ele>1937.6</ele>
        <time>2022-03-27T11:43:25.000Z</time>
      </trkpt>
      <trkpt lat="45.63965" lon="6.59518">
        <ele>1937.7</ele>
        <time>2022-03-27T11:43:47.000Z</time>
      </trkpt>
      <trkpt lat="45.63965" lon="6.59518">
        <ele>1938</ele>
        <time>2022-03-27T11:43:48.000Z</time>
      </trkpt>
      <trkpt lat="45.63965" lon="6.59518">
        <ele>1937.7</ele>
        <time>2022-03-27T11:43:52.000Z</time>
      </trkpt>
      <trkpt lat="45.63965" lon="6.59518">
        <ele>1937.6</ele>
        <time>2022-03-27T11:43:53.000Z</time>
      </trkpt>
      <trkpt lat="45.63966" lon="6.59518">
        <ele>1937.7</ele>
        <time>2022-03-27T11:44:01.000Z</time>
      </trkpt>
      <trkpt lat="45.63966" lon="6.59518">
        <ele>1937.9</ele>
        <time>2022-03-27T11:44:02.000Z</time>
      </trkpt>
      <trkpt lat="45.63966" lon="6.59518">
        <ele>1938</ele>
        <time>2022-03-27T11:44:04.000Z</time>
      </trkpt>
      <trkpt lat="45.63966" lon="6.59518">
        <ele>1937.7</ele>
        <time>2022-03-27T11:44:05.000Z</time>
      </trkpt>
      <trkpt lat="45.63966" lon="6.59518">
        <ele>1937.6</ele>
        <time>2022-03-27T11:44:06.000Z</time>
      </trkpt>
      <trkpt lat="45.6397" lon="6.59519">
        <ele>1937.7</ele>
        <time>2022-03-27T11:44:13.000Z</time>
      </trkpt>
      <trkpt lat="45.63969" lon="6.59518">
        <ele>1937.7</ele>
        <time>2022-03-27T11:44:15.000Z</time>
      </trkpt>
      <trkpt lat="45.63978" lon="6.59513">
        <ele>1935.8</ele>
        <time>2022-03-27T11:44:20.000Z</time>
      </trkpt>
      <trkpt lat="45.6398" lon="6.59499">
        <ele>1931.9</ele>
        <time>2022-03-27T11:44:27.000Z</time>
      </trkpt>
      <trkpt lat="45.63981" lon="6.59482">
        <ele>1927.3</ele>
        <time>2022-03-27T11:44:32.000Z</time>
      </trkpt>
      <trkpt lat="45.63987" lon="6.59469">
        <ele>1921.4</ele>
        <time>2022-03-27T11:44:36.000Z</time>
      </trkpt>
      <trkpt lat="45.63981" lon="6.59456">
        <ele>1915.8</ele>
        <time>2022-03-27T11:44:40.000Z</time>
      </trkpt>
      <trkpt lat="45.63975" lon="6.59445">
        <ele>1909.4</ele>
        <time>2022-03-27T11:44:43.000Z</time>
      </trkpt>
      <trkpt lat="45.63971" lon="6.59431">
        <ele>1904.9</ele>
        <time>2022-03-27T11:44:46.000Z</time>
      </trkpt>
      <trkpt lat="45.63972" lon="6.59415">
        <ele>1900</ele>
        <time>2022-03-27T11:44:49.000Z</time>
      </trkpt>
      <trkpt lat="45.63971" lon="6.59399">
        <ele>1895.7</ele>
        <time>2022-03-27T11:44:52.000Z</time>
      </trkpt>
      <trkpt lat="45.63964" lon="6.59386">
        <ele>1891.8</ele>
        <time>2022-03-27T11:44:55.000Z</time>
      </trkpt>
      <trkpt lat="45.63959" lon="6.59374">
        <ele>1888.1</ele>
        <time>2022-03-27T11:44:58.000Z</time>
      </trkpt>
      <trkpt lat="45.63961" lon="6.59359">
        <ele>1884.1</ele>
        <time>2022-03-27T11:45:02.000Z</time>
      </trkpt>
      <trkpt lat="45.63965" lon="6.59345">
        <ele>1882.2</ele>
        <time>2022-03-27T11:45:05.000Z</time>
      </trkpt>
      <trkpt lat="45.63969" lon="6.59333">
        <ele>1878</ele>
        <time>2022-03-27T11:45:08.000Z</time>
      </trkpt>
      <trkpt lat="45.63965" lon="6.59321">
        <ele>1874</ele>
        <time>2022-03-27T11:45:12.000Z</time>
      </trkpt>
      <trkpt lat="45.63968" lon="6.59308">
        <ele>1870.1</ele>
        <time>2022-03-27T11:45:16.000Z</time>
      </trkpt>
      <trkpt lat="45.63965" lon="6.59294">
        <ele>1864.5</ele>
        <time>2022-03-27T11:45:23.000Z</time>
      </trkpt>
      <trkpt lat="45.63969" lon="6.5928">
        <ele>1860.8</ele>
        <time>2022-03-27T11:45:26.000Z</time>
      </trkpt>
      <trkpt lat="45.63958" lon="6.59274">
        <ele>1856.1</ele>
        <time>2022-03-27T11:45:31.000Z</time>
      </trkpt>
      <trkpt lat="45.63955" lon="6.59261">
        <ele>1852.3</ele>
        <time>2022-03-27T11:45:36.000Z</time>
      </trkpt>
      <trkpt lat="45.63956" lon="6.59247">
        <ele>1848.7</ele>
        <time>2022-03-27T11:45:40.000Z</time>
      </trkpt>
      <trkpt lat="45.63952" lon="6.59234">
        <ele>1843.4</ele>
        <time>2022-03-27T11:45:43.000Z</time>
      </trkpt>
      <trkpt lat="45.63948" lon="6.59219">
        <ele>1837.8</ele>
        <time>2022-03-27T11:45:47.000Z</time>
      </trkpt>
      <trkpt lat="45.63943" lon="6.59207">
        <ele>1833.7</ele>
        <time>2022-03-27T11:45:50.000Z</time>
      </trkpt>
      <trkpt lat="45.63943" lon="6.59205">
        <ele>1830.4</ele>
        <time>2022-03-27T11:45:53.000Z</time>
      </trkpt>
      <trkpt lat="45.63943" lon="6.59205">
        <ele>1830.1</ele>
        <time>2022-03-27T11:45:54.000Z</time>
      </trkpt>
      <trkpt lat="45.63943" lon="6.59205">
        <ele>1830.1</ele>
        <time>2022-03-27T11:45:56.000Z</time>
      </trkpt>
      <trkpt lat="45.63944" lon="6.59205">
        <ele>1830.2</ele>
        <time>2022-03-27T11:45:57.000Z</time>
      </trkpt>
      <trkpt lat="45.63944" lon="6.59205">
        <ele>1830.1</ele>
        <time>2022-03-27T11:45:58.000Z</time>
      </trkpt>
      <trkpt lat="45.63944" lon="6.59205">
        <ele>1829.9</ele>
        <time>2022-03-27T11:46:09.000Z</time>
      </trkpt>
      <trkpt lat="45.63944" lon="6.59205">
        <ele>1829.8</ele>
        <time>2022-03-27T11:46:12.000Z</time>
      </trkpt>
      <trkpt lat="45.63944" lon="6.59205">
        <ele>1829.6</ele>
        <time>2022-03-27T11:46:24.000Z</time>
      </trkpt>
      <trkpt lat="45.63944" lon="6.59205">
        <ele>1829.6</ele>
        <time>2022-03-27T11:46:25.000Z</time>
      </trkpt>
      <trkpt lat="45.63944" lon="6.59205">
        <ele>1829.5</ele>
        <time>2022-03-27T11:46:34.000Z</time>
      </trkpt>
      <trkpt lat="45.63936" lon="6.592">
        <ele>1827.7</ele>
        <time>2022-03-27T11:46:39.000Z</time>
      </trkpt>
      <trkpt lat="45.63933" lon="6.59199">
        <ele>1826.4</ele>
        <time>2022-03-27T11:46:44.000Z</time>
      </trkpt>
      <trkpt lat="45.63933" lon="6.59198">
        <ele>1826.3</ele>
        <time>2022-03-27T11:46:47.000Z</time>
      </trkpt>
      <trkpt lat="45.63931" lon="6.59186">
        <ele>1822.7</ele>
        <time>2022-03-27T11:46:51.000Z</time>
      </trkpt>
      <trkpt lat="45.63926" lon="6.59173">
        <ele>1818.1</ele>
        <time>2022-03-27T11:46:54.000Z</time>
      </trkpt>
      <trkpt lat="45.63917" lon="6.59165">
        <ele>1813.5</ele>
        <time>2022-03-27T11:46:57.000Z</time>
      </trkpt>
      <trkpt lat="45.63912" lon="6.59153">
        <ele>1809.4</ele>
        <time>2022-03-27T11:47:00.000Z</time>
      </trkpt>
      <trkpt lat="45.63902" lon="6.5915">
        <ele>1804.8</ele>
        <time>2022-03-27T11:47:03.000Z</time>
      </trkpt>
      <trkpt lat="45.63893" lon="6.59149">
        <ele>1802.3</ele>
        <time>2022-03-27T11:47:07.000Z</time>
      </trkpt>
      <trkpt lat="45.63886" lon="6.5914">
        <ele>1798.9</ele>
        <time>2022-03-27T11:47:10.000Z</time>
      </trkpt>
      <trkpt lat="45.63876" lon="6.59126">
        <ele>1794.8</ele>
        <time>2022-03-27T11:47:13.000Z</time>
      </trkpt>
      <trkpt lat="45.63876" lon="6.59109">
        <ele>1789.4</ele>
        <time>2022-03-27T11:47:17.000Z</time>
      </trkpt>
      <trkpt lat="45.63883" lon="6.59094">
        <ele>1785.1</ele>
        <time>2022-03-27T11:47:21.000Z</time>
      </trkpt>
      <trkpt lat="45.63882" lon="6.59077">
        <ele>1781.1</ele>
        <time>2022-03-27T11:47:25.000Z</time>
      </trkpt>
      <trkpt lat="45.63881" lon="6.59073">
        <ele>1779.1</ele>
        <time>2022-03-27T11:47:29.000Z</time>
      </trkpt>
      <trkpt lat="45.63882" lon="6.59074">
        <ele>1779.1</ele>
        <time>2022-03-27T11:47:31.000Z</time>
      </trkpt>
      <trkpt lat="45.63882" lon="6.59074">
        <ele>1779.2</ele>
        <time>2022-03-27T11:47:33.000Z</time>
      </trkpt>
      <trkpt lat="45.63882" lon="6.59074">
        <ele>1779.2</ele>
        <time>2022-03-27T11:47:34.000Z</time>
      </trkpt>
      <trkpt lat="45.63885" lon="6.59073">
        <ele>1779</ele>
        <time>2022-03-27T11:47:42.000Z</time>
      </trkpt>
      <trkpt lat="45.63885" lon="6.59073">
        <ele>1779.2</ele>
        <time>2022-03-27T11:47:44.000Z</time>
      </trkpt>
      <trkpt lat="45.63885" lon="6.59073">
        <ele>1779</ele>
        <time>2022-03-27T11:47:46.000Z</time>
      </trkpt>
      <trkpt lat="45.63885" lon="6.59072">
        <ele>1778.7</ele>
        <time>2022-03-27T11:47:47.000Z</time>
      </trkpt>
      <trkpt lat="45.63885" lon="6.59072">
        <ele>1778.9</ele>
        <time>2022-03-27T11:47:48.000Z</time>
      </trkpt>
      <trkpt lat="45.63886" lon="6.59072">
        <ele>1779.1</ele>
        <time>2022-03-27T11:47:56.000Z</time>
      </trkpt>
      <trkpt lat="45.63886" lon="6.59072">
        <ele>1779.1</ele>
        <time>2022-03-27T11:47:57.000Z</time>
      </trkpt>
      <trkpt lat="45.63886" lon="6.59071">
        <ele>1779.1</ele>
        <time>2022-03-27T11:47:58.000Z</time>
      </trkpt>
      <trkpt lat="45.63886" lon="6.5907">
        <ele>1779</ele>
        <time>2022-03-27T11:48:01.000Z</time>
      </trkpt>
      <trkpt lat="45.63886" lon="6.59071">
        <ele>1779</ele>
        <time>2022-03-27T11:48:03.000Z</time>
      </trkpt>
      <trkpt lat="45.63885" lon="6.59073">
        <ele>1778.9</ele>
        <time>2022-03-27T11:48:13.000Z</time>
      </trkpt>
      <trkpt lat="45.63884" lon="6.59073">
        <ele>1778.8</ele>
        <time>2022-03-27T11:48:14.000Z</time>
      </trkpt>
      <trkpt lat="45.63884" lon="6.59073">
        <ele>1778.6</ele>
        <time>2022-03-27T11:48:15.000Z</time>
      </trkpt>
      <trkpt lat="45.63884" lon="6.59074">
        <ele>1779.2</ele>
        <time>2022-03-27T11:48:21.000Z</time>
      </trkpt>
      <trkpt lat="45.63884" lon="6.59074">
        <ele>1779</ele>
        <time>2022-03-27T11:48:23.000Z</time>
      </trkpt>
      <trkpt lat="45.63883" lon="6.59075">
        <ele>1779.3</ele>
        <time>2022-03-27T11:48:49.000Z</time>
      </trkpt>
      <trkpt lat="45.63883" lon="6.59075">
        <ele>1779.1</ele>
        <time>2022-03-27T11:48:50.000Z</time>
      </trkpt>
      <trkpt lat="45.63883" lon="6.59075">
        <ele>1778.8</ele>
        <time>2022-03-27T11:49:16.000Z</time>
      </trkpt>
      <trkpt lat="45.63883" lon="6.59075">
        <ele>1778.8</ele>
        <time>2022-03-27T11:49:17.000Z</time>
      </trkpt>
      <trkpt lat="45.63883" lon="6.59075">
        <ele>1779</ele>
        <time>2022-03-27T11:49:41.000Z</time>
      </trkpt>
      <trkpt lat="45.63883" lon="6.59075">
        <ele>1779.1</ele>
        <time>2022-03-27T11:49:43.000Z</time>
      </trkpt>
      <trkpt lat="45.63883" lon="6.59075">
        <ele>1779.2</ele>
        <time>2022-03-27T11:49:44.000Z</time>
      </trkpt>
      <trkpt lat="45.63882" lon="6.59076">
        <ele>1778.9</ele>
        <time>2022-03-27T11:49:48.000Z</time>
      </trkpt>
      <trkpt lat="45.63882" lon="6.59076">
        <ele>1779.1</ele>
        <time>2022-03-27T11:49:51.000Z</time>
      </trkpt>
      <trkpt lat="45.63882" lon="6.59076">
        <ele>1779.2</ele>
        <time>2022-03-27T11:49:52.000Z</time>
      </trkpt>
      <trkpt lat="45.63882" lon="6.59076">
        <ele>1779</ele>
        <time>2022-03-27T11:49:53.000Z</time>
      </trkpt>
      <trkpt lat="45.63882" lon="6.59076">
        <ele>1779</ele>
        <time>2022-03-27T11:49:54.000Z</time>
      </trkpt>
      <trkpt lat="45.63881" lon="6.59076">
        <ele>1779.4</ele>
        <time>2022-03-27T11:49:57.000Z</time>
      </trkpt>
      <trkpt lat="45.63878" lon="6.59074">
        <ele>1779.2</ele>
        <time>2022-03-27T11:50:01.000Z</time>
      </trkpt>
      <trkpt lat="45.63878" lon="6.59074">
        <ele>1779</ele>
        <time>2022-03-27T11:50:08.000Z</time>
      </trkpt>
      <trkpt lat="45.63878" lon="6.59074">
        <ele>1778.9</ele>
        <time>2022-03-27T11:50:09.000Z</time>
      </trkpt>
      <trkpt lat="45.63878" lon="6.59074">
        <ele>1779.6</ele>
        <time>2022-03-27T11:50:24.000Z</time>
      </trkpt>
      <trkpt lat="45.63877" lon="6.59074">
        <ele>1779.3</ele>
        <time>2022-03-27T11:50:29.000Z</time>
      </trkpt>
      <trkpt lat="45.63877" lon="6.59074">
        <ele>1779.1</ele>
        <time>2022-03-27T11:50:33.000Z</time>
      </trkpt>
      <trkpt lat="45.63877" lon="6.59074">
        <ele>1779.1</ele>
        <time>2022-03-27T11:50:34.000Z</time>
      </trkpt>
      <trkpt lat="45.63877" lon="6.59074">
        <ele>1779</ele>
        <time>2022-03-27T11:50:38.000Z</time>
      </trkpt>
      <trkpt lat="45.63877" lon="6.59074">
        <ele>1779.1</ele>
        <time>2022-03-27T11:50:39.000Z</time>
      </trkpt>
      <trkpt lat="45.63877" lon="6.59074">
        <ele>1778.8</ele>
        <time>2022-03-27T11:50:45.000Z</time>
      </trkpt>
      <trkpt lat="45.63877" lon="6.59074">
        <ele>1778.9</ele>
        <time>2022-03-27T11:50:46.000Z</time>
      </trkpt>
      <trkpt lat="45.63877" lon="6.59074">
        <ele>1778.9</ele>
        <time>2022-03-27T11:50:49.000Z</time>
      </trkpt>
      <trkpt lat="45.63877" lon="6.59074">
        <ele>1778.9</ele>
        <time>2022-03-27T11:50:51.000Z</time>
      </trkpt>
      <trkpt lat="45.63877" lon="6.59074">
        <ele>1779</ele>
        <time>2022-03-27T11:51:01.000Z</time>
      </trkpt>
      <trkpt lat="45.63877" lon="6.59074">
        <ele>1779.1</ele>
        <time>2022-03-27T11:51:02.000Z</time>
      </trkpt>
      <trkpt lat="45.63877" lon="6.59074">
        <ele>1778.7</ele>
        <time>2022-03-27T11:51:05.000Z</time>
      </trkpt>
      <trkpt lat="45.63877" lon="6.59074">
        <ele>1778.7</ele>
        <time>2022-03-27T11:51:06.000Z</time>
      </trkpt>
      <trkpt lat="45.63877" lon="6.59074">
        <ele>1778.9</ele>
        <time>2022-03-27T11:51:19.000Z</time>
      </trkpt>
      <trkpt lat="45.63878" lon="6.59074">
        <ele>1778.9</ele>
        <time>2022-03-27T11:51:22.000Z</time>
      </trkpt>
      <trkpt lat="45.63878" lon="6.59074">
        <ele>1778.7</ele>
        <time>2022-03-27T11:51:54.000Z</time>
      </trkpt>
      <trkpt lat="45.63888" lon="6.59073">
        <ele>1777.6</ele>
        <time>2022-03-27T11:52:04.000Z</time>
      </trkpt>
      <trkpt lat="45.63896" lon="6.59067">
        <ele>1775.2</ele>
        <time>2022-03-27T11:52:08.000Z</time>
      </trkpt>
      <trkpt lat="45.63898" lon="6.59063">
        <ele>1774.4</ele>
        <time>2022-03-27T11:52:15.000Z</time>
      </trkpt>
      <trkpt lat="45.63898" lon="6.59063">
        <ele>1774.3</ele>
        <time>2022-03-27T11:52:16.000Z</time>
      </trkpt>
      <trkpt lat="45.63894" lon="6.59051">
        <ele>1771</ele>
        <time>2022-03-27T11:52:25.000Z</time>
      </trkpt>
      <trkpt lat="45.63903" lon="6.59041">
        <ele>1765.8</ele>
        <time>2022-03-27T11:52:30.000Z</time>
      </trkpt>
      <trkpt lat="45.63907" lon="6.59028">
        <ele>1760.2</ele>
        <time>2022-03-27T11:52:36.000Z</time>
      </trkpt>
      <trkpt lat="45.63911" lon="6.59017">
        <ele>1755.1</ele>
        <time>2022-03-27T11:52:42.000Z</time>
      </trkpt>
      <trkpt lat="45.63921" lon="6.59009">
        <ele>1752.5</ele>
        <time>2022-03-27T11:52:46.000Z</time>
      </trkpt>
      <trkpt lat="45.6393" lon="6.58997">
        <ele>1749.9</ele>
        <time>2022-03-27T11:52:49.000Z</time>
      </trkpt>
      <trkpt lat="45.63939" lon="6.58991">
        <ele>1747.4</ele>
        <time>2022-03-27T11:52:52.000Z</time>
      </trkpt>
      <trkpt lat="45.63945" lon="6.58981">
        <ele>1745.1</ele>
        <time>2022-03-27T11:52:57.000Z</time>
      </trkpt>
      <trkpt lat="45.6395" lon="6.58967">
        <ele>1741.5</ele>
        <time>2022-03-27T11:53:00.000Z</time>
      </trkpt>
      <trkpt lat="45.63959" lon="6.58955">
        <ele>1737.7</ele>
        <time>2022-03-27T11:53:03.000Z</time>
      </trkpt>
      <trkpt lat="45.63968" lon="6.5895">
        <ele>1736.1</ele>
        <time>2022-03-27T11:53:07.000Z</time>
      </trkpt>
      <trkpt lat="45.63975" lon="6.58943">
        <ele>1734.6</ele>
        <time>2022-03-27T11:53:11.000Z</time>
      </trkpt>
      <trkpt lat="45.63966" lon="6.58937">
        <ele>1726.1</ele>
        <time>2022-03-27T11:53:34.000Z</time>
      </trkpt>
      <trkpt lat="45.63962" lon="6.58925">
        <ele>1722.4</ele>
        <time>2022-03-27T11:53:43.000Z</time>
      </trkpt>
      <trkpt lat="45.63963" lon="6.58922">
        <ele>1719.7</ele>
        <time>2022-03-27T11:53:47.000Z</time>
      </trkpt>
      <trkpt lat="45.63963" lon="6.58922">
        <ele>1719.3</ele>
        <time>2022-03-27T11:53:49.000Z</time>
      </trkpt>
      <trkpt lat="45.63962" lon="6.58922">
        <ele>1719.5</ele>
        <time>2022-03-27T11:53:52.000Z</time>
      </trkpt>
      <trkpt lat="45.63962" lon="6.58921">
        <ele>1719.9</ele>
        <time>2022-03-27T11:54:02.000Z</time>
      </trkpt>
      <trkpt lat="45.63964" lon="6.58908">
        <ele>1714.2</ele>
        <time>2022-03-27T11:54:09.000Z</time>
      </trkpt>
      <trkpt lat="45.63963" lon="6.58907">
        <ele>1713.1</ele>
        <time>2022-03-27T11:54:12.000Z</time>
      </trkpt>
      <trkpt lat="45.63963" lon="6.58907">
        <ele>1713.4</ele>
        <time>2022-03-27T11:54:16.000Z</time>
      </trkpt>
      <trkpt lat="45.63963" lon="6.58907">
        <ele>1713.2</ele>
        <time>2022-03-27T11:54:17.000Z</time>
      </trkpt>
      <trkpt lat="45.63963" lon="6.58907">
        <ele>1713</ele>
        <time>2022-03-27T11:54:18.000Z</time>
      </trkpt>
      <trkpt lat="45.63963" lon="6.58907">
        <ele>1712.8</ele>
        <time>2022-03-27T11:54:21.000Z</time>
      </trkpt>
      <trkpt lat="45.63962" lon="6.58908">
        <ele>1713.3</ele>
        <time>2022-03-27T11:54:28.000Z</time>
      </trkpt>
      <trkpt lat="45.63962" lon="6.58908">
        <ele>1713.4</ele>
        <time>2022-03-27T11:54:31.000Z</time>
      </trkpt>
      <trkpt lat="45.63962" lon="6.58908">
        <ele>1713.3</ele>
        <time>2022-03-27T11:54:32.000Z</time>
      </trkpt>
      <trkpt lat="45.63962" lon="6.58907">
        <ele>1713</ele>
        <time>2022-03-27T11:54:33.000Z</time>
      </trkpt>
      <trkpt lat="45.63962" lon="6.58907">
        <ele>1712.9</ele>
        <time>2022-03-27T11:54:34.000Z</time>
      </trkpt>
      <trkpt lat="45.63962" lon="6.58907">
        <ele>1713</ele>
        <time>2022-03-27T11:54:35.000Z</time>
      </trkpt>
      <trkpt lat="45.63963" lon="6.58907">
        <ele>1713.1</ele>
        <time>2022-03-27T11:54:37.000Z</time>
      </trkpt>
      <trkpt lat="45.63963" lon="6.58907">
        <ele>1713</ele>
        <time>2022-03-27T11:54:39.000Z</time>
      </trkpt>
      <trkpt lat="45.63963" lon="6.58906">
        <ele>1713.2</ele>
        <time>2022-03-27T11:54:40.000Z</time>
      </trkpt>
      <trkpt lat="45.63963" lon="6.58906">
        <ele>1713.3</ele>
        <time>2022-03-27T11:54:41.000Z</time>
      </trkpt>
      <trkpt lat="45.63963" lon="6.58906">
        <ele>1713.3</ele>
        <time>2022-03-27T11:54:43.000Z</time>
      </trkpt>
      <trkpt lat="45.63963" lon="6.58905">
        <ele>1713.2</ele>
        <time>2022-03-27T11:54:45.000Z</time>
      </trkpt>
      <trkpt lat="45.63964" lon="6.58905">
        <ele>1713.2</ele>
        <time>2022-03-27T11:54:46.000Z</time>
      </trkpt>
      <trkpt lat="45.63964" lon="6.58905">
        <ele>1713.3</ele>
        <time>2022-03-27T11:54:47.000Z</time>
      </trkpt>
      <trkpt lat="45.63964" lon="6.58905">
        <ele>1713.5</ele>
        <time>2022-03-27T11:54:48.000Z</time>
      </trkpt>
      <trkpt lat="45.63964" lon="6.58905">
        <ele>1713.6</ele>
        <time>2022-03-27T11:54:50.000Z</time>
      </trkpt>
      <trkpt lat="45.63964" lon="6.58905">
        <ele>1713.9</ele>
        <time>2022-03-27T11:54:54.000Z</time>
      </trkpt>
      <trkpt lat="45.63964" lon="6.58905">
        <ele>1714</ele>
        <time>2022-03-27T11:54:56.000Z</time>
      </trkpt>
      <trkpt lat="45.63964" lon="6.58905">
        <ele>1713.8</ele>
        <time>2022-03-27T11:54:57.000Z</time>
      </trkpt>
      <trkpt lat="45.63968" lon="6.58892">
        <ele>1708.1</ele>
        <time>2022-03-27T11:55:15.000Z</time>
      </trkpt>
      <trkpt lat="45.63962" lon="6.58882">
        <ele>1705</ele>
        <time>2022-03-27T11:55:23.000Z</time>
      </trkpt>
      <trkpt lat="45.6396" lon="6.58874">
        <ele>1701.9</ele>
        <time>2022-03-27T11:55:34.000Z</time>
      </trkpt>
      <trkpt lat="45.6396" lon="6.58874">
        <ele>1701.9</ele>
        <time>2022-03-27T11:55:37.000Z</time>
      </trkpt>
      <trkpt lat="45.63963" lon="6.58879">
        <ele>1702.3</ele>
        <time>2022-03-27T11:55:43.000Z</time>
      </trkpt>
      <trkpt lat="45.63963" lon="6.58879">
        <ele>1702.2</ele>
        <time>2022-03-27T11:55:45.000Z</time>
      </trkpt>
      <trkpt lat="45.63962" lon="6.5888">
        <ele>1702.2</ele>
        <time>2022-03-27T11:55:47.000Z</time>
      </trkpt>
      <trkpt lat="45.63962" lon="6.58879">
        <ele>1702.7</ele>
        <time>2022-03-27T11:55:51.000Z</time>
      </trkpt>
      <trkpt lat="45.63962" lon="6.58879">
        <ele>1702.8</ele>
        <time>2022-03-27T11:55:52.000Z</time>
      </trkpt>
      <trkpt lat="45.63962" lon="6.58879">
        <ele>1702.7</ele>
        <time>2022-03-27T11:55:55.000Z</time>
      </trkpt>
      <trkpt lat="45.63962" lon="6.58879">
        <ele>1702.6</ele>
        <time>2022-03-27T11:55:56.000Z</time>
      </trkpt>
      <trkpt lat="45.63962" lon="6.58879">
        <ele>1702.8</ele>
        <time>2022-03-27T11:55:57.000Z</time>
      </trkpt>
      <trkpt lat="45.63963" lon="6.58879">
        <ele>1703</ele>
        <time>2022-03-27T11:56:00.000Z</time>
      </trkpt>
      <trkpt lat="45.63962" lon="6.58879">
        <ele>1702.9</ele>
        <time>2022-03-27T11:56:01.000Z</time>
      </trkpt>
      <trkpt lat="45.63962" lon="6.58879">
        <ele>1703</ele>
        <time>2022-03-27T11:56:02.000Z</time>
      </trkpt>
      <trkpt lat="45.63962" lon="6.58879">
        <ele>1702.8</ele>
        <time>2022-03-27T11:56:03.000Z</time>
      </trkpt>
      <trkpt lat="45.63963" lon="6.5888">
        <ele>1702.8</ele>
        <time>2022-03-27T11:56:08.000Z</time>
      </trkpt>
      <trkpt lat="45.63964" lon="6.5888">
        <ele>1702.9</ele>
        <time>2022-03-27T11:56:10.000Z</time>
      </trkpt>
      <trkpt lat="45.63964" lon="6.5888">
        <ele>1703.1</ele>
        <time>2022-03-27T11:56:12.000Z</time>
      </trkpt>
      <trkpt lat="45.63964" lon="6.5888">
        <ele>1702.9</ele>
        <time>2022-03-27T11:56:13.000Z</time>
      </trkpt>
      <trkpt lat="45.63964" lon="6.58881">
        <ele>1703.6</ele>
        <time>2022-03-27T11:56:23.000Z</time>
      </trkpt>
      <trkpt lat="45.63964" lon="6.58881">
        <ele>1703.9</ele>
        <time>2022-03-27T11:56:28.000Z</time>
      </trkpt>
      <trkpt lat="45.63963" lon="6.58882">
        <ele>1703.9</ele>
        <time>2022-03-27T11:56:31.000Z</time>
      </trkpt>
      <trkpt lat="45.63963" lon="6.58882">
        <ele>1703.6</ele>
        <time>2022-03-27T11:56:36.000Z</time>
      </trkpt>
      <trkpt lat="45.63962" lon="6.58882">
        <ele>1703.5</ele>
        <time>2022-03-27T11:56:38.000Z</time>
      </trkpt>
      <trkpt lat="45.63963" lon="6.58882">
        <ele>1704.5</ele>
        <time>2022-03-27T11:56:45.000Z</time>
      </trkpt>
      <trkpt lat="45.63963" lon="6.58882">
        <ele>1704.6</ele>
        <time>2022-03-27T11:56:46.000Z</time>
      </trkpt>
      <trkpt lat="45.63963" lon="6.58882">
        <ele>1704.6</ele>
        <time>2022-03-27T11:56:47.000Z</time>
      </trkpt>
      <trkpt lat="45.63965" lon="6.58868">
        <ele>1702</ele>
        <time>2022-03-27T11:56:55.000Z</time>
      </trkpt>
      <trkpt lat="45.63959" lon="6.58858">
        <ele>1697.5</ele>
        <time>2022-03-27T11:57:05.000Z</time>
      </trkpt>
      <trkpt lat="45.63953" lon="6.58844">
        <ele>1693.1</ele>
        <time>2022-03-27T11:57:09.000Z</time>
      </trkpt>
      <trkpt lat="45.63952" lon="6.58837">
        <ele>1689.4</ele>
        <time>2022-03-27T11:57:24.000Z</time>
      </trkpt>
      <trkpt lat="45.63952" lon="6.58837">
        <ele>1689.7</ele>
        <time>2022-03-27T11:57:29.000Z</time>
      </trkpt>
      <trkpt lat="45.63958" lon="6.58827">
        <ele>1687.7</ele>
        <time>2022-03-27T11:57:38.000Z</time>
      </trkpt>
      <trkpt lat="45.63958" lon="6.58825">
        <ele>1686.7</ele>
        <time>2022-03-27T11:57:46.000Z</time>
      </trkpt>
      <trkpt lat="45.63959" lon="6.58826">
        <ele>1686.7</ele>
        <time>2022-03-27T11:57:47.000Z</time>
      </trkpt>
      <trkpt lat="45.63959" lon="6.58826">
        <ele>1686.6</ele>
        <time>2022-03-27T11:57:48.000Z</time>
      </trkpt>
      <trkpt lat="45.63959" lon="6.58826">
        <ele>1686.5</ele>
        <time>2022-03-27T11:57:51.000Z</time>
      </trkpt>
      <trkpt lat="45.63959" lon="6.58812">
        <ele>1682.8</ele>
        <time>2022-03-27T11:58:09.000Z</time>
      </trkpt>
      <trkpt lat="45.63962" lon="6.58811">
        <ele>1680.4</ele>
        <time>2022-03-27T11:58:17.000Z</time>
      </trkpt>
      <trkpt lat="45.63962" lon="6.58811">
        <ele>1680.4</ele>
        <time>2022-03-27T11:58:26.000Z</time>
      </trkpt>
      <trkpt lat="45.63962" lon="6.58811">
        <ele>1680.4</ele>
        <time>2022-03-27T11:58:27.000Z</time>
      </trkpt>
      <trkpt lat="45.63962" lon="6.58812">
        <ele>1680.4</ele>
        <time>2022-03-27T11:58:30.000Z</time>
      </trkpt>
      <trkpt lat="45.63962" lon="6.58813">
        <ele>1680.7</ele>
        <time>2022-03-27T11:58:35.000Z</time>
      </trkpt>
      <trkpt lat="45.63962" lon="6.58813">
        <ele>1681.1</ele>
        <time>2022-03-27T11:58:39.000Z</time>
      </trkpt>
      <trkpt lat="45.63962" lon="6.58813">
        <ele>1681.1</ele>
        <time>2022-03-27T11:58:40.000Z</time>
      </trkpt>
      <trkpt lat="45.63961" lon="6.58813">
        <ele>1681.2</ele>
        <time>2022-03-27T11:58:42.000Z</time>
      </trkpt>
      <trkpt lat="45.63961" lon="6.58813">
        <ele>1681.4</ele>
        <time>2022-03-27T11:58:46.000Z</time>
      </trkpt>
      <trkpt lat="45.63961" lon="6.58813">
        <ele>1681.3</ele>
        <time>2022-03-27T11:58:48.000Z</time>
      </trkpt>
      <trkpt lat="45.6396" lon="6.58813">
        <ele>1681.4</ele>
        <time>2022-03-27T11:58:51.000Z</time>
      </trkpt>
      <trkpt lat="45.6396" lon="6.58813">
        <ele>1681.5</ele>
        <time>2022-03-27T11:58:52.000Z</time>
      </trkpt>
      <trkpt lat="45.6396" lon="6.58813">
        <ele>1681.3</ele>
        <time>2022-03-27T11:58:54.000Z</time>
      </trkpt>
      <trkpt lat="45.6396" lon="6.58812">
        <ele>1681.6</ele>
        <time>2022-03-27T11:59:04.000Z</time>
      </trkpt>
      <trkpt lat="45.63959" lon="6.58812">
        <ele>1682</ele>
        <time>2022-03-27T11:59:08.000Z</time>
      </trkpt>
      <trkpt lat="45.63959" lon="6.58811">
        <ele>1682.3</ele>
        <time>2022-03-27T11:59:11.000Z</time>
      </trkpt>
      <trkpt lat="45.63959" lon="6.58811">
        <ele>1682.1</ele>
        <time>2022-03-27T11:59:12.000Z</time>
      </trkpt>
      <trkpt lat="45.63959" lon="6.58811">
        <ele>1682.2</ele>
        <time>2022-03-27T11:59:15.000Z</time>
      </trkpt>
      <trkpt lat="45.63962" lon="6.58796">
        <ele>1678.9</ele>
        <time>2022-03-27T11:59:22.000Z</time>
      </trkpt>
      <trkpt lat="45.63965" lon="6.58781">
        <ele>1674.6</ele>
        <time>2022-03-27T11:59:25.000Z</time>
      </trkpt>
      <trkpt lat="45.63971" lon="6.58769">
        <ele>1670.7</ele>
        <time>2022-03-27T11:59:28.000Z</time>
      </trkpt>
      <trkpt lat="45.63968" lon="6.58755">
        <ele>1667.1</ele>
        <time>2022-03-27T11:59:32.000Z</time>
      </trkpt>
      <trkpt lat="45.6397" lon="6.58742">
        <ele>1661.7</ele>
        <time>2022-03-27T11:59:36.000Z</time>
      </trkpt>
      <trkpt lat="45.63978" lon="6.58731">
        <ele>1657.7</ele>
        <time>2022-03-27T11:59:41.000Z</time>
      </trkpt>
      <trkpt lat="45.63983" lon="6.58719">
        <ele>1653.6</ele>
        <time>2022-03-27T11:59:54.000Z</time>
      </trkpt>
      <trkpt lat="45.63993" lon="6.58706">
        <ele>1651.6</ele>
        <time>2022-03-27T12:00:00.000Z</time>
      </trkpt>
      <trkpt lat="45.64004" lon="6.58703">
        <ele>1650.5</ele>
        <time>2022-03-27T12:00:04.000Z</time>
      </trkpt>
      <trkpt lat="45.64013" lon="6.58703">
        <ele>1650.6</ele>
        <time>2022-03-27T12:00:09.000Z</time>
      </trkpt>
      <trkpt lat="45.64022" lon="6.58701">
        <ele>1651</ele>
        <time>2022-03-27T12:00:19.000Z</time>
      </trkpt>
      <trkpt lat="45.64032" lon="6.58697">
        <ele>1651.4</ele>
        <time>2022-03-27T12:00:24.000Z</time>
      </trkpt>
      <trkpt lat="45.64041" lon="6.58692">
        <ele>1652.2</ele>
        <time>2022-03-27T12:00:30.000Z</time>
      </trkpt>
      <trkpt lat="45.64051" lon="6.58692">
        <ele>1653.5</ele>
        <time>2022-03-27T12:00:37.000Z</time>
      </trkpt>
      <trkpt lat="45.64061" lon="6.5869">
        <ele>1653.9</ele>
        <time>2022-03-27T12:00:42.000Z</time>
      </trkpt>
      <trkpt lat="45.6407" lon="6.5869">
        <ele>1654.9</ele>
        <time>2022-03-27T12:00:47.000Z</time>
      </trkpt>
      <trkpt lat="45.6408" lon="6.58691">
        <ele>1656.2</ele>
        <time>2022-03-27T12:00:54.000Z</time>
      </trkpt>
      <trkpt lat="45.64089" lon="6.58688">
        <ele>1657.5</ele>
        <time>2022-03-27T12:01:08.000Z</time>
      </trkpt>
      <trkpt lat="45.64098" lon="6.58686">
        <ele>1658.7</ele>
        <time>2022-03-27T12:01:20.000Z</time>
      </trkpt>
      <trkpt lat="45.64107" lon="6.58682">
        <ele>1660.1</ele>
        <time>2022-03-27T12:01:32.000Z</time>
      </trkpt>
      <trkpt lat="45.64116" lon="6.58677">
        <ele>1660.4</ele>
        <time>2022-03-27T12:01:39.000Z</time>
      </trkpt>
      <trkpt lat="45.64124" lon="6.58673">
        <ele>1660.9</ele>
        <time>2022-03-27T12:01:44.000Z</time>
      </trkpt>
      <trkpt lat="45.64133" lon="6.58667">
        <ele>1661.5</ele>
        <time>2022-03-27T12:01:49.000Z</time>
      </trkpt>
      <trkpt lat="45.64143" lon="6.58661">
        <ele>1662.4</ele>
        <time>2022-03-27T12:01:55.000Z</time>
      </trkpt>
      <trkpt lat="45.64151" lon="6.58654">
        <ele>1662.8</ele>
        <time>2022-03-27T12:02:01.000Z</time>
      </trkpt>
      <trkpt lat="45.6416" lon="6.58648">
        <ele>1664.5</ele>
        <time>2022-03-27T12:02:12.000Z</time>
      </trkpt>
      <trkpt lat="45.6417" lon="6.58645">
        <ele>1666</ele>
        <time>2022-03-27T12:02:23.000Z</time>
      </trkpt>
      <trkpt lat="45.64179" lon="6.58647">
        <ele>1667</ele>
        <time>2022-03-27T12:02:31.000Z</time>
      </trkpt>
      <trkpt lat="45.64188" lon="6.58646">
        <ele>1668.3</ele>
        <time>2022-03-27T12:02:39.000Z</time>
      </trkpt>
      <trkpt lat="45.64196" lon="6.58639">
        <ele>1669.4</ele>
        <time>2022-03-27T12:02:45.000Z</time>
      </trkpt>
      <trkpt lat="45.64204" lon="6.58632">
        <ele>1670.2</ele>
        <time>2022-03-27T12:02:54.000Z</time>
      </trkpt>
      <trkpt lat="45.64204" lon="6.58631">
        <ele>1670.5</ele>
        <time>2022-03-27T12:03:00.000Z</time>
      </trkpt>
      <trkpt lat="45.64212" lon="6.58622">
        <ele>1671.5</ele>
        <time>2022-03-27T12:03:07.000Z</time>
      </trkpt>
      <trkpt lat="45.6422" lon="6.58616">
        <ele>1672.8</ele>
        <time>2022-03-27T12:03:14.000Z</time>
      </trkpt>
      <trkpt lat="45.6423" lon="6.58611">
        <ele>1674</ele>
        <time>2022-03-27T12:03:21.000Z</time>
      </trkpt>
      <trkpt lat="45.6424" lon="6.58608">
        <ele>1675.3</ele>
        <time>2022-03-27T12:03:30.000Z</time>
      </trkpt>
      <trkpt lat="45.64246" lon="6.58605">
        <ele>1676.2</ele>
        <time>2022-03-27T12:03:39.000Z</time>
      </trkpt>
      <trkpt lat="45.64246" lon="6.58605">
        <ele>1677.3</ele>
        <time>2022-03-27T12:04:06.000Z</time>
      </trkpt>
      <trkpt lat="45.64255" lon="6.586">
        <ele>1678.3</ele>
        <time>2022-03-27T12:04:16.000Z</time>
      </trkpt>
      <trkpt lat="45.64265" lon="6.58596">
        <ele>1679.5</ele>
        <time>2022-03-27T12:04:23.000Z</time>
      </trkpt>
      <trkpt lat="45.64274" lon="6.58589">
        <ele>1680.2</ele>
        <time>2022-03-27T12:04:29.000Z</time>
      </trkpt>
      <trkpt lat="45.64284" lon="6.58582">
        <ele>1680.7</ele>
        <time>2022-03-27T12:04:35.000Z</time>
      </trkpt>
      <trkpt lat="45.64291" lon="6.58574">
        <ele>1682</ele>
        <time>2022-03-27T12:04:41.000Z</time>
      </trkpt>
      <trkpt lat="45.64297" lon="6.58563">
        <ele>1683.3</ele>
        <time>2022-03-27T12:04:48.000Z</time>
      </trkpt>
      <trkpt lat="45.64303" lon="6.58553">
        <ele>1684.2</ele>
        <time>2022-03-27T12:04:57.000Z</time>
      </trkpt>
      <trkpt lat="45.6431" lon="6.58543">
        <ele>1684.9</ele>
        <time>2022-03-27T12:05:05.000Z</time>
      </trkpt>
      <trkpt lat="45.64317" lon="6.58537">
        <ele>1686.4</ele>
        <time>2022-03-27T12:05:15.000Z</time>
      </trkpt>
      <trkpt lat="45.64317" lon="6.58537">
        <ele>1686.4</ele>
        <time>2022-03-27T12:05:21.000Z</time>
      </trkpt>
      <trkpt lat="45.64317" lon="6.58537">
        <ele>1686.4</ele>
        <time>2022-03-27T12:05:22.000Z</time>
      </trkpt>
      <trkpt lat="45.64317" lon="6.58536">
        <ele>1687.1</ele>
        <time>2022-03-27T12:05:35.000Z</time>
      </trkpt>
      <trkpt lat="45.64326" lon="6.58528">
        <ele>1687.8</ele>
        <time>2022-03-27T12:05:43.000Z</time>
      </trkpt>
      <trkpt lat="45.64335" lon="6.58523">
        <ele>1688.6</ele>
        <time>2022-03-27T12:05:49.000Z</time>
      </trkpt>
      <trkpt lat="45.64345" lon="6.5852">
        <ele>1689.3</ele>
        <time>2022-03-27T12:05:55.000Z</time>
      </trkpt>
      <trkpt lat="45.64354" lon="6.58518">
        <ele>1690.3</ele>
        <time>2022-03-27T12:06:02.000Z</time>
      </trkpt>
      <trkpt lat="45.64363" lon="6.58516">
        <ele>1691.3</ele>
        <time>2022-03-27T12:06:09.000Z</time>
      </trkpt>
      <trkpt lat="45.64369" lon="6.58516">
        <ele>1692.4</ele>
        <time>2022-03-27T12:06:20.000Z</time>
      </trkpt>
      <trkpt lat="45.64369" lon="6.58516">
        <ele>1693</ele>
        <time>2022-03-27T12:06:27.000Z</time>
      </trkpt>
      <trkpt lat="45.64378" lon="6.58512">
        <ele>1693.7</ele>
        <time>2022-03-27T12:06:38.000Z</time>
      </trkpt>
      <trkpt lat="45.64387" lon="6.58506">
        <ele>1694.8</ele>
        <time>2022-03-27T12:06:45.000Z</time>
      </trkpt>
      <trkpt lat="45.64396" lon="6.58499">
        <ele>1695.6</ele>
        <time>2022-03-27T12:06:52.000Z</time>
      </trkpt>
      <trkpt lat="45.64403" lon="6.58491">
        <ele>1696.3</ele>
        <time>2022-03-27T12:06:58.000Z</time>
      </trkpt>
      <trkpt lat="45.64411" lon="6.58483">
        <ele>1698</ele>
        <time>2022-03-27T12:07:08.000Z</time>
      </trkpt>
      <trkpt lat="45.6442" lon="6.58478">
        <ele>1698.9</ele>
        <time>2022-03-27T12:07:16.000Z</time>
      </trkpt>
      <trkpt lat="45.64429" lon="6.58471">
        <ele>1699.8</ele>
        <time>2022-03-27T12:07:23.000Z</time>
      </trkpt>
      <trkpt lat="45.64438" lon="6.58465">
        <ele>1700.5</ele>
        <time>2022-03-27T12:07:29.000Z</time>
      </trkpt>
      <trkpt lat="45.64447" lon="6.58462">
        <ele>1701.3</ele>
        <time>2022-03-27T12:07:37.000Z</time>
      </trkpt>
      <trkpt lat="45.64458" lon="6.58462">
        <ele>1701.8</ele>
        <time>2022-03-27T12:07:46.000Z</time>
      </trkpt>
      <trkpt lat="45.64467" lon="6.58463">
        <ele>1702.5</ele>
        <time>2022-03-27T12:07:53.000Z</time>
      </trkpt>
      <trkpt lat="45.64477" lon="6.58463">
        <ele>1703.5</ele>
        <time>2022-03-27T12:08:00.000Z</time>
      </trkpt>
      <trkpt lat="45.64487" lon="6.58461">
        <ele>1704</ele>
        <time>2022-03-27T12:08:06.000Z</time>
      </trkpt>
      <trkpt lat="45.64493" lon="6.58466">
        <ele>1704</ele>
        <time>2022-03-27T12:08:17.000Z</time>
      </trkpt>
      <trkpt lat="45.64494" lon="6.58466">
        <ele>1704</ele>
        <time>2022-03-27T12:08:24.000Z</time>
      </trkpt>
      <trkpt lat="45.64494" lon="6.58466">
        <ele>1704.2</ele>
        <time>2022-03-27T12:08:25.000Z</time>
      </trkpt>
      <trkpt lat="45.64494" lon="6.58465">
        <ele>1704.2</ele>
        <time>2022-03-27T12:08:27.000Z</time>
      </trkpt>
      <trkpt lat="45.64494" lon="6.58465">
        <ele>1704.2</ele>
        <time>2022-03-27T12:08:28.000Z</time>
      </trkpt>
      <trkpt lat="45.64494" lon="6.58465">
        <ele>1705</ele>
        <time>2022-03-27T12:08:36.000Z</time>
      </trkpt>
      <trkpt lat="45.64494" lon="6.58465">
        <ele>1704.9</ele>
        <time>2022-03-27T12:08:38.000Z</time>
      </trkpt>
      <trkpt lat="45.64494" lon="6.58464">
        <ele>1705.6</ele>
        <time>2022-03-27T12:08:53.000Z</time>
      </trkpt>
      <trkpt lat="45.64494" lon="6.58464">
        <ele>1705.5</ele>
        <time>2022-03-27T12:08:54.000Z</time>
      </trkpt>
      <trkpt lat="45.64494" lon="6.58464">
        <ele>1705.4</ele>
        <time>2022-03-27T12:08:58.000Z</time>
      </trkpt>
      <trkpt lat="45.64494" lon="6.58464">
        <ele>1705.4</ele>
        <time>2022-03-27T12:08:59.000Z</time>
      </trkpt>
      <trkpt lat="45.64494" lon="6.58464">
        <ele>1705.5</ele>
        <time>2022-03-27T12:09:00.000Z</time>
      </trkpt>
      <trkpt lat="45.64494" lon="6.58464">
        <ele>1705.8</ele>
        <time>2022-03-27T12:09:02.000Z</time>
      </trkpt>
      <trkpt lat="45.64494" lon="6.58465">
        <ele>1705.9</ele>
        <time>2022-03-27T12:09:06.000Z</time>
      </trkpt>
      <trkpt lat="45.64495" lon="6.58465">
        <ele>1706.2</ele>
        <time>2022-03-27T12:09:09.000Z</time>
      </trkpt>
      <trkpt lat="45.64495" lon="6.58464">
        <ele>1706.5</ele>
        <time>2022-03-27T12:09:34.000Z</time>
      </trkpt>
      <trkpt lat="45.64495" lon="6.58464">
        <ele>1706.8</ele>
        <time>2022-03-27T12:09:35.000Z</time>
      </trkpt>
      <trkpt lat="45.64495" lon="6.58464">
        <ele>1707.1</ele>
        <time>2022-03-27T12:09:37.000Z</time>
      </trkpt>
      <trkpt lat="45.64495" lon="6.58464">
        <ele>1707</ele>
        <time>2022-03-27T12:09:38.000Z</time>
      </trkpt>
      <trkpt lat="45.64495" lon="6.58464">
        <ele>1707</ele>
        <time>2022-03-27T12:09:39.000Z</time>
      </trkpt>
      <trkpt lat="45.64495" lon="6.58464">
        <ele>1706.9</ele>
        <time>2022-03-27T12:09:43.000Z</time>
      </trkpt>
      <trkpt lat="45.64495" lon="6.58464">
        <ele>1707.9</ele>
        <time>2022-03-27T12:10:04.000Z</time>
      </trkpt>
      <trkpt lat="45.64495" lon="6.58464">
        <ele>1707.9</ele>
        <time>2022-03-27T12:10:05.000Z</time>
      </trkpt>
      <trkpt lat="45.64495" lon="6.58464">
        <ele>1708.7</ele>
        <time>2022-03-27T12:10:20.000Z</time>
      </trkpt>
      <trkpt lat="45.64495" lon="6.58464">
        <ele>1708.8</ele>
        <time>2022-03-27T12:10:21.000Z</time>
      </trkpt>
      <trkpt lat="45.64496" lon="6.58464">
        <ele>1708.7</ele>
        <time>2022-03-27T12:10:23.000Z</time>
      </trkpt>
      <trkpt lat="45.64495" lon="6.58464">
        <ele>1708.6</ele>
        <time>2022-03-27T12:10:25.000Z</time>
      </trkpt>
      <trkpt lat="45.64496" lon="6.58463">
        <ele>1709.2</ele>
        <time>2022-03-27T12:10:36.000Z</time>
      </trkpt>
      <trkpt lat="45.64496" lon="6.58463">
        <ele>1709</ele>
        <time>2022-03-27T12:10:37.000Z</time>
      </trkpt>
      <trkpt lat="45.64495" lon="6.58463">
        <ele>1709.1</ele>
        <time>2022-03-27T12:10:40.000Z</time>
      </trkpt>
      <trkpt lat="45.64495" lon="6.58463">
        <ele>1709.2</ele>
        <time>2022-03-27T12:10:41.000Z</time>
      </trkpt>
      <trkpt lat="45.64496" lon="6.58463">
        <ele>1710.4</ele>
        <time>2022-03-27T12:11:23.000Z</time>
      </trkpt>
      <trkpt lat="45.64497" lon="6.58463">
        <ele>1710.7</ele>
        <time>2022-03-27T12:11:27.000Z</time>
      </trkpt>
      <trkpt lat="45.64497" lon="6.58463">
        <ele>1712.4</ele>
        <time>2022-03-27T12:12:20.000Z</time>
      </trkpt>
      <trkpt lat="45.64497" lon="6.58463">
        <ele>1712.4</ele>
        <time>2022-03-27T12:12:21.000Z</time>
      </trkpt>
      <trkpt lat="45.64497" lon="6.58463">
        <ele>1713.5</ele>
        <time>2022-03-27T12:12:48.000Z</time>
      </trkpt>
      <trkpt lat="45.64497" lon="6.58463">
        <ele>1713.5</ele>
        <time>2022-03-27T12:12:49.000Z</time>
      </trkpt>
      <trkpt lat="45.64497" lon="6.58463">
        <ele>1713.4</ele>
        <time>2022-03-27T12:12:50.000Z</time>
      </trkpt>
      <trkpt lat="45.64497" lon="6.58463">
        <ele>1713.5</ele>
        <time>2022-03-27T12:12:51.000Z</time>
      </trkpt>
      <trkpt lat="45.64497" lon="6.58463">
        <ele>1713.7</ele>
        <time>2022-03-27T12:12:53.000Z</time>
      </trkpt>
      <trkpt lat="45.64497" lon="6.58463">
        <ele>1713.7</ele>
        <time>2022-03-27T12:12:54.000Z</time>
      </trkpt>
      <trkpt lat="45.64497" lon="6.58463">
        <ele>1714.7</ele>
        <time>2022-03-27T12:13:16.000Z</time>
      </trkpt>
      <trkpt lat="45.64498" lon="6.58463">
        <ele>1714.4</ele>
        <time>2022-03-27T12:13:18.000Z</time>
      </trkpt>
      <trkpt lat="45.64498" lon="6.58463">
        <ele>1717.7</ele>
        <time>2022-03-27T12:14:31.000Z</time>
      </trkpt>
      <trkpt lat="45.64498" lon="6.58463">
        <ele>1717.9</ele>
        <time>2022-03-27T12:14:32.000Z</time>
      </trkpt>
      <trkpt lat="45.64498" lon="6.58463">
        <ele>1718.6</ele>
        <time>2022-03-27T12:15:05.000Z</time>
      </trkpt>
      <trkpt lat="45.64498" lon="6.58463">
        <ele>1719.1</ele>
        <time>2022-03-27T12:15:07.000Z</time>
      </trkpt>
      <trkpt lat="45.64498" lon="6.58463">
        <ele>1719.3</ele>
        <time>2022-03-27T12:15:08.000Z</time>
      </trkpt>
      <trkpt lat="45.64498" lon="6.58463">
        <ele>1719.4</ele>
        <time>2022-03-27T12:15:09.000Z</time>
      </trkpt>
      <trkpt lat="45.64498" lon="6.58464">
        <ele>1720.8</ele>
        <time>2022-03-27T12:15:54.000Z</time>
      </trkpt>
      <trkpt lat="45.64501" lon="6.5846">
        <ele>1721.5</ele>
        <time>2022-03-27T12:16:05.000Z</time>
      </trkpt>
      <trkpt lat="45.64501" lon="6.5846">
        <ele>1721.7</ele>
        <time>2022-03-27T12:16:14.000Z</time>
      </trkpt>
      <trkpt lat="45.64501" lon="6.5846">
        <ele>1721.8</ele>
        <time>2022-03-27T12:16:15.000Z</time>
      </trkpt>
      <trkpt lat="45.64501" lon="6.5846">
        <ele>1723.3</ele>
        <time>2022-03-27T12:17:03.000Z</time>
      </trkpt>
      <trkpt lat="45.64501" lon="6.5846">
        <ele>1723.3</ele>
        <time>2022-03-27T12:17:04.000Z</time>
      </trkpt>
      <trkpt lat="45.64501" lon="6.5846">
        <ele>1724.1</ele>
        <time>2022-03-27T12:17:12.000Z</time>
      </trkpt>
      <trkpt lat="45.64501" lon="6.5846">
        <ele>1724</ele>
        <time>2022-03-27T12:17:13.000Z</time>
      </trkpt>
      <trkpt lat="45.645" lon="6.5846">
        <ele>1724.2</ele>
        <time>2022-03-27T12:17:21.000Z</time>
      </trkpt>
      <trkpt lat="45.645" lon="6.58461">
        <ele>1724.3</ele>
        <time>2022-03-27T12:17:24.000Z</time>
      </trkpt>
      <trkpt lat="45.645" lon="6.58461">
        <ele>1724.1</ele>
        <time>2022-03-27T12:17:25.000Z</time>
      </trkpt>
      <trkpt lat="45.64511" lon="6.58463">
        <ele>1724.5</ele>
        <time>2022-03-27T12:17:34.000Z</time>
      </trkpt>
      <trkpt lat="45.64522" lon="6.58467">
        <ele>1723.9</ele>
        <time>2022-03-27T12:17:38.000Z</time>
      </trkpt>
      <trkpt lat="45.6453" lon="6.58472">
        <ele>1723.4</ele>
        <time>2022-03-27T12:17:41.000Z</time>
      </trkpt>
      <trkpt lat="45.64538" lon="6.58479">
        <ele>1723.2</ele>
        <time>2022-03-27T12:17:44.000Z</time>
      </trkpt>
      <trkpt lat="45.64547" lon="6.58486">
        <ele>1722.3</ele>
        <time>2022-03-27T12:17:47.000Z</time>
      </trkpt>
      <trkpt lat="45.64559" lon="6.58492">
        <ele>1721.5</ele>
        <time>2022-03-27T12:17:50.000Z</time>
      </trkpt>
      <trkpt lat="45.64567" lon="6.58497">
        <ele>1721.4</ele>
        <time>2022-03-27T12:17:53.000Z</time>
      </trkpt>
      <trkpt lat="45.64578" lon="6.58503">
        <ele>1721.1</ele>
        <time>2022-03-27T12:17:57.000Z</time>
      </trkpt>
      <trkpt lat="45.64587" lon="6.58506">
        <ele>1721.4</ele>
        <time>2022-03-27T12:18:00.000Z</time>
      </trkpt>
      <trkpt lat="45.64596" lon="6.58511">
        <ele>1721.1</ele>
        <time>2022-03-27T12:18:03.000Z</time>
      </trkpt>
      <trkpt lat="45.64605" lon="6.58517">
        <ele>1721.1</ele>
        <time>2022-03-27T12:18:06.000Z</time>
      </trkpt>
      <trkpt lat="45.64615" lon="6.58524">
        <ele>1720.5</ele>
        <time>2022-03-27T12:18:09.000Z</time>
      </trkpt>
      <trkpt lat="45.64624" lon="6.58533">
        <ele>1720.3</ele>
        <time>2022-03-27T12:18:12.000Z</time>
      </trkpt>
      <trkpt lat="45.64632" lon="6.58543">
        <ele>1720.3</ele>
        <time>2022-03-27T12:18:15.000Z</time>
      </trkpt>
      <trkpt lat="45.6464" lon="6.58553">
        <ele>1720.1</ele>
        <time>2022-03-27T12:18:18.000Z</time>
      </trkpt>
      <trkpt lat="45.64648" lon="6.58564">
        <ele>1719.8</ele>
        <time>2022-03-27T12:18:21.000Z</time>
      </trkpt>
      <trkpt lat="45.64655" lon="6.58576">
        <ele>1719.8</ele>
        <time>2022-03-27T12:18:24.000Z</time>
      </trkpt>
      <trkpt lat="45.64662" lon="6.58586">
        <ele>1719.6</ele>
        <time>2022-03-27T12:18:27.000Z</time>
      </trkpt>
      <trkpt lat="45.64668" lon="6.58599">
        <ele>1719.3</ele>
        <time>2022-03-27T12:18:30.000Z</time>
      </trkpt>
      <trkpt lat="45.64679" lon="6.58607">
        <ele>1717.9</ele>
        <time>2022-03-27T12:18:33.000Z</time>
      </trkpt>
      <trkpt lat="45.6469" lon="6.58614">
        <ele>1717.6</ele>
        <time>2022-03-27T12:18:36.000Z</time>
      </trkpt>
      <trkpt lat="45.64703" lon="6.58616">
        <ele>1717</ele>
        <time>2022-03-27T12:18:39.000Z</time>
      </trkpt>
      <trkpt lat="45.64712" lon="6.58619">
        <ele>1716.4</ele>
        <time>2022-03-27T12:18:41.000Z</time>
      </trkpt>
      <trkpt lat="45.64723" lon="6.58624">
        <ele>1715.5</ele>
        <time>2022-03-27T12:18:43.000Z</time>
      </trkpt>
      <trkpt lat="45.64733" lon="6.58629">
        <ele>1715</ele>
        <time>2022-03-27T12:18:45.000Z</time>
      </trkpt>
      <trkpt lat="45.64745" lon="6.58634">
        <ele>1714.3</ele>
        <time>2022-03-27T12:18:47.000Z</time>
      </trkpt>
      <trkpt lat="45.64757" lon="6.5864">
        <ele>1713.9</ele>
        <time>2022-03-27T12:18:49.000Z</time>
      </trkpt>
      <trkpt lat="45.64769" lon="6.58649">
        <ele>1712.6</ele>
        <time>2022-03-27T12:18:51.000Z</time>
      </trkpt>
      <trkpt lat="45.64781" lon="6.58661">
        <ele>1711.3</ele>
        <time>2022-03-27T12:18:53.000Z</time>
      </trkpt>
      <trkpt lat="45.64794" lon="6.5867">
        <ele>1710.2</ele>
        <time>2022-03-27T12:18:55.000Z</time>
      </trkpt>
      <trkpt lat="45.64808" lon="6.58679">
        <ele>1708.8</ele>
        <time>2022-03-27T12:18:57.000Z</time>
      </trkpt>
      <trkpt lat="45.64822" lon="6.58687">
        <ele>1707.4</ele>
        <time>2022-03-27T12:18:59.000Z</time>
      </trkpt>
      <trkpt lat="45.64834" lon="6.58695">
        <ele>1706.4</ele>
        <time>2022-03-27T12:19:01.000Z</time>
      </trkpt>
      <trkpt lat="45.64846" lon="6.58704">
        <ele>1704.5</ele>
        <time>2022-03-27T12:19:03.000Z</time>
      </trkpt>
      <trkpt lat="45.64856" lon="6.58709">
        <ele>1703.1</ele>
        <time>2022-03-27T12:19:05.000Z</time>
      </trkpt>
      <trkpt lat="45.64865" lon="6.58712">
        <ele>1702</ele>
        <time>2022-03-27T12:19:07.000Z</time>
      </trkpt>
      <trkpt lat="45.64876" lon="6.58711">
        <ele>1700.5</ele>
        <time>2022-03-27T12:19:09.000Z</time>
      </trkpt>
      <trkpt lat="45.64887" lon="6.58715">
        <ele>1699.8</ele>
        <time>2022-03-27T12:19:11.000Z</time>
      </trkpt>
      <trkpt lat="45.64899" lon="6.58717">
        <ele>1698.8</ele>
        <time>2022-03-27T12:19:13.000Z</time>
      </trkpt>
      <trkpt lat="45.64911" lon="6.58718">
        <ele>1697.9</ele>
        <time>2022-03-27T12:19:15.000Z</time>
      </trkpt>
      <trkpt lat="45.64923" lon="6.58716">
        <ele>1696.5</ele>
        <time>2022-03-27T12:19:17.000Z</time>
      </trkpt>
      <trkpt lat="45.64936" lon="6.58712">
        <ele>1695.1</ele>
        <time>2022-03-27T12:19:19.000Z</time>
      </trkpt>
      <trkpt lat="45.64947" lon="6.58701">
        <ele>1693.7</ele>
        <time>2022-03-27T12:19:21.000Z</time>
      </trkpt>
      <trkpt lat="45.64956" lon="6.58685">
        <ele>1692</ele>
        <time>2022-03-27T12:19:23.000Z</time>
      </trkpt>
      <trkpt lat="45.64965" lon="6.58669">
        <ele>1690.9</ele>
        <time>2022-03-27T12:19:25.000Z</time>
      </trkpt>
      <trkpt lat="45.64975" lon="6.58652">
        <ele>1689.5</ele>
        <time>2022-03-27T12:19:27.000Z</time>
      </trkpt>
      <trkpt lat="45.64983" lon="6.58635">
        <ele>1687.6</ele>
        <time>2022-03-27T12:19:29.000Z</time>
      </trkpt>
      <trkpt lat="45.64991" lon="6.58618">
        <ele>1686.6</ele>
        <time>2022-03-27T12:19:31.000Z</time>
      </trkpt>
      <trkpt lat="45.64997" lon="6.58601">
        <ele>1685.2</ele>
        <time>2022-03-27T12:19:33.000Z</time>
      </trkpt>
      <trkpt lat="45.65002" lon="6.58585">
        <ele>1683.9</ele>
        <time>2022-03-27T12:19:35.000Z</time>
      </trkpt>
      <trkpt lat="45.6501" lon="6.58574">
        <ele>1682.6</ele>
        <time>2022-03-27T12:19:37.000Z</time>
      </trkpt>
      <trkpt lat="45.65021" lon="6.58576">
        <ele>1681.4</ele>
        <time>2022-03-27T12:19:39.000Z</time>
      </trkpt>
      <trkpt lat="45.65034" lon="6.58582">
        <ele>1680.3</ele>
        <time>2022-03-27T12:19:41.000Z</time>
      </trkpt>
      <trkpt lat="45.65048" lon="6.58588">
        <ele>1679.1</ele>
        <time>2022-03-27T12:19:43.000Z</time>
      </trkpt>
      <trkpt lat="45.6506" lon="6.58598">
        <ele>1677.6</ele>
        <time>2022-03-27T12:19:45.000Z</time>
      </trkpt>
      <trkpt lat="45.65072" lon="6.58601">
        <ele>1676.2</ele>
        <time>2022-03-27T12:19:47.000Z</time>
      </trkpt>
      <trkpt lat="45.65083" lon="6.58598">
        <ele>1675</ele>
        <time>2022-03-27T12:19:49.000Z</time>
      </trkpt>
      <trkpt lat="45.65091" lon="6.58587">
        <ele>1674.3</ele>
        <time>2022-03-27T12:19:51.000Z</time>
      </trkpt>
      <trkpt lat="45.65089" lon="6.5857">
        <ele>1673.3</ele>
        <time>2022-03-27T12:19:54.000Z</time>
      </trkpt>
      <trkpt lat="45.65086" lon="6.58551">
        <ele>1672.7</ele>
        <time>2022-03-27T12:19:57.000Z</time>
      </trkpt>
      <trkpt lat="45.65087" lon="6.58532">
        <ele>1672.3</ele>
        <time>2022-03-27T12:20:00.000Z</time>
      </trkpt>
      <trkpt lat="45.6509" lon="6.58516">
        <ele>1671.8</ele>
        <time>2022-03-27T12:20:03.000Z</time>
      </trkpt>
      <trkpt lat="45.65096" lon="6.58503">
        <ele>1670.7</ele>
        <time>2022-03-27T12:20:06.000Z</time>
      </trkpt>
      <trkpt lat="45.65103" lon="6.58492">
        <ele>1669.7</ele>
        <time>2022-03-27T12:20:09.000Z</time>
      </trkpt>
      <trkpt lat="45.65112" lon="6.58479">
        <ele>1669.2</ele>
        <time>2022-03-27T12:20:12.000Z</time>
      </trkpt>
      <trkpt lat="45.65118" lon="6.5847">
        <ele>1668.7</ele>
        <time>2022-03-27T12:20:14.000Z</time>
      </trkpt>
      <trkpt lat="45.65125" lon="6.5846">
        <ele>1668.2</ele>
        <time>2022-03-27T12:20:16.000Z</time>
      </trkpt>
      <trkpt lat="45.65131" lon="6.58449">
        <ele>1667.1</ele>
        <time>2022-03-27T12:20:18.000Z</time>
      </trkpt>
      <trkpt lat="45.65137" lon="6.58439">
        <ele>1666.5</ele>
        <time>2022-03-27T12:20:20.000Z</time>
      </trkpt>
      <trkpt lat="45.65145" lon="6.58424">
        <ele>1666.2</ele>
        <time>2022-03-27T12:20:23.000Z</time>
      </trkpt>
      <trkpt lat="45.6515" lon="6.58412">
        <ele>1665.7</ele>
        <time>2022-03-27T12:20:25.000Z</time>
      </trkpt>
      <trkpt lat="45.65155" lon="6.58397">
        <ele>1665.1</ele>
        <time>2022-03-27T12:20:27.000Z</time>
      </trkpt>
      <trkpt lat="45.65157" lon="6.58378">
        <ele>1663.8</ele>
        <time>2022-03-27T12:20:29.000Z</time>
      </trkpt>
      <trkpt lat="45.65159" lon="6.58359">
        <ele>1662.4</ele>
        <time>2022-03-27T12:20:31.000Z</time>
      </trkpt>
      <trkpt lat="45.65161" lon="6.5834">
        <ele>1660.6</ele>
        <time>2022-03-27T12:20:33.000Z</time>
      </trkpt>
      <trkpt lat="45.65162" lon="6.58324">
        <ele>1659.2</ele>
        <time>2022-03-27T12:20:35.000Z</time>
      </trkpt>
      <trkpt lat="45.65161" lon="6.5831">
        <ele>1658.2</ele>
        <time>2022-03-27T12:20:37.000Z</time>
      </trkpt>
      <trkpt lat="45.65158" lon="6.58298">
        <ele>1656.8</ele>
        <time>2022-03-27T12:20:40.000Z</time>
      </trkpt>
      <trkpt lat="45.65156" lon="6.58294">
        <ele>1655.6</ele>
        <time>2022-03-27T12:20:44.000Z</time>
      </trkpt>
      <trkpt lat="45.65156" lon="6.58292">
        <ele>1655.6</ele>
        <time>2022-03-27T12:20:45.000Z</time>
      </trkpt>
      <trkpt lat="45.65154" lon="6.58283">
        <ele>1655.6</ele>
        <time>2022-03-27T12:20:52.000Z</time>
      </trkpt>
      <trkpt lat="45.65154" lon="6.58283">
        <ele>1655.9</ele>
        <time>2022-03-27T12:20:57.000Z</time>
      </trkpt>
      <trkpt lat="45.65155" lon="6.58283">
        <ele>1655.8</ele>
        <time>2022-03-27T12:20:59.000Z</time>
      </trkpt>
      <trkpt lat="45.65155" lon="6.58284">
        <ele>1655.8</ele>
        <time>2022-03-27T12:21:02.000Z</time>
      </trkpt>
      <trkpt lat="45.65155" lon="6.58284">
        <ele>1655.6</ele>
        <time>2022-03-27T12:21:03.000Z</time>
      </trkpt>
      <trkpt lat="45.65155" lon="6.58284">
        <ele>1655.8</ele>
        <time>2022-03-27T12:21:15.000Z</time>
      </trkpt>
      <trkpt lat="45.65155" lon="6.58284">
        <ele>1656</ele>
        <time>2022-03-27T12:21:16.000Z</time>
      </trkpt>
      <trkpt lat="45.65155" lon="6.58284">
        <ele>1656.2</ele>
        <time>2022-03-27T12:21:17.000Z</time>
      </trkpt>
      <trkpt lat="45.65156" lon="6.58284">
        <ele>1656.5</ele>
        <time>2022-03-27T12:21:19.000Z</time>
      </trkpt>
      <trkpt lat="45.65155" lon="6.58284">
        <ele>1656.5</ele>
        <time>2022-03-27T12:21:20.000Z</time>
      </trkpt>
      <trkpt lat="45.65153" lon="6.58271">
        <ele>1655.9</ele>
        <time>2022-03-27T12:21:30.000Z</time>
      </trkpt>
      <trkpt lat="45.65151" lon="6.58258">
        <ele>1655.5</ele>
        <time>2022-03-27T12:21:38.000Z</time>
      </trkpt>
      <trkpt lat="45.65149" lon="6.58245">
        <ele>1655.1</ele>
        <time>2022-03-27T12:21:47.000Z</time>
      </trkpt>
      <trkpt lat="45.65146" lon="6.58232">
        <ele>1654.5</ele>
        <time>2022-03-27T12:21:55.000Z</time>
      </trkpt>
      <trkpt lat="45.65141" lon="6.58219">
        <ele>1653.8</ele>
        <time>2022-03-27T12:22:05.000Z</time>
      </trkpt>
      <trkpt lat="45.6514" lon="6.58222">
        <ele>1653.8</ele>
        <time>2022-03-27T12:22:20.000Z</time>
      </trkpt>
      <trkpt lat="45.6514" lon="6.58222">
        <ele>1653.8</ele>
        <time>2022-03-27T12:22:21.000Z</time>
      </trkpt>
      <trkpt lat="45.65139" lon="6.58222">
        <ele>1654.1</ele>
        <time>2022-03-27T12:22:25.000Z</time>
      </trkpt>
      <trkpt lat="45.65139" lon="6.58222">
        <ele>1654</ele>
        <time>2022-03-27T12:22:26.000Z</time>
      </trkpt>
      <trkpt lat="45.65138" lon="6.58222">
        <ele>1654.1</ele>
        <time>2022-03-27T12:22:28.000Z</time>
      </trkpt>
      <trkpt lat="45.65138" lon="6.58222">
        <ele>1654.1</ele>
        <time>2022-03-27T12:22:29.000Z</time>
      </trkpt>
      <trkpt lat="45.65137" lon="6.58222">
        <ele>1654.1</ele>
        <time>2022-03-27T12:22:31.000Z</time>
      </trkpt>
      <trkpt lat="45.65138" lon="6.58222">
        <ele>1654.3</ele>
        <time>2022-03-27T12:22:39.000Z</time>
      </trkpt>
      <trkpt lat="45.65138" lon="6.58222">
        <ele>1654.3</ele>
        <time>2022-03-27T12:22:40.000Z</time>
      </trkpt>
      <trkpt lat="45.65137" lon="6.58222">
        <ele>1654.8</ele>
        <time>2022-03-27T12:22:44.000Z</time>
      </trkpt>
      <trkpt lat="45.65137" lon="6.58223">
        <ele>1654.7</ele>
        <time>2022-03-27T12:22:45.000Z</time>
      </trkpt>
      <trkpt lat="45.65137" lon="6.58222">
        <ele>1654.7</ele>
        <time>2022-03-27T12:22:48.000Z</time>
      </trkpt>
      <trkpt lat="45.65137" lon="6.58222">
        <ele>1654.7</ele>
        <time>2022-03-27T12:22:51.000Z</time>
      </trkpt>
      <trkpt lat="45.65137" lon="6.58222">
        <ele>1654.8</ele>
        <time>2022-03-27T12:22:52.000Z</time>
      </trkpt>
      <trkpt lat="45.65141" lon="6.58225">
        <ele>1654.4</ele>
        <time>2022-03-27T12:23:04.000Z</time>
      </trkpt>
      <trkpt lat="45.65141" lon="6.58225">
        <ele>1654.6</ele>
        <time>2022-03-27T12:23:06.000Z</time>
      </trkpt>
      <trkpt lat="45.65141" lon="6.58225">
        <ele>1654.7</ele>
        <time>2022-03-27T12:23:07.000Z</time>
      </trkpt>
      <trkpt lat="45.65142" lon="6.58225">
        <ele>1654.8</ele>
        <time>2022-03-27T12:23:11.000Z</time>
      </trkpt>
      <trkpt lat="45.65144" lon="6.58226">
        <ele>1655.9</ele>
        <time>2022-03-27T12:23:19.000Z</time>
      </trkpt>
      <trkpt lat="45.65144" lon="6.58226">
        <ele>1655.9</ele>
        <time>2022-03-27T12:23:22.000Z</time>
      </trkpt>
      <trkpt lat="45.65144" lon="6.58226">
        <ele>1656</ele>
        <time>2022-03-27T12:23:23.000Z</time>
      </trkpt>
      <trkpt lat="45.65144" lon="6.58226">
        <ele>1656.1</ele>
        <time>2022-03-27T12:23:30.000Z</time>
      </trkpt>
      <trkpt lat="45.65144" lon="6.58225">
        <ele>1656.3</ele>
        <time>2022-03-27T12:23:34.000Z</time>
      </trkpt>
      <trkpt lat="45.65145" lon="6.58225">
        <ele>1656.5</ele>
        <time>2022-03-27T12:23:36.000Z</time>
      </trkpt>
      <trkpt lat="45.65145" lon="6.58225">
        <ele>1656.4</ele>
        <time>2022-03-27T12:23:37.000Z</time>
      </trkpt>
      <trkpt lat="45.65145" lon="6.58225">
        <ele>1656.6</ele>
        <time>2022-03-27T12:23:40.000Z</time>
      </trkpt>
      <trkpt lat="45.65145" lon="6.58225">
        <ele>1656.8</ele>
        <time>2022-03-27T12:23:41.000Z</time>
      </trkpt>
      <trkpt lat="45.65145" lon="6.58225">
        <ele>1656.8</ele>
        <time>2022-03-27T12:23:43.000Z</time>
      </trkpt>
      <trkpt lat="45.65146" lon="6.58225">
        <ele>1656.9</ele>
        <time>2022-03-27T12:23:51.000Z</time>
      </trkpt>
      <trkpt lat="45.65147" lon="6.58225">
        <ele>1657.2</ele>
        <time>2022-03-27T12:23:56.000Z</time>
      </trkpt>
      <trkpt lat="45.65147" lon="6.58225">
        <ele>1657.2</ele>
        <time>2022-03-27T12:24:00.000Z</time>
      </trkpt>
      <trkpt lat="45.65147" lon="6.58226">
        <ele>1657.8</ele>
        <time>2022-03-27T12:24:13.000Z</time>
      </trkpt>
      <trkpt lat="45.65147" lon="6.58227">
        <ele>1658</ele>
        <time>2022-03-27T12:24:17.000Z</time>
      </trkpt>
      <trkpt lat="45.65147" lon="6.58227">
        <ele>1658</ele>
        <time>2022-03-27T12:24:23.000Z</time>
      </trkpt>
      <trkpt lat="45.65147" lon="6.58227">
        <ele>1658.1</ele>
        <time>2022-03-27T12:24:24.000Z</time>
      </trkpt>
      <trkpt lat="45.65147" lon="6.58227">
        <ele>1658.1</ele>
        <time>2022-03-27T12:24:25.000Z</time>
      </trkpt>
      <trkpt lat="45.65147" lon="6.58227">
        <ele>1658.2</ele>
        <time>2022-03-27T12:24:26.000Z</time>
      </trkpt>
      <trkpt lat="45.65147" lon="6.58227">
        <ele>1658</ele>
        <time>2022-03-27T12:24:43.000Z</time>
      </trkpt>
      <trkpt lat="45.65144" lon="6.58213">
        <ele>1657.5</ele>
        <time>2022-03-27T12:24:57.000Z</time>
      </trkpt>
      <trkpt lat="45.65138" lon="6.58199">
        <ele>1657</ele>
        <time>2022-03-27T12:25:01.000Z</time>
      </trkpt>
      <trkpt lat="45.65134" lon="6.58184">
        <ele>1656</ele>
        <time>2022-03-27T12:25:04.000Z</time>
      </trkpt>
      <trkpt lat="45.65134" lon="6.58167">
        <ele>1654.9</ele>
        <time>2022-03-27T12:25:07.000Z</time>
      </trkpt>
      <trkpt lat="45.65133" lon="6.58148">
        <ele>1653.7</ele>
        <time>2022-03-27T12:25:10.000Z</time>
      </trkpt>
      <trkpt lat="45.65131" lon="6.58135">
        <ele>1652.7</ele>
        <time>2022-03-27T12:25:12.000Z</time>
      </trkpt>
      <trkpt lat="45.65126" lon="6.58122">
        <ele>1651.7</ele>
        <time>2022-03-27T12:25:14.000Z</time>
      </trkpt>
      <trkpt lat="45.6512" lon="6.5811">
        <ele>1650.6</ele>
        <time>2022-03-27T12:25:16.000Z</time>
      </trkpt>
      <trkpt lat="45.65119" lon="6.58095">
        <ele>1649.1</ele>
        <time>2022-03-27T12:25:18.000Z</time>
      </trkpt>
      <trkpt lat="45.65125" lon="6.58085">
        <ele>1647.7</ele>
        <time>2022-03-27T12:25:21.000Z</time>
      </trkpt>
      <trkpt lat="45.65135" lon="6.58084">
        <ele>1647.3</ele>
        <time>2022-03-27T12:25:26.000Z</time>
      </trkpt>
      <trkpt lat="45.65144" lon="6.58084">
        <ele>1647.2</ele>
        <time>2022-03-27T12:25:30.000Z</time>
      </trkpt>
      <trkpt lat="45.65155" lon="6.58081">
        <ele>1645.6</ele>
        <time>2022-03-27T12:25:34.000Z</time>
      </trkpt>
      <trkpt lat="45.65164" lon="6.58074">
        <ele>1644.4</ele>
        <time>2022-03-27T12:25:37.000Z</time>
      </trkpt>
      <trkpt lat="45.65174" lon="6.58065">
        <ele>1643.8</ele>
        <time>2022-03-27T12:25:40.000Z</time>
      </trkpt>
      <trkpt lat="45.65186" lon="6.58054">
        <ele>1642.2</ele>
        <time>2022-03-27T12:25:43.000Z</time>
      </trkpt>
      <trkpt lat="45.65195" lon="6.58046">
        <ele>1641.1</ele>
        <time>2022-03-27T12:25:45.000Z</time>
      </trkpt>
      <trkpt lat="45.65205" lon="6.58036">
        <ele>1639.4</ele>
        <time>2022-03-27T12:25:47.000Z</time>
      </trkpt>
      <trkpt lat="45.65215" lon="6.58027">
        <ele>1637.8</ele>
        <time>2022-03-27T12:25:49.000Z</time>
      </trkpt>
      <trkpt lat="45.65226" lon="6.58018">
        <ele>1636.6</ele>
        <time>2022-03-27T12:25:51.000Z</time>
      </trkpt>
      <trkpt lat="45.65237" lon="6.58011">
        <ele>1635.4</ele>
        <time>2022-03-27T12:25:53.000Z</time>
      </trkpt>
      <trkpt lat="45.65249" lon="6.58006">
        <ele>1634.4</ele>
        <time>2022-03-27T12:25:55.000Z</time>
      </trkpt>
      <trkpt lat="45.65262" lon="6.58001">
        <ele>1633.8</ele>
        <time>2022-03-27T12:25:57.000Z</time>
      </trkpt>
      <trkpt lat="45.65273" lon="6.57995">
        <ele>1632.8</ele>
        <time>2022-03-27T12:25:59.000Z</time>
      </trkpt>
      <trkpt lat="45.65283" lon="6.57987">
        <ele>1631.6</ele>
        <time>2022-03-27T12:26:01.000Z</time>
      </trkpt>
      <trkpt lat="45.65293" lon="6.57983">
        <ele>1630.6</ele>
        <time>2022-03-27T12:26:03.000Z</time>
      </trkpt>
      <trkpt lat="45.65304" lon="6.57978">
        <ele>1629.7</ele>
        <time>2022-03-27T12:26:05.000Z</time>
      </trkpt>
      <trkpt lat="45.65315" lon="6.57977">
        <ele>1628.7</ele>
        <time>2022-03-27T12:26:07.000Z</time>
      </trkpt>
      <trkpt lat="45.65325" lon="6.5798">
        <ele>1627.9</ele>
        <time>2022-03-27T12:26:09.000Z</time>
      </trkpt>
      <trkpt lat="45.65335" lon="6.57984">
        <ele>1627.1</ele>
        <time>2022-03-27T12:26:11.000Z</time>
      </trkpt>
      <trkpt lat="45.65345" lon="6.57985">
        <ele>1625.6</ele>
        <time>2022-03-27T12:26:13.000Z</time>
      </trkpt>
      <trkpt lat="45.65358" lon="6.57988">
        <ele>1624.3</ele>
        <time>2022-03-27T12:26:15.000Z</time>
      </trkpt>
      <trkpt lat="45.65371" lon="6.5799">
        <ele>1622.9</ele>
        <time>2022-03-27T12:26:17.000Z</time>
      </trkpt>
      <trkpt lat="45.65384" lon="6.57995">
        <ele>1621.5</ele>
        <time>2022-03-27T12:26:19.000Z</time>
      </trkpt>
      <trkpt lat="45.65396" lon="6.58001">
        <ele>1620</ele>
        <time>2022-03-27T12:26:21.000Z</time>
      </trkpt>
      <trkpt lat="45.65408" lon="6.58009">
        <ele>1618.3</ele>
        <time>2022-03-27T12:26:23.000Z</time>
      </trkpt>
      <trkpt lat="45.65421" lon="6.58016">
        <ele>1617.3</ele>
        <time>2022-03-27T12:26:25.000Z</time>
      </trkpt>
      <trkpt lat="45.65432" lon="6.58018">
        <ele>1616.1</ele>
        <time>2022-03-27T12:26:27.000Z</time>
      </trkpt>
      <trkpt lat="45.65445" lon="6.58019">
        <ele>1614.8</ele>
        <time>2022-03-27T12:26:29.000Z</time>
      </trkpt>
      <trkpt lat="45.6546" lon="6.5802">
        <ele>1613.4</ele>
        <time>2022-03-27T12:26:31.000Z</time>
      </trkpt>
      <trkpt lat="45.65472" lon="6.58019">
        <ele>1612</ele>
        <time>2022-03-27T12:26:33.000Z</time>
      </trkpt>
      <trkpt lat="45.65487" lon="6.58019">
        <ele>1610.9</ele>
        <time>2022-03-27T12:26:35.000Z</time>
      </trkpt>
      <trkpt lat="45.65502" lon="6.58019">
        <ele>1609.3</ele>
        <time>2022-03-27T12:26:37.000Z</time>
      </trkpt>
      <trkpt lat="45.65515" lon="6.58018">
        <ele>1608.1</ele>
        <time>2022-03-27T12:26:39.000Z</time>
      </trkpt>
      <trkpt lat="45.65525" lon="6.5802">
        <ele>1607</ele>
        <time>2022-03-27T12:26:41.000Z</time>
      </trkpt>
      <trkpt lat="45.65534" lon="6.58025">
        <ele>1605.8</ele>
        <time>2022-03-27T12:26:43.000Z</time>
      </trkpt>
      <trkpt lat="45.65568" lon="6.58031">
        <ele>1603</ele>
        <time>2022-03-27T12:26:49.000Z</time>
      </trkpt>
      <trkpt lat="45.65577" lon="6.58034">
        <ele>1601.3</ele>
        <time>2022-03-27T12:26:51.000Z</time>
      </trkpt>
      <trkpt lat="45.65591" lon="6.58037">
        <ele>1599.8</ele>
        <time>2022-03-27T12:26:53.000Z</time>
      </trkpt>
      <trkpt lat="45.65603" lon="6.58029">
        <ele>1599.1</ele>
        <time>2022-03-27T12:26:56.000Z</time>
      </trkpt>
      <trkpt lat="45.65612" lon="6.58025">
        <ele>1598</ele>
        <time>2022-03-27T12:26:59.000Z</time>
      </trkpt>
      <trkpt lat="45.65625" lon="6.58026">
        <ele>1596.3</ele>
        <time>2022-03-27T12:27:02.000Z</time>
      </trkpt>
      <trkpt lat="45.65635" lon="6.58028">
        <ele>1595.4</ele>
        <time>2022-03-27T12:27:04.000Z</time>
      </trkpt>
      <trkpt lat="45.65648" lon="6.58024">
        <ele>1594.7</ele>
        <time>2022-03-27T12:27:06.000Z</time>
      </trkpt>
      <trkpt lat="45.65658" lon="6.58024">
        <ele>1593.9</ele>
        <time>2022-03-27T12:27:08.000Z</time>
      </trkpt>
      <trkpt lat="45.65667" lon="6.58016">
        <ele>1590.4</ele>
        <time>2022-03-27T12:27:12.000Z</time>
      </trkpt>
      <trkpt lat="45.65675" lon="6.58007">
        <ele>1584.9</ele>
        <time>2022-03-27T12:27:19.000Z</time>
      </trkpt>
      <trkpt lat="45.65682" lon="6.57998">
        <ele>1580.3</ele>
        <time>2022-03-27T12:27:25.000Z</time>
      </trkpt>
      <trkpt lat="45.65685" lon="6.57985">
        <ele>1577.3</ele>
        <time>2022-03-27T12:27:29.000Z</time>
      </trkpt>
      <trkpt lat="45.65694" lon="6.57978">
        <ele>1575.3</ele>
        <time>2022-03-27T12:27:31.000Z</time>
      </trkpt>
      <trkpt lat="45.65682" lon="6.57972">
        <ele>1572.1</ele>
        <time>2022-03-27T12:27:33.000Z</time>
      </trkpt>
      <trkpt lat="45.65678" lon="6.57957">
        <ele>1568.3</ele>
        <time>2022-03-27T12:27:37.000Z</time>
      </trkpt>
      <trkpt lat="45.65689" lon="6.57961">
        <ele>1563.8</ele>
        <time>2022-03-27T12:27:43.000Z</time>
      </trkpt>
      <trkpt lat="45.65698" lon="6.57961">
        <ele>1561.5</ele>
        <time>2022-03-27T12:27:45.000Z</time>
      </trkpt>
      <trkpt lat="45.65707" lon="6.57956">
        <ele>1559</ele>
        <time>2022-03-27T12:27:47.000Z</time>
      </trkpt>
      <trkpt lat="45.65716" lon="6.57948">
        <ele>1555.9</ele>
        <time>2022-03-27T12:27:49.000Z</time>
      </trkpt>
      <trkpt lat="45.65727" lon="6.57942">
        <ele>1552.5</ele>
        <time>2022-03-27T12:27:52.000Z</time>
      </trkpt>
      <trkpt lat="45.6574" lon="6.57939">
        <ele>1549.3</ele>
        <time>2022-03-27T12:27:55.000Z</time>
      </trkpt>
      <trkpt lat="45.6575" lon="6.57933">
        <ele>1545.5</ele>
        <time>2022-03-27T12:27:59.000Z</time>
      </trkpt>
      <trkpt lat="45.65761" lon="6.57928">
        <ele>1542.5</ele>
        <time>2022-03-27T12:28:02.000Z</time>
      </trkpt>
      <trkpt lat="45.65771" lon="6.57927">
        <ele>1539.6</ele>
        <time>2022-03-27T12:28:04.000Z</time>
      </trkpt>
      <trkpt lat="45.65779" lon="6.57919">
        <ele>1537.6</ele>
        <time>2022-03-27T12:28:06.000Z</time>
      </trkpt>
      <trkpt lat="45.65788" lon="6.57917">
        <ele>1535.4</ele>
        <time>2022-03-27T12:28:08.000Z</time>
      </trkpt>
      <trkpt lat="45.65801" lon="6.57915">
        <ele>1533.6</ele>
        <time>2022-03-27T12:28:10.000Z</time>
      </trkpt>
      <trkpt lat="45.65814" lon="6.5792">
        <ele>1531.9</ele>
        <time>2022-03-27T12:28:12.000Z</time>
      </trkpt>
      <trkpt lat="45.65823" lon="6.57916">
        <ele>1530.2</ele>
        <time>2022-03-27T12:28:14.000Z</time>
      </trkpt>
      <trkpt lat="45.65831" lon="6.57907">
        <ele>1527.9</ele>
        <time>2022-03-27T12:28:17.000Z</time>
      </trkpt>
      <trkpt lat="45.65843" lon="6.57895">
        <ele>1525.6</ele>
        <time>2022-03-27T12:28:20.000Z</time>
      </trkpt>
      <trkpt lat="45.65853" lon="6.57891">
        <ele>1524.7</ele>
        <time>2022-03-27T12:28:22.000Z</time>
      </trkpt>
      <trkpt lat="45.65863" lon="6.57889">
        <ele>1524.2</ele>
        <time>2022-03-27T12:28:24.000Z</time>
      </trkpt>
      <trkpt lat="45.65872" lon="6.57889">
        <ele>1523.7</ele>
        <time>2022-03-27T12:28:26.000Z</time>
      </trkpt>
      <trkpt lat="45.65885" lon="6.57889">
        <ele>1522.6</ele>
        <time>2022-03-27T12:28:29.000Z</time>
      </trkpt>
      <trkpt lat="45.65897" lon="6.57887">
        <ele>1522</ele>
        <time>2022-03-27T12:28:32.000Z</time>
      </trkpt>
      <trkpt lat="45.65908" lon="6.57887">
        <ele>1521.2</ele>
        <time>2022-03-27T12:28:35.000Z</time>
      </trkpt>
      <trkpt lat="45.65919" lon="6.57886">
        <ele>1520.4</ele>
        <time>2022-03-27T12:28:38.000Z</time>
      </trkpt>
      <trkpt lat="45.65929" lon="6.57886">
        <ele>1520.1</ele>
        <time>2022-03-27T12:28:41.000Z</time>
      </trkpt>
      <trkpt lat="45.65933" lon="6.57889">
        <ele>1519.2</ele>
        <time>2022-03-27T12:28:45.000Z</time>
      </trkpt>
      <trkpt lat="45.65934" lon="6.57889">
        <ele>1519.2</ele>
        <time>2022-03-27T12:28:46.000Z</time>
      </trkpt>
      <trkpt lat="45.65935" lon="6.57891">
        <ele>1519.2</ele>
        <time>2022-03-27T12:28:49.000Z</time>
      </trkpt>
      <trkpt lat="45.65934" lon="6.57891">
        <ele>1519.4</ele>
        <time>2022-03-27T12:28:53.000Z</time>
      </trkpt>
      <trkpt lat="45.65934" lon="6.57891">
        <ele>1519.4</ele>
        <time>2022-03-27T12:28:54.000Z</time>
      </trkpt>
      <trkpt lat="45.65934" lon="6.57891">
        <ele>1519.7</ele>
        <time>2022-03-27T12:28:55.000Z</time>
      </trkpt>
      <trkpt lat="45.65944" lon="6.57888">
        <ele>1519.2</ele>
        <time>2022-03-27T12:29:04.000Z</time>
      </trkpt>
      <trkpt lat="45.65954" lon="6.57884">
        <ele>1518.6</ele>
        <time>2022-03-27T12:29:08.000Z</time>
      </trkpt>
      <trkpt lat="45.65962" lon="6.57875">
        <ele>1517.6</ele>
        <time>2022-03-27T12:29:13.000Z</time>
      </trkpt>
      <trkpt lat="45.6597" lon="6.5787">
        <ele>1517.4</ele>
        <time>2022-03-27T12:29:18.000Z</time>
      </trkpt>
      <trkpt lat="45.65978" lon="6.57857">
        <ele>1516.8</ele>
        <time>2022-03-27T12:29:22.000Z</time>
      </trkpt>
      <trkpt lat="45.65983" lon="6.57843">
        <ele>1516.1</ele>
        <time>2022-03-27T12:29:26.000Z</time>
      </trkpt>
      <trkpt lat="45.65989" lon="6.57831">
        <ele>1515.1</ele>
        <time>2022-03-27T12:29:29.000Z</time>
      </trkpt>
      <trkpt lat="45.65998" lon="6.57818">
        <ele>1514.4</ele>
        <time>2022-03-27T12:29:32.000Z</time>
      </trkpt>
      <trkpt lat="45.66007" lon="6.57804">
        <ele>1513.7</ele>
        <time>2022-03-27T12:29:35.000Z</time>
      </trkpt>
      <trkpt lat="45.66013" lon="6.57794">
        <ele>1512.8</ele>
        <time>2022-03-27T12:29:37.000Z</time>
      </trkpt>
      <trkpt lat="45.66023" lon="6.57784">
        <ele>1511.4</ele>
        <time>2022-03-27T12:29:40.000Z</time>
      </trkpt>
      <trkpt lat="45.66035" lon="6.57778">
        <ele>1510.2</ele>
        <time>2022-03-27T12:29:43.000Z</time>
      </trkpt>
      <trkpt lat="45.66048" lon="6.57776">
        <ele>1508.9</ele>
        <time>2022-03-27T12:29:46.000Z</time>
      </trkpt>
      <trkpt lat="45.66062" lon="6.57778">
        <ele>1507.4</ele>
        <time>2022-03-27T12:29:49.000Z</time>
      </trkpt>
      <trkpt lat="45.66071" lon="6.57788">
        <ele>1506.7</ele>
        <time>2022-03-27T12:29:51.000Z</time>
      </trkpt>
      <trkpt lat="45.66079" lon="6.57797">
        <ele>1506.3</ele>
        <time>2022-03-27T12:29:53.000Z</time>
      </trkpt>
      <trkpt lat="45.66087" lon="6.57808">
        <ele>1505.9</ele>
        <time>2022-03-27T12:29:55.000Z</time>
      </trkpt>
      <trkpt lat="45.66098" lon="6.57817">
        <ele>1505.4</ele>
        <time>2022-03-27T12:29:58.000Z</time>
      </trkpt>
      <trkpt lat="45.66107" lon="6.57827">
        <ele>1504.9</ele>
        <time>2022-03-27T12:30:01.000Z</time>
      </trkpt>
      <trkpt lat="45.66115" lon="6.57837">
        <ele>1503.9</ele>
        <time>2022-03-27T12:30:04.000Z</time>
      </trkpt>
      <trkpt lat="45.66124" lon="6.57843">
        <ele>1503.2</ele>
        <time>2022-03-27T12:30:07.000Z</time>
      </trkpt>
      <trkpt lat="45.66132" lon="6.57851">
        <ele>1502.3</ele>
        <time>2022-03-27T12:30:10.000Z</time>
      </trkpt>
      <trkpt lat="45.66139" lon="6.57861">
        <ele>1501.6</ele>
        <time>2022-03-27T12:30:12.000Z</time>
      </trkpt>
      <trkpt lat="45.66151" lon="6.57865">
        <ele>1501.3</ele>
        <time>2022-03-27T12:30:15.000Z</time>
      </trkpt>
      <trkpt lat="45.66162" lon="6.57869">
        <ele>1501</ele>
        <time>2022-03-27T12:30:17.000Z</time>
      </trkpt>
      <trkpt lat="45.66174" lon="6.57871">
        <ele>1499.7</ele>
        <time>2022-03-27T12:30:19.000Z</time>
      </trkpt>
      <trkpt lat="45.66183" lon="6.57867">
        <ele>1498.9</ele>
        <time>2022-03-27T12:30:21.000Z</time>
      </trkpt>
      <trkpt lat="45.66191" lon="6.5786">
        <ele>1497.8</ele>
        <time>2022-03-27T12:30:23.000Z</time>
      </trkpt>
      <trkpt lat="45.66201" lon="6.5785">
        <ele>1496.5</ele>
        <time>2022-03-27T12:30:26.000Z</time>
      </trkpt>
      <trkpt lat="45.66213" lon="6.57845">
        <ele>1495.9</ele>
        <time>2022-03-27T12:30:29.000Z</time>
      </trkpt>
      <trkpt lat="45.66226" lon="6.57846">
        <ele>1495.2</ele>
        <time>2022-03-27T12:30:32.000Z</time>
      </trkpt>
      <trkpt lat="45.66239" lon="6.57847">
        <ele>1494</ele>
        <time>2022-03-27T12:30:35.000Z</time>
      </trkpt>
      <trkpt lat="45.66248" lon="6.57851">
        <ele>1493</ele>
        <time>2022-03-27T12:30:37.000Z</time>
      </trkpt>
      <trkpt lat="45.66259" lon="6.57858">
        <ele>1491.9</ele>
        <time>2022-03-27T12:30:39.000Z</time>
      </trkpt>
      <trkpt lat="45.66269" lon="6.57863">
        <ele>1491.6</ele>
        <time>2022-03-27T12:30:41.000Z</time>
      </trkpt>
      <trkpt lat="45.6628" lon="6.57874">
        <ele>1490.5</ele>
        <time>2022-03-27T12:30:43.000Z</time>
      </trkpt>
      <trkpt lat="45.66291" lon="6.57884">
        <ele>1489.1</ele>
        <time>2022-03-27T12:30:45.000Z</time>
      </trkpt>
      <trkpt lat="45.66302" lon="6.57891">
        <ele>1488.1</ele>
        <time>2022-03-27T12:30:47.000Z</time>
      </trkpt>
      <trkpt lat="45.66314" lon="6.57901">
        <ele>1487.1</ele>
        <time>2022-03-27T12:30:49.000Z</time>
      </trkpt>
      <trkpt lat="45.66328" lon="6.57914">
        <ele>1485.8</ele>
        <time>2022-03-27T12:30:51.000Z</time>
      </trkpt>
      <trkpt lat="45.66338" lon="6.57914">
        <ele>1484.7</ele>
        <time>2022-03-27T12:30:53.000Z</time>
      </trkpt>
      <trkpt lat="45.6635" lon="6.57918">
        <ele>1484.2</ele>
        <time>2022-03-27T12:30:55.000Z</time>
      </trkpt>
      <trkpt lat="45.66363" lon="6.57923">
        <ele>1483</ele>
        <time>2022-03-27T12:30:57.000Z</time>
      </trkpt>
      <trkpt lat="45.66375" lon="6.57928">
        <ele>1482</ele>
        <time>2022-03-27T12:30:59.000Z</time>
      </trkpt>
      <trkpt lat="45.66387" lon="6.57932">
        <ele>1480.7</ele>
        <time>2022-03-27T12:31:01.000Z</time>
      </trkpt>
      <trkpt lat="45.66401" lon="6.57936">
        <ele>1479.5</ele>
        <time>2022-03-27T12:31:03.000Z</time>
      </trkpt>
      <trkpt lat="45.66413" lon="6.57936">
        <ele>1478.4</ele>
        <time>2022-03-27T12:31:05.000Z</time>
      </trkpt>
      <trkpt lat="45.66425" lon="6.57939">
        <ele>1477.2</ele>
        <time>2022-03-27T12:31:07.000Z</time>
      </trkpt>
      <trkpt lat="45.66437" lon="6.5794">
        <ele>1476.1</ele>
        <time>2022-03-27T12:31:09.000Z</time>
      </trkpt>
      <trkpt lat="45.66448" lon="6.57937">
        <ele>1475.2</ele>
        <time>2022-03-27T12:31:11.000Z</time>
      </trkpt>
      <trkpt lat="45.66459" lon="6.57931">
        <ele>1474.3</ele>
        <time>2022-03-27T12:31:13.000Z</time>
      </trkpt>
      <trkpt lat="45.66468" lon="6.57926">
        <ele>1473.5</ele>
        <time>2022-03-27T12:31:15.000Z</time>
      </trkpt>
      <trkpt lat="45.6648" lon="6.5792">
        <ele>1471.8</ele>
        <time>2022-03-27T12:31:19.000Z</time>
      </trkpt>
      <trkpt lat="45.66489" lon="6.57917">
        <ele>1471</ele>
        <time>2022-03-27T12:31:21.000Z</time>
      </trkpt>
      <trkpt lat="45.66498" lon="6.57913">
        <ele>1469.8</ele>
        <time>2022-03-27T12:31:23.000Z</time>
      </trkpt>
      <trkpt lat="45.66507" lon="6.57908">
        <ele>1468.7</ele>
        <time>2022-03-27T12:31:25.000Z</time>
      </trkpt>
      <trkpt lat="45.66518" lon="6.57906">
        <ele>1467.8</ele>
        <time>2022-03-27T12:31:27.000Z</time>
      </trkpt>
      <trkpt lat="45.66527" lon="6.57902">
        <ele>1466.7</ele>
        <time>2022-03-27T12:31:29.000Z</time>
      </trkpt>
      <trkpt lat="45.66537" lon="6.57899">
        <ele>1465.9</ele>
        <time>2022-03-27T12:31:31.000Z</time>
      </trkpt>
      <trkpt lat="45.66547" lon="6.57898">
        <ele>1464.8</ele>
        <time>2022-03-27T12:31:33.000Z</time>
      </trkpt>
      <trkpt lat="45.66557" lon="6.57897">
        <ele>1464.1</ele>
        <time>2022-03-27T12:31:35.000Z</time>
      </trkpt>
      <trkpt lat="45.66566" lon="6.5789">
        <ele>1463.2</ele>
        <time>2022-03-27T12:31:37.000Z</time>
      </trkpt>
      <trkpt lat="45.66574" lon="6.57882">
        <ele>1462.4</ele>
        <time>2022-03-27T12:31:39.000Z</time>
      </trkpt>
      <trkpt lat="45.66582" lon="6.57872">
        <ele>1461.6</ele>
        <time>2022-03-27T12:31:41.000Z</time>
      </trkpt>
      <trkpt lat="45.66593" lon="6.57863">
        <ele>1460.9</ele>
        <time>2022-03-27T12:31:44.000Z</time>
      </trkpt>
      <trkpt lat="45.66606" lon="6.5786">
        <ele>1459.9</ele>
        <time>2022-03-27T12:31:47.000Z</time>
      </trkpt>
      <trkpt lat="45.66615" lon="6.57859">
        <ele>1459.3</ele>
        <time>2022-03-27T12:31:49.000Z</time>
      </trkpt>
      <trkpt lat="45.66625" lon="6.5786">
        <ele>1458.6</ele>
        <time>2022-03-27T12:31:51.000Z</time>
      </trkpt>
      <trkpt lat="45.66636" lon="6.5786">
        <ele>1457.6</ele>
        <time>2022-03-27T12:31:53.000Z</time>
      </trkpt>
      <trkpt lat="45.66647" lon="6.57853">
        <ele>1457</ele>
        <time>2022-03-27T12:31:55.000Z</time>
      </trkpt>
      <trkpt lat="45.66657" lon="6.57849">
        <ele>1456.3</ele>
        <time>2022-03-27T12:31:57.000Z</time>
      </trkpt>
      <trkpt lat="45.66667" lon="6.57847">
        <ele>1455.7</ele>
        <time>2022-03-27T12:31:59.000Z</time>
      </trkpt>
      <trkpt lat="45.6668" lon="6.57843">
        <ele>1454.9</ele>
        <time>2022-03-27T12:32:01.000Z</time>
      </trkpt>
      <trkpt lat="45.66692" lon="6.57838">
        <ele>1454.2</ele>
        <time>2022-03-27T12:32:03.000Z</time>
      </trkpt>
      <trkpt lat="45.66703" lon="6.57837">
        <ele>1453.5</ele>
        <time>2022-03-27T12:32:05.000Z</time>
      </trkpt>
      <trkpt lat="45.66713" lon="6.57835">
        <ele>1452.5</ele>
        <time>2022-03-27T12:32:07.000Z</time>
      </trkpt>
      <trkpt lat="45.66723" lon="6.57834">
        <ele>1451.8</ele>
        <time>2022-03-27T12:32:09.000Z</time>
      </trkpt>
      <trkpt lat="45.66732" lon="6.57827">
        <ele>1451.1</ele>
        <time>2022-03-27T12:32:11.000Z</time>
      </trkpt>
      <trkpt lat="45.66738" lon="6.57818">
        <ele>1451.1</ele>
        <time>2022-03-27T12:32:13.000Z</time>
      </trkpt>
      <trkpt lat="45.6675" lon="6.57815">
        <ele>1450.2</ele>
        <time>2022-03-27T12:32:16.000Z</time>
      </trkpt>
      <trkpt lat="45.66762" lon="6.5781">
        <ele>1449.8</ele>
        <time>2022-03-27T12:32:19.000Z</time>
      </trkpt>
      <trkpt lat="45.66773" lon="6.57804">
        <ele>1448.8</ele>
        <time>2022-03-27T12:32:22.000Z</time>
      </trkpt>
      <trkpt lat="45.66781" lon="6.578">
        <ele>1447.5</ele>
        <time>2022-03-27T12:32:24.000Z</time>
      </trkpt>
      <trkpt lat="45.66791" lon="6.57797">
        <ele>1446.5</ele>
        <time>2022-03-27T12:32:26.000Z</time>
      </trkpt>
      <trkpt lat="45.668" lon="6.57798">
        <ele>1446</ele>
        <time>2022-03-27T12:32:28.000Z</time>
      </trkpt>
      <trkpt lat="45.66815" lon="6.57802">
        <ele>1445.6</ele>
        <time>2022-03-27T12:32:31.000Z</time>
      </trkpt>
      <trkpt lat="45.66828" lon="6.5781">
        <ele>1445.1</ele>
        <time>2022-03-27T12:32:33.000Z</time>
      </trkpt>
      <trkpt lat="45.66841" lon="6.57813">
        <ele>1444.6</ele>
        <time>2022-03-27T12:32:35.000Z</time>
      </trkpt>
      <trkpt lat="45.66853" lon="6.57813">
        <ele>1444.1</ele>
        <time>2022-03-27T12:32:37.000Z</time>
      </trkpt>
      <trkpt lat="45.66863" lon="6.57814">
        <ele>1443</ele>
        <time>2022-03-27T12:32:39.000Z</time>
      </trkpt>
      <trkpt lat="45.66875" lon="6.57813">
        <ele>1442.7</ele>
        <time>2022-03-27T12:32:42.000Z</time>
      </trkpt>
      <trkpt lat="45.66887" lon="6.57808">
        <ele>1441.3</ele>
        <time>2022-03-27T12:32:45.000Z</time>
      </trkpt>
      <trkpt lat="45.66896" lon="6.57804">
        <ele>1440.5</ele>
        <time>2022-03-27T12:32:47.000Z</time>
      </trkpt>
      <trkpt lat="45.66906" lon="6.57802">
        <ele>1439.6</ele>
        <time>2022-03-27T12:32:49.000Z</time>
      </trkpt>
      <trkpt lat="45.66915" lon="6.57797">
        <ele>1438.6</ele>
        <time>2022-03-27T12:32:51.000Z</time>
      </trkpt>
      <trkpt lat="45.66926" lon="6.57795">
        <ele>1437.1</ele>
        <time>2022-03-27T12:32:53.000Z</time>
      </trkpt>
      <trkpt lat="45.66937" lon="6.57793">
        <ele>1436</ele>
        <time>2022-03-27T12:32:55.000Z</time>
      </trkpt>
      <trkpt lat="45.66948" lon="6.57794">
        <ele>1435.3</ele>
        <time>2022-03-27T12:32:57.000Z</time>
      </trkpt>
      <trkpt lat="45.66959" lon="6.57793">
        <ele>1434.4</ele>
        <time>2022-03-27T12:32:59.000Z</time>
      </trkpt>
      <trkpt lat="45.6697" lon="6.57793">
        <ele>1433.2</ele>
        <time>2022-03-27T12:33:01.000Z</time>
      </trkpt>
      <trkpt lat="45.66982" lon="6.57791">
        <ele>1431.4</ele>
        <time>2022-03-27T12:33:03.000Z</time>
      </trkpt>
      <trkpt lat="45.66993" lon="6.57788">
        <ele>1429.9</ele>
        <time>2022-03-27T12:33:05.000Z</time>
      </trkpt>
      <trkpt lat="45.67003" lon="6.57789">
        <ele>1428.5</ele>
        <time>2022-03-27T12:33:07.000Z</time>
      </trkpt>
      <trkpt lat="45.67013" lon="6.57791">
        <ele>1427.1</ele>
        <time>2022-03-27T12:33:09.000Z</time>
      </trkpt>
      <trkpt lat="45.67024" lon="6.57794">
        <ele>1426.1</ele>
        <time>2022-03-27T12:33:11.000Z</time>
      </trkpt>
      <trkpt lat="45.67035" lon="6.57796">
        <ele>1424.8</ele>
        <time>2022-03-27T12:33:13.000Z</time>
      </trkpt>
      <trkpt lat="45.67047" lon="6.57799">
        <ele>1423.3</ele>
        <time>2022-03-27T12:33:15.000Z</time>
      </trkpt>
      <trkpt lat="45.67059" lon="6.57797">
        <ele>1421.8</ele>
        <time>2022-03-27T12:33:17.000Z</time>
      </trkpt>
      <trkpt lat="45.67071" lon="6.57795">
        <ele>1420.4</ele>
        <time>2022-03-27T12:33:19.000Z</time>
      </trkpt>
      <trkpt lat="45.67084" lon="6.57793">
        <ele>1419</ele>
        <time>2022-03-27T12:33:21.000Z</time>
      </trkpt>
      <trkpt lat="45.67095" lon="6.57793">
        <ele>1416.9</ele>
        <time>2022-03-27T12:33:23.000Z</time>
      </trkpt>
      <trkpt lat="45.67108" lon="6.57799">
        <ele>1414.9</ele>
        <time>2022-03-27T12:33:25.000Z</time>
      </trkpt>
      <trkpt lat="45.6712" lon="6.57801">
        <ele>1413.6</ele>
        <time>2022-03-27T12:33:27.000Z</time>
      </trkpt>
      <trkpt lat="45.67133" lon="6.57809">
        <ele>1411.8</ele>
        <time>2022-03-27T12:33:29.000Z</time>
      </trkpt>
      <trkpt lat="45.67142" lon="6.57821">
        <ele>1411</ele>
        <time>2022-03-27T12:33:30.000Z</time>
      </trkpt>
      <trkpt lat="45.67159" lon="6.57841">
        <ele>1408.9</ele>
        <time>2022-03-27T12:33:32.000Z</time>
      </trkpt>
      <trkpt lat="45.67168" lon="6.57851">
        <ele>1407.4</ele>
        <time>2022-03-27T12:33:33.000Z</time>
      </trkpt>
      <trkpt lat="45.67176" lon="6.5786">
        <ele>1406.2</ele>
        <time>2022-03-27T12:33:34.000Z</time>
      </trkpt>
      <trkpt lat="45.67184" lon="6.57867">
        <ele>1404.9</ele>
        <time>2022-03-27T12:33:35.000Z</time>
      </trkpt>
      <trkpt lat="45.67198" lon="6.5788">
        <ele>1403</ele>
        <time>2022-03-27T12:33:37.000Z</time>
      </trkpt>
      <trkpt lat="45.67209" lon="6.57893">
        <ele>1401</ele>
        <time>2022-03-27T12:33:39.000Z</time>
      </trkpt>
      <trkpt lat="45.67219" lon="6.57904">
        <ele>1399</ele>
        <time>2022-03-27T12:33:41.000Z</time>
      </trkpt>
      <trkpt lat="45.6723" lon="6.57916">
        <ele>1396.9</ele>
        <time>2022-03-27T12:33:43.000Z</time>
      </trkpt>
      <trkpt lat="45.67242" lon="6.57926">
        <ele>1395.5</ele>
        <time>2022-03-27T12:33:45.000Z</time>
      </trkpt>
      <trkpt lat="45.67254" lon="6.57933">
        <ele>1394.1</ele>
        <time>2022-03-27T12:33:47.000Z</time>
      </trkpt>
      <trkpt lat="45.67263" lon="6.57944">
        <ele>1392.7</ele>
        <time>2022-03-27T12:33:49.000Z</time>
      </trkpt>
      <trkpt lat="45.67271" lon="6.57954">
        <ele>1390.9</ele>
        <time>2022-03-27T12:33:51.000Z</time>
      </trkpt>
      <trkpt lat="45.67283" lon="6.57962">
        <ele>1388.7</ele>
        <time>2022-03-27T12:33:54.000Z</time>
      </trkpt>
      <trkpt lat="45.67292" lon="6.57961">
        <ele>1387.9</ele>
        <time>2022-03-27T12:33:56.000Z</time>
      </trkpt>
      <trkpt lat="45.67302" lon="6.57969">
        <ele>1386.2</ele>
        <time>2022-03-27T12:33:59.000Z</time>
      </trkpt>
      <trkpt lat="45.67313" lon="6.57969">
        <ele>1385.3</ele>
        <time>2022-03-27T12:34:02.000Z</time>
      </trkpt>
      <trkpt lat="45.67319" lon="6.5796">
        <ele>1383.9</ele>
        <time>2022-03-27T12:34:14.000Z</time>
      </trkpt>
      <trkpt lat="45.67315" lon="6.57962">
        <ele>1383.3</ele>
        <time>2022-03-27T12:34:23.000Z</time>
      </trkpt>
      <trkpt lat="45.67314" lon="6.57962">
        <ele>1383.3</ele>
        <time>2022-03-27T12:34:24.000Z</time>
      </trkpt>
      <trkpt lat="45.67309" lon="6.57967">
        <ele>1383.3</ele>
        <time>2022-03-27T12:34:38.000Z</time>
      </trkpt>
      <trkpt lat="45.67309" lon="6.57966">
        <ele>1383.2</ele>
        <time>2022-03-27T12:34:39.000Z</time>
      </trkpt>
      <trkpt lat="45.67308" lon="6.57965">
        <ele>1383.3</ele>
        <time>2022-03-27T12:34:42.000Z</time>
      </trkpt>
      <trkpt lat="45.67308" lon="6.57965">
        <ele>1383.2</ele>
        <time>2022-03-27T12:34:46.000Z</time>
      </trkpt>
      <trkpt lat="45.67307" lon="6.57966">
        <ele>1383.4</ele>
        <time>2022-03-27T12:34:48.000Z</time>
      </trkpt>
      <trkpt lat="45.67307" lon="6.57965">
        <ele>1383.4</ele>
        <time>2022-03-27T12:35:03.000Z</time>
      </trkpt>
      <trkpt lat="45.67306" lon="6.57964">
        <ele>1383.5</ele>
        <time>2022-03-27T12:35:06.000Z</time>
      </trkpt>
      <trkpt lat="45.67306" lon="6.57964">
        <ele>1383.5</ele>
        <time>2022-03-27T12:35:08.000Z</time>
      </trkpt>
      <trkpt lat="45.67305" lon="6.57964">
        <ele>1383.3</ele>
        <time>2022-03-27T12:35:12.000Z</time>
      </trkpt>
      <trkpt lat="45.67305" lon="6.57964">
        <ele>1383.5</ele>
        <time>2022-03-27T12:35:17.000Z</time>
      </trkpt>
      <trkpt lat="45.67305" lon="6.57964">
        <ele>1383.3</ele>
        <time>2022-03-27T12:35:18.000Z</time>
      </trkpt>
      <trkpt lat="45.67305" lon="6.57964">
        <ele>1383.5</ele>
        <time>2022-03-27T12:35:20.000Z</time>
      </trkpt>
      <trkpt lat="45.67304" lon="6.57965">
        <ele>1383.3</ele>
        <time>2022-03-27T12:35:24.000Z</time>
      </trkpt>
      <trkpt lat="45.67303" lon="6.57965">
        <ele>1383.5</ele>
        <time>2022-03-27T12:35:27.000Z</time>
      </trkpt>
      <trkpt lat="45.67301" lon="6.57965">
        <ele>1383.4</ele>
        <time>2022-03-27T12:35:30.000Z</time>
      </trkpt>
      <trkpt lat="45.67301" lon="6.57965">
        <ele>1383.3</ele>
        <time>2022-03-27T12:35:32.000Z</time>
      </trkpt>
      <trkpt lat="45.6731" lon="6.57968">
        <ele>1380.9</ele>
        <time>2022-03-27T12:35:50.000Z</time>
      </trkpt>
      <trkpt lat="45.67319" lon="6.57963">
        <ele>1380.3</ele>
        <time>2022-03-27T12:35:57.000Z</time>
      </trkpt>
      <trkpt lat="45.6732" lon="6.5796">
        <ele>1379.6</ele>
        <time>2022-03-27T12:36:03.000Z</time>
      </trkpt>
      <trkpt lat="45.6732" lon="6.57959">
        <ele>1379.4</ele>
        <time>2022-03-27T12:36:05.000Z</time>
      </trkpt>
      <trkpt lat="45.6732" lon="6.57959">
        <ele>1379.4</ele>
        <time>2022-03-27T12:36:06.000Z</time>
      </trkpt>
      <trkpt lat="45.6732" lon="6.57959">
        <ele>1379.4</ele>
        <time>2022-03-27T12:36:09.000Z</time>
      </trkpt>
      <trkpt lat="45.6732" lon="6.57959">
        <ele>1379.3</ele>
        <time>2022-03-27T12:36:10.000Z</time>
      </trkpt>
      <trkpt lat="45.6732" lon="6.57959">
        <ele>1379.2</ele>
        <time>2022-03-27T12:36:12.000Z</time>
      </trkpt>
      <trkpt lat="45.67329" lon="6.57959">
        <ele>1378</ele>
        <time>2022-03-27T12:36:30.000Z</time>
      </trkpt>
      <trkpt lat="45.67339" lon="6.57957">
        <ele>1376.3</ele>
        <time>2022-03-27T12:36:38.000Z</time>
      </trkpt>
      <trkpt lat="45.67348" lon="6.57952">
        <ele>1375</ele>
        <time>2022-03-27T12:36:46.000Z</time>
      </trkpt>
      <trkpt lat="45.67357" lon="6.57948">
        <ele>1374.1</ele>
        <time>2022-03-27T12:36:54.000Z</time>
      </trkpt>
      <trkpt lat="45.67366" lon="6.57945">
        <ele>1372.2</ele>
        <time>2022-03-27T12:37:02.000Z</time>
      </trkpt>
      <trkpt lat="45.67375" lon="6.57942">
        <ele>1370.6</ele>
        <time>2022-03-27T12:37:10.000Z</time>
      </trkpt>
      <trkpt lat="45.67383" lon="6.57933">
        <ele>1369.4</ele>
        <time>2022-03-27T12:37:18.000Z</time>
      </trkpt>
      <trkpt lat="45.67391" lon="6.57926">
        <ele>1368.4</ele>
        <time>2022-03-27T12:37:28.000Z</time>
      </trkpt>
      <trkpt lat="45.674" lon="6.57919">
        <ele>1366.7</ele>
        <time>2022-03-27T12:37:38.000Z</time>
      </trkpt>
      <trkpt lat="45.67409" lon="6.57919">
        <ele>1365.3</ele>
        <time>2022-03-27T12:37:47.000Z</time>
      </trkpt>
      <trkpt lat="45.67419" lon="6.5792">
        <ele>1364.7</ele>
        <time>2022-03-27T12:37:56.000Z</time>
      </trkpt>
      <trkpt lat="45.67429" lon="6.57921">
        <ele>1364</ele>
        <time>2022-03-27T12:38:02.000Z</time>
      </trkpt>
      <trkpt lat="45.67438" lon="6.57915">
        <ele>1363</ele>
        <time>2022-03-27T12:38:09.000Z</time>
      </trkpt>
      <trkpt lat="45.67445" lon="6.57907">
        <ele>1362.5</ele>
        <time>2022-03-27T12:38:15.000Z</time>
      </trkpt>
      <trkpt lat="45.67454" lon="6.57904">
        <ele>1361.6</ele>
        <time>2022-03-27T12:38:22.000Z</time>
      </trkpt>
      <trkpt lat="45.67462" lon="6.57898">
        <ele>1360.8</ele>
        <time>2022-03-27T12:38:29.000Z</time>
      </trkpt>
      <trkpt lat="45.67471" lon="6.57891">
        <ele>1359.4</ele>
        <time>2022-03-27T12:38:37.000Z</time>
      </trkpt>
      <trkpt lat="45.67479" lon="6.57883">
        <ele>1358.4</ele>
        <time>2022-03-27T12:38:45.000Z</time>
      </trkpt>
      <trkpt lat="45.67485" lon="6.57877">
        <ele>1357.6</ele>
        <time>2022-03-27T12:39:01.000Z</time>
      </trkpt>
      <trkpt lat="45.67486" lon="6.57877">
        <ele>1357.5</ele>
        <time>2022-03-27T12:39:06.000Z</time>
      </trkpt>
      <trkpt lat="45.67486" lon="6.57877">
        <ele>1357.4</ele>
        <time>2022-03-27T12:39:10.000Z</time>
      </trkpt>
      <trkpt lat="45.67487" lon="6.57876">
        <ele>1356.9</ele>
        <time>2022-03-27T12:39:14.000Z</time>
      </trkpt>
      <trkpt lat="45.67487" lon="6.57875">
        <ele>1357.4</ele>
        <time>2022-03-27T12:39:18.000Z</time>
      </trkpt>
      <trkpt lat="45.67487" lon="6.57875">
        <ele>1357</ele>
        <time>2022-03-27T12:39:50.000Z</time>
      </trkpt>
      <trkpt lat="45.67484" lon="6.57879">
        <ele>1356.5</ele>
        <time>2022-03-27T12:39:59.000Z</time>
      </trkpt>
      <trkpt lat="45.67484" lon="6.57879">
        <ele>1356.1</ele>
        <time>2022-03-27T12:40:04.000Z</time>
      </trkpt>
      <trkpt lat="45.67484" lon="6.57879">
        <ele>1356.5</ele>
        <time>2022-03-27T12:40:06.000Z</time>
      </trkpt>
      <trkpt lat="45.67484" lon="6.57879">
        <ele>1356.5</ele>
        <time>2022-03-27T12:40:09.000Z</time>
      </trkpt>
      <trkpt lat="45.67485" lon="6.57879">
        <ele>1356.6</ele>
        <time>2022-03-27T12:40:11.000Z</time>
      </trkpt>
      <trkpt lat="45.67485" lon="6.5788">
        <ele>1356</ele>
        <time>2022-03-27T12:40:24.000Z</time>
      </trkpt>
      <trkpt lat="45.67486" lon="6.57879">
        <ele>1356.5</ele>
        <time>2022-03-27T12:40:32.000Z</time>
      </trkpt>
      <trkpt lat="45.67485" lon="6.57879">
        <ele>1357.4</ele>
        <time>2022-03-27T12:40:36.000Z</time>
      </trkpt>
      <trkpt lat="45.67485" lon="6.57879">
        <ele>1357.3</ele>
        <time>2022-03-27T12:40:40.000Z</time>
      </trkpt>
      <trkpt lat="45.67486" lon="6.57879">
        <ele>1357</ele>
        <time>2022-03-27T12:40:42.000Z</time>
      </trkpt>
      <trkpt lat="45.67486" lon="6.5788">
        <ele>1357</ele>
        <time>2022-03-27T12:40:44.000Z</time>
      </trkpt>
      <trkpt lat="45.67486" lon="6.5788">
        <ele>1357.1</ele>
        <time>2022-03-27T12:40:45.000Z</time>
      </trkpt>
      <trkpt lat="45.67486" lon="6.5788">
        <ele>1357.1</ele>
        <time>2022-03-27T12:40:45.000Z</time>
      </trkpt>
    </trkseg>
  </trk>
</gpx>